<?xml version="1.0" encoding="UTF-8" standalone="no" ?>
<gpx xmlns="http://www.topografix.com/GPX/1/1" xmlns:xsi="http://www.w3.org/2001/XMLSchema-instance" xsi:schemaLocation="http://www.topografix.com/GPX/1/1 http://www.topografix.com/GPX/1/1/gpx.xsd" version="1.1" creator="VisuGPX - https://www.visugpx.com">
  <metadata>
    <name>Rando vtt St pardoux</name>
    <desc><![CDATA[Rando du 6/02/2011]]></desc>
  </metadata>
  <trk>
    <name><![CDATA[NewCourse]]></name>
    <trkseg>
      <trkpt lat="46.05634" lon="1.28138">
        <ele>363.515747</ele>
        <time>2011-02-06T08:00:53Z</time>
      </trkpt>
      <trkpt lat="46.05616" lon="1.28154">
        <ele>363.515747</ele>
        <time>2011-02-06T08:00:59Z</time>
      </trkpt>
      <trkpt lat="46.05605" lon="1.28169">
        <ele>363.035034</ele>
        <time>2011-02-06T08:01:05Z</time>
      </trkpt>
      <trkpt lat="46.05603" lon="1.28171">
        <ele>363.035034</ele>
        <time>2011-02-06T08:01:09Z</time>
      </trkpt>
      <trkpt lat="46.05605" lon="1.28177">
        <ele>361.112427</ele>
        <time>2011-02-06T08:01:17Z</time>
      </trkpt>
      <trkpt lat="46.05616" lon="1.2816">
        <ele>359.67041</ele>
        <time>2011-02-06T08:01:21Z</time>
      </trkpt>
      <trkpt lat="46.05628" lon="1.28149">
        <ele>358.228394</ele>
        <time>2011-02-06T08:01:25Z</time>
      </trkpt>
      <trkpt lat="46.05644" lon="1.28148">
        <ele>357.747803</ele>
        <time>2011-02-06T08:01:29Z</time>
      </trkpt>
      <trkpt lat="46.05663" lon="1.28162">
        <ele>357.747803</ele>
        <time>2011-02-06T08:01:34Z</time>
      </trkpt>
      <trkpt lat="46.05671" lon="1.28167">
        <ele>357.26709</ele>
        <time>2011-02-06T08:01:36Z</time>
      </trkpt>
      <trkpt lat="46.05691" lon="1.28166">
        <ele>356.305786</ele>
        <time>2011-02-06T08:01:41Z</time>
      </trkpt>
      <trkpt lat="46.05695" lon="1.28163">
        <ele>356.305786</ele>
        <time>2011-02-06T08:01:42Z</time>
      </trkpt>
      <trkpt lat="46.05727" lon="1.2813">
        <ele>360.151123</ele>
        <time>2011-02-06T08:01:51Z</time>
      </trkpt>
      <trkpt lat="46.05744" lon="1.28116">
        <ele>364.476929</ele>
        <time>2011-02-06T08:01:57Z</time>
      </trkpt>
      <trkpt lat="46.05754" lon="1.28108">
        <ele>365.918945</ele>
        <time>2011-02-06T08:02:01Z</time>
      </trkpt>
      <trkpt lat="46.05762" lon="1.28104">
        <ele>365.918945</ele>
        <time>2011-02-06T08:02:04Z</time>
      </trkpt>
      <trkpt lat="46.05772" lon="1.28111">
        <ele>367.841553</ele>
        <time>2011-02-06T08:02:09Z</time>
      </trkpt>
      <trkpt lat="46.05785" lon="1.28133">
        <ele>372.167481</ele>
        <time>2011-02-06T08:02:16Z</time>
      </trkpt>
      <trkpt lat="46.05798" lon="1.28157">
        <ele>374.090088</ele>
        <time>2011-02-06T08:02:23Z</time>
      </trkpt>
      <trkpt lat="46.05808" lon="1.28182">
        <ele>374.090088</ele>
        <time>2011-02-06T08:02:30Z</time>
      </trkpt>
      <trkpt lat="46.05819" lon="1.28208">
        <ele>373.609497</ele>
        <time>2011-02-06T08:02:38Z</time>
      </trkpt>
      <trkpt lat="46.05828" lon="1.2822">
        <ele>376.012817</ele>
        <time>2011-02-06T08:02:44Z</time>
      </trkpt>
      <trkpt lat="46.05839" lon="1.28232">
        <ele>375.532105</ele>
        <time>2011-02-06T08:02:50Z</time>
      </trkpt>
      <trkpt lat="46.05841" lon="1.28234">
        <ele>375.532105</ele>
        <time>2011-02-06T08:02:52Z</time>
      </trkpt>
      <trkpt lat="46.05847" lon="1.28228">
        <ele>374.570801</ele>
        <time>2011-02-06T08:02:57Z</time>
      </trkpt>
      <trkpt lat="46.05857" lon="1.28206">
        <ele>375.051514</ele>
        <time>2011-02-06T08:03:04Z</time>
      </trkpt>
      <trkpt lat="46.05857" lon="1.28186">
        <ele>374.570801</ele>
        <time>2011-02-06T08:03:10Z</time>
      </trkpt>
      <trkpt lat="46.0585" lon="1.2817">
        <ele>374.090088</ele>
        <time>2011-02-06T08:03:16Z</time>
      </trkpt>
      <trkpt lat="46.05847" lon="1.28164">
        <ele>374.570801</ele>
        <time>2011-02-06T08:03:19Z</time>
      </trkpt>
      <trkpt lat="46.05845" lon="1.2816">
        <ele>374.570801</ele>
        <time>2011-02-06T08:03:21Z</time>
      </trkpt>
      <trkpt lat="46.05839" lon="1.28158">
        <ele>375.051514</ele>
        <time>2011-02-06T08:03:26Z</time>
      </trkpt>
      <trkpt lat="46.05839" lon="1.28158">
        <ele>375.051514</ele>
        <time>2011-02-06T08:03:27Z</time>
      </trkpt>
      <trkpt lat="46.05847" lon="1.28177">
        <ele>371.206299</ele>
        <time>2011-02-06T08:06:04Z</time>
      </trkpt>
      <trkpt lat="46.05842" lon="1.28176">
        <ele>366.399536</ele>
        <time>2011-02-06T08:06:16Z</time>
      </trkpt>
      <trkpt lat="46.05845" lon="1.28164">
        <ele>374.570801</ele>
        <time>2011-02-06T08:11:46Z</time>
      </trkpt>
      <trkpt lat="46.05846" lon="1.28166">
        <ele>374.090088</ele>
        <time>2011-02-06T08:11:47Z</time>
      </trkpt>
      <trkpt lat="46.05852" lon="1.28173">
        <ele>372.648193</ele>
        <time>2011-02-06T08:11:50Z</time>
      </trkpt>
      <trkpt lat="46.0586" lon="1.28197">
        <ele>369.764282</ele>
        <time>2011-02-06T08:11:58Z</time>
      </trkpt>
      <trkpt lat="46.05857" lon="1.28215">
        <ele>369.283691</ele>
        <time>2011-02-06T08:12:03Z</time>
      </trkpt>
      <trkpt lat="46.05849" lon="1.28232">
        <ele>371.206299</ele>
        <time>2011-02-06T08:12:09Z</time>
      </trkpt>
      <trkpt lat="46.05839" lon="1.28226">
        <ele>373.128906</ele>
        <time>2011-02-06T08:12:14Z</time>
      </trkpt>
      <trkpt lat="46.05837" lon="1.28223">
        <ele>373.609497</ele>
        <time>2011-02-06T08:12:15Z</time>
      </trkpt>
      <trkpt lat="46.05829" lon="1.28213">
        <ele>374.090088</ele>
        <time>2011-02-06T08:12:18Z</time>
      </trkpt>
      <trkpt lat="46.05816" lon="1.28216">
        <ele>373.609497</ele>
        <time>2011-02-06T08:12:22Z</time>
      </trkpt>
      <trkpt lat="46.05804" lon="1.28233">
        <ele>373.128906</ele>
        <time>2011-02-06T08:12:27Z</time>
      </trkpt>
      <trkpt lat="46.05771" lon="1.28266">
        <ele>371.206299</ele>
        <time>2011-02-06T08:12:38Z</time>
      </trkpt>
      <trkpt lat="46.05748" lon="1.28287">
        <ele>370.725586</ele>
        <time>2011-02-06T08:12:46Z</time>
      </trkpt>
      <trkpt lat="46.05737" lon="1.28296">
        <ele>370.244873</ele>
        <time>2011-02-06T08:12:50Z</time>
      </trkpt>
      <trkpt lat="46.05713" lon="1.28304">
        <ele>369.283691</ele>
        <time>2011-02-06T08:12:57Z</time>
      </trkpt>
      <trkpt lat="46.05697" lon="1.28304">
        <ele>368.802978</ele>
        <time>2011-02-06T08:13:02Z</time>
      </trkpt>
      <trkpt lat="46.05687" lon="1.28304">
        <ele>369.283691</ele>
        <time>2011-02-06T08:13:05Z</time>
      </trkpt>
      <trkpt lat="46.05674" lon="1.28309">
        <ele>370.244873</ele>
        <time>2011-02-06T08:13:10Z</time>
      </trkpt>
      <trkpt lat="46.05662" lon="1.28319">
        <ele>370.725586</ele>
        <time>2011-02-06T08:13:15Z</time>
      </trkpt>
      <trkpt lat="46.0565" lon="1.28308">
        <ele>369.764282</ele>
        <time>2011-02-06T08:13:20Z</time>
      </trkpt>
      <trkpt lat="46.05648" lon="1.28303">
        <ele>370.244873</ele>
        <time>2011-02-06T08:13:21Z</time>
      </trkpt>
      <trkpt lat="46.05634" lon="1.28262">
        <ele>370.725586</ele>
        <time>2011-02-06T08:13:28Z</time>
      </trkpt>
      <trkpt lat="46.05626" lon="1.28234">
        <ele>372.167481</ele>
        <time>2011-02-06T08:13:32Z</time>
      </trkpt>
      <trkpt lat="46.0561" lon="1.28192">
        <ele>370.244873</ele>
        <time>2011-02-06T08:13:38Z</time>
      </trkpt>
      <trkpt lat="46.05607" lon="1.28185">
        <ele>369.764282</ele>
        <time>2011-02-06T08:13:39Z</time>
      </trkpt>
      <trkpt lat="46.05592" lon="1.28179">
        <ele>367.841553</ele>
        <time>2011-02-06T08:13:43Z</time>
      </trkpt>
      <trkpt lat="46.05588" lon="1.28182">
        <ele>367.360962</ele>
        <time>2011-02-06T08:13:44Z</time>
      </trkpt>
      <trkpt lat="46.05575" lon="1.28189">
        <ele>367.360962</ele>
        <time>2011-02-06T08:13:47Z</time>
      </trkpt>
      <trkpt lat="46.05555" lon="1.28185">
        <ele>366.880249</ele>
        <time>2011-02-06T08:13:52Z</time>
      </trkpt>
      <trkpt lat="46.0555" lon="1.28178">
        <ele>366.880249</ele>
        <time>2011-02-06T08:13:54Z</time>
      </trkpt>
      <trkpt lat="46.0554" lon="1.28135">
        <ele>367.360962</ele>
        <time>2011-02-06T08:14:03Z</time>
      </trkpt>
      <trkpt lat="46.05531" lon="1.28099">
        <ele>368.322266</ele>
        <time>2011-02-06T08:14:10Z</time>
      </trkpt>
      <trkpt lat="46.05522" lon="1.2806">
        <ele>370.725586</ele>
        <time>2011-02-06T08:14:18Z</time>
      </trkpt>
      <trkpt lat="46.05515" lon="1.28033">
        <ele>374.090088</ele>
        <time>2011-02-06T08:14:24Z</time>
      </trkpt>
      <trkpt lat="46.05505" lon="1.28013">
        <ele>378.416138</ele>
        <time>2011-02-06T08:14:30Z</time>
      </trkpt>
      <trkpt lat="46.05485" lon="1.27999">
        <ele>379.377441</ele>
        <time>2011-02-06T08:14:37Z</time>
      </trkpt>
      <trkpt lat="46.05458" lon="1.27997">
        <ele>376.974243</ele>
        <time>2011-02-06T08:14:45Z</time>
      </trkpt>
      <trkpt lat="46.05432" lon="1.28006">
        <ele>374.570801</ele>
        <time>2011-02-06T08:14:53Z</time>
      </trkpt>
      <trkpt lat="46.05403" lon="1.28022">
        <ele>370.244873</ele>
        <time>2011-02-06T08:15:02Z</time>
      </trkpt>
      <trkpt lat="46.05372" lon="1.28034">
        <ele>369.764282</ele>
        <time>2011-02-06T08:15:12Z</time>
      </trkpt>
      <trkpt lat="46.05347" lon="1.28039">
        <ele>370.725586</ele>
        <time>2011-02-06T08:15:20Z</time>
      </trkpt>
      <trkpt lat="46.05322" lon="1.28047">
        <ele>372.167481</ele>
        <time>2011-02-06T08:15:28Z</time>
      </trkpt>
      <trkpt lat="46.05297" lon="1.28062">
        <ele>371.206299</ele>
        <time>2011-02-06T08:15:36Z</time>
      </trkpt>
      <trkpt lat="46.0527" lon="1.28078">
        <ele>371.68689</ele>
        <time>2011-02-06T08:15:44Z</time>
      </trkpt>
      <trkpt lat="46.05235" lon="1.28097">
        <ele>374.570801</ele>
        <time>2011-02-06T08:15:54Z</time>
      </trkpt>
      <trkpt lat="46.05209" lon="1.28116">
        <ele>376.974243</ele>
        <time>2011-02-06T08:16:02Z</time>
      </trkpt>
      <trkpt lat="46.05182" lon="1.28142">
        <ele>376.49353</ele>
        <time>2011-02-06T08:16:09Z</time>
      </trkpt>
      <trkpt lat="46.05171" lon="1.28153">
        <ele>376.49353</ele>
        <time>2011-02-06T08:16:12Z</time>
      </trkpt>
      <trkpt lat="46.05167" lon="1.28157">
        <ele>376.49353</ele>
        <time>2011-02-06T08:16:13Z</time>
      </trkpt>
      <trkpt lat="46.05161" lon="1.28166">
        <ele>376.49353</ele>
        <time>2011-02-06T08:16:15Z</time>
      </trkpt>
      <trkpt lat="46.05145" lon="1.28166">
        <ele>376.974243</ele>
        <time>2011-02-06T08:16:19Z</time>
      </trkpt>
      <trkpt lat="46.05115" lon="1.2816">
        <ele>377.935425</ele>
        <time>2011-02-06T08:16:25Z</time>
      </trkpt>
      <trkpt lat="46.05101" lon="1.28148">
        <ele>379.858032</ele>
        <time>2011-02-06T08:16:30Z</time>
      </trkpt>
      <trkpt lat="46.05096" lon="1.28133">
        <ele>382.261352</ele>
        <time>2011-02-06T08:16:34Z</time>
      </trkpt>
      <trkpt lat="46.05095" lon="1.28122">
        <ele>384.664795</ele>
        <time>2011-02-06T08:16:38Z</time>
      </trkpt>
      <trkpt lat="46.05094" lon="1.28117">
        <ele>385.625977</ele>
        <time>2011-02-06T08:16:40Z</time>
      </trkpt>
      <trkpt lat="46.05093" lon="1.28105">
        <ele>389.471191</ele>
        <time>2011-02-06T08:16:45Z</time>
      </trkpt>
      <trkpt lat="46.0509" lon="1.28089">
        <ele>391.393799</ele>
        <time>2011-02-06T08:16:52Z</time>
      </trkpt>
      <trkpt lat="46.0509" lon="1.28074">
        <ele>392.835938</ele>
        <time>2011-02-06T08:16:58Z</time>
      </trkpt>
      <trkpt lat="46.05088" lon="1.28064">
        <ele>394.277954</ele>
        <time>2011-02-06T08:17:02Z</time>
      </trkpt>
      <trkpt lat="46.05088" lon="1.28051">
        <ele>398.123169</ele>
        <time>2011-02-06T08:17:07Z</time>
      </trkpt>
      <trkpt lat="46.05081" lon="1.28038">
        <ele>402.449097</ele>
        <time>2011-02-06T08:17:12Z</time>
      </trkpt>
      <trkpt lat="46.05079" lon="1.28021">
        <ele>406.294311</ele>
        <time>2011-02-06T08:17:17Z</time>
      </trkpt>
      <trkpt lat="46.0508" lon="1.28007">
        <ele>408.217041</ele>
        <time>2011-02-06T08:17:21Z</time>
      </trkpt>
      <trkpt lat="46.0508" lon="1.27999">
        <ele>408.217041</ele>
        <time>2011-02-06T08:17:23Z</time>
      </trkpt>
      <trkpt lat="46.05079" lon="1.27975">
        <ele>408.217041</ele>
        <time>2011-02-06T08:17:29Z</time>
      </trkpt>
      <trkpt lat="46.05081" lon="1.27958">
        <ele>406.294311</ele>
        <time>2011-02-06T08:17:33Z</time>
      </trkpt>
      <trkpt lat="46.05084" lon="1.27936">
        <ele>407.255615</ele>
        <time>2011-02-06T08:17:39Z</time>
      </trkpt>
      <trkpt lat="46.05086" lon="1.27915">
        <ele>410.139648</ele>
        <time>2011-02-06T08:17:45Z</time>
      </trkpt>
      <trkpt lat="46.05087" lon="1.27901">
        <ele>411.100952</ele>
        <time>2011-02-06T08:17:51Z</time>
      </trkpt>
      <trkpt lat="46.0509" lon="1.27886">
        <ele>413.02356</ele>
        <time>2011-02-06T08:17:55Z</time>
      </trkpt>
      <trkpt lat="46.05095" lon="1.2786">
        <ele>410.139648</ele>
        <time>2011-02-06T08:18:02Z</time>
      </trkpt>
      <trkpt lat="46.05099" lon="1.27839">
        <ele>409.178345</ele>
        <time>2011-02-06T08:18:05Z</time>
      </trkpt>
      <trkpt lat="46.05099" lon="1.27823">
        <ele>409.178345</ele>
        <time>2011-02-06T08:18:07Z</time>
      </trkpt>
      <trkpt lat="46.05107" lon="1.27787">
        <ele>403.891113</ele>
        <time>2011-02-06T08:18:11Z</time>
      </trkpt>
      <trkpt lat="46.05112" lon="1.27759">
        <ele>400.045898</ele>
        <time>2011-02-06T08:18:15Z</time>
      </trkpt>
      <trkpt lat="46.05105" lon="1.27733">
        <ele>394.758545</ele>
        <time>2011-02-06T08:18:19Z</time>
      </trkpt>
      <trkpt lat="46.05097" lon="1.2771">
        <ele>388.029297</ele>
        <time>2011-02-06T08:18:22Z</time>
      </trkpt>
      <trkpt lat="46.05113" lon="1.2768">
        <ele>378.416138</ele>
        <time>2011-02-06T08:18:28Z</time>
      </trkpt>
      <trkpt lat="46.05121" lon="1.2768">
        <ele>377.935425</ele>
        <time>2011-02-06T08:18:30Z</time>
      </trkpt>
      <trkpt lat="46.05144" lon="1.27673">
        <ele>377.935425</ele>
        <time>2011-02-06T08:18:38Z</time>
      </trkpt>
      <trkpt lat="46.05149" lon="1.27671">
        <ele>378.896851</ele>
        <time>2011-02-06T08:18:40Z</time>
      </trkpt>
      <trkpt lat="46.05154" lon="1.27658">
        <ele>377.454834</ele>
        <time>2011-02-06T08:18:45Z</time>
      </trkpt>
      <trkpt lat="46.05149" lon="1.27627">
        <ele>376.012817</ele>
        <time>2011-02-06T08:18:49Z</time>
      </trkpt>
      <trkpt lat="46.05143" lon="1.27595">
        <ele>374.570801</ele>
        <time>2011-02-06T08:18:52Z</time>
      </trkpt>
      <trkpt lat="46.05149" lon="1.2756">
        <ele>364.476929</ele>
        <time>2011-02-06T08:18:56Z</time>
      </trkpt>
      <trkpt lat="46.05153" lon="1.27529">
        <ele>363.996338</ele>
        <time>2011-02-06T08:19:00Z</time>
      </trkpt>
      <trkpt lat="46.05153" lon="1.27515">
        <ele>365.918945</ele>
        <time>2011-02-06T08:19:03Z</time>
      </trkpt>
      <trkpt lat="46.05151" lon="1.27505">
        <ele>366.880249</ele>
        <time>2011-02-06T08:19:07Z</time>
      </trkpt>
      <trkpt lat="46.05151" lon="1.27497">
        <ele>367.841553</ele>
        <time>2011-02-06T08:19:11Z</time>
      </trkpt>
      <trkpt lat="46.05149" lon="1.27489">
        <ele>370.725586</ele>
        <time>2011-02-06T08:19:16Z</time>
      </trkpt>
      <trkpt lat="46.05149" lon="1.27472">
        <ele>377.454834</ele>
        <time>2011-02-06T08:19:22Z</time>
      </trkpt>
      <trkpt lat="46.05151" lon="1.27454">
        <ele>386.587402</ele>
        <time>2011-02-06T08:19:28Z</time>
      </trkpt>
      <trkpt lat="46.05152" lon="1.27446">
        <ele>388.029297</ele>
        <time>2011-02-06T08:19:31Z</time>
      </trkpt>
      <trkpt lat="46.05158" lon="1.27431">
        <ele>389.951904</ele>
        <time>2011-02-06T08:19:38Z</time>
      </trkpt>
      <trkpt lat="46.05166" lon="1.27414">
        <ele>393.797241</ele>
        <time>2011-02-06T08:19:44Z</time>
      </trkpt>
      <trkpt lat="46.05173" lon="1.27399">
        <ele>394.758545</ele>
        <time>2011-02-06T08:19:50Z</time>
      </trkpt>
      <trkpt lat="46.05179" lon="1.2738">
        <ele>395.239136</ele>
        <time>2011-02-06T08:19:55Z</time>
      </trkpt>
      <trkpt lat="46.05183" lon="1.27359">
        <ele>392.835938</ele>
        <time>2011-02-06T08:20:01Z</time>
      </trkpt>
      <trkpt lat="46.05189" lon="1.27335">
        <ele>389.951904</ele>
        <time>2011-02-06T08:20:06Z</time>
      </trkpt>
      <trkpt lat="46.052" lon="1.27307">
        <ele>385.625977</ele>
        <time>2011-02-06T08:20:12Z</time>
      </trkpt>
      <trkpt lat="46.05215" lon="1.27277">
        <ele>383.222656</ele>
        <time>2011-02-06T08:20:19Z</time>
      </trkpt>
      <trkpt lat="46.05228" lon="1.27253">
        <ele>380.819458</ele>
        <time>2011-02-06T08:20:25Z</time>
      </trkpt>
      <trkpt lat="46.05242" lon="1.27228">
        <ele>380.819458</ele>
        <time>2011-02-06T08:20:32Z</time>
      </trkpt>
      <trkpt lat="46.05253" lon="1.27207">
        <ele>381.78064</ele>
        <time>2011-02-06T08:20:38Z</time>
      </trkpt>
      <trkpt lat="46.05263" lon="1.27184">
        <ele>383.703247</ele>
        <time>2011-02-06T08:20:43Z</time>
      </trkpt>
      <trkpt lat="46.05277" lon="1.27163">
        <ele>383.703247</ele>
        <time>2011-02-06T08:20:48Z</time>
      </trkpt>
      <trkpt lat="46.05282" lon="1.27154">
        <ele>384.664795</ele>
        <time>2011-02-06T08:20:50Z</time>
      </trkpt>
      <trkpt lat="46.05294" lon="1.27136">
        <ele>385.145386</ele>
        <time>2011-02-06T08:20:54Z</time>
      </trkpt>
      <trkpt lat="46.05322" lon="1.27104">
        <ele>381.78064</ele>
        <time>2011-02-06T08:21:01Z</time>
      </trkpt>
      <trkpt lat="46.05326" lon="1.27099">
        <ele>381.78064</ele>
        <time>2011-02-06T08:21:02Z</time>
      </trkpt>
      <trkpt lat="46.05339" lon="1.27086">
        <ele>380.819458</ele>
        <time>2011-02-06T08:21:05Z</time>
      </trkpt>
      <trkpt lat="46.0536" lon="1.27063">
        <ele>377.935425</ele>
        <time>2011-02-06T08:21:10Z</time>
      </trkpt>
      <trkpt lat="46.05376" lon="1.27042">
        <ele>373.609497</ele>
        <time>2011-02-06T08:21:14Z</time>
      </trkpt>
      <trkpt lat="46.05394" lon="1.27011">
        <ele>375.532105</ele>
        <time>2011-02-06T08:21:19Z</time>
      </trkpt>
      <trkpt lat="46.05403" lon="1.26988">
        <ele>375.051514</ele>
        <time>2011-02-06T08:21:22Z</time>
      </trkpt>
      <trkpt lat="46.05404" lon="1.26943">
        <ele>370.725586</ele>
        <time>2011-02-06T08:21:26Z</time>
      </trkpt>
      <trkpt lat="46.05402" lon="1.26905">
        <ele>370.244873</ele>
        <time>2011-02-06T08:21:29Z</time>
      </trkpt>
      <trkpt lat="46.05394" lon="1.26889">
        <ele>369.764282</ele>
        <time>2011-02-06T08:21:31Z</time>
      </trkpt>
      <trkpt lat="46.05385" lon="1.26874">
        <ele>369.283691</ele>
        <time>2011-02-06T08:21:33Z</time>
      </trkpt>
      <trkpt lat="46.05367" lon="1.26837">
        <ele>368.322266</ele>
        <time>2011-02-06T08:21:38Z</time>
      </trkpt>
      <trkpt lat="46.05355" lon="1.26818">
        <ele>368.322266</ele>
        <time>2011-02-06T08:21:41Z</time>
      </trkpt>
      <trkpt lat="46.05342" lon="1.26792">
        <ele>368.322266</ele>
        <time>2011-02-06T08:21:45Z</time>
      </trkpt>
      <trkpt lat="46.05336" lon="1.26779">
        <ele>367.841553</ele>
        <time>2011-02-06T08:21:47Z</time>
      </trkpt>
      <trkpt lat="46.05323" lon="1.26753">
        <ele>367.360962</ele>
        <time>2011-02-06T08:21:51Z</time>
      </trkpt>
      <trkpt lat="46.05304" lon="1.2672">
        <ele>367.360962</ele>
        <time>2011-02-06T08:21:57Z</time>
      </trkpt>
      <trkpt lat="46.05301" lon="1.26714">
        <ele>367.360962</ele>
        <time>2011-02-06T08:21:58Z</time>
      </trkpt>
      <trkpt lat="46.053" lon="1.26689">
        <ele>365.918945</ele>
        <time>2011-02-06T08:22:02Z</time>
      </trkpt>
      <trkpt lat="46.05303" lon="1.2667">
        <ele>365.438355</ele>
        <time>2011-02-06T08:22:05Z</time>
      </trkpt>
      <trkpt lat="46.05302" lon="1.26645">
        <ele>366.399536</ele>
        <time>2011-02-06T08:22:10Z</time>
      </trkpt>
      <trkpt lat="46.05301" lon="1.26642">
        <ele>366.399536</ele>
        <time>2011-02-06T08:22:11Z</time>
      </trkpt>
      <trkpt lat="46.05303" lon="1.26625">
        <ele>366.880249</ele>
        <time>2011-02-06T08:22:17Z</time>
      </trkpt>
      <trkpt lat="46.0531" lon="1.26603">
        <ele>365.918945</ele>
        <time>2011-02-06T08:22:21Z</time>
      </trkpt>
      <trkpt lat="46.05321" lon="1.26569">
        <ele>364.476929</ele>
        <time>2011-02-06T08:22:25Z</time>
      </trkpt>
      <trkpt lat="46.05339" lon="1.26528">
        <ele>363.035034</ele>
        <time>2011-02-06T08:22:30Z</time>
      </trkpt>
      <trkpt lat="46.05342" lon="1.26522">
        <ele>362.554321</ele>
        <time>2011-02-06T08:22:31Z</time>
      </trkpt>
      <trkpt lat="46.05356" lon="1.26483">
        <ele>361.112427</ele>
        <time>2011-02-06T08:22:36Z</time>
      </trkpt>
      <trkpt lat="46.05366" lon="1.26455">
        <ele>357.747803</ele>
        <time>2011-02-06T08:22:40Z</time>
      </trkpt>
      <trkpt lat="46.05372" lon="1.26441">
        <ele>355.825195</ele>
        <time>2011-02-06T08:22:42Z</time>
      </trkpt>
      <trkpt lat="46.05377" lon="1.26404">
        <ele>355.344482</ele>
        <time>2011-02-06T08:22:47Z</time>
      </trkpt>
      <trkpt lat="46.05369" lon="1.26373">
        <ele>355.825195</ele>
        <time>2011-02-06T08:22:51Z</time>
      </trkpt>
      <trkpt lat="46.05364" lon="1.26363">
        <ele>356.305786</ele>
        <time>2011-02-06T08:22:53Z</time>
      </trkpt>
      <trkpt lat="46.05358" lon="1.26352">
        <ele>356.786377</ele>
        <time>2011-02-06T08:22:55Z</time>
      </trkpt>
      <trkpt lat="46.05344" lon="1.26336">
        <ele>356.786377</ele>
        <time>2011-02-06T08:22:59Z</time>
      </trkpt>
      <trkpt lat="46.05334" lon="1.26328">
        <ele>355.344482</ele>
        <time>2011-02-06T08:23:02Z</time>
      </trkpt>
      <trkpt lat="46.05309" lon="1.26311">
        <ele>355.344482</ele>
        <time>2011-02-06T08:23:09Z</time>
      </trkpt>
      <trkpt lat="46.05288" lon="1.26293">
        <ele>356.305786</ele>
        <time>2011-02-06T08:23:15Z</time>
      </trkpt>
      <trkpt lat="46.05286" lon="1.26289">
        <ele>356.305786</ele>
        <time>2011-02-06T08:23:16Z</time>
      </trkpt>
      <trkpt lat="46.05264" lon="1.26269">
        <ele>356.305786</ele>
        <time>2011-02-06T08:23:23Z</time>
      </trkpt>
      <trkpt lat="46.05244" lon="1.26258">
        <ele>357.26709</ele>
        <time>2011-02-06T08:23:30Z</time>
      </trkpt>
      <trkpt lat="46.05229" lon="1.26251">
        <ele>358.708984</ele>
        <time>2011-02-06T08:23:36Z</time>
      </trkpt>
      <trkpt lat="46.05214" lon="1.26245">
        <ele>359.189697</ele>
        <time>2011-02-06T08:23:42Z</time>
      </trkpt>
      <trkpt lat="46.05194" lon="1.26238">
        <ele>356.305786</ele>
        <time>2011-02-06T08:23:49Z</time>
      </trkpt>
      <trkpt lat="46.05174" lon="1.26236">
        <ele>355.344482</ele>
        <time>2011-02-06T08:23:56Z</time>
      </trkpt>
      <trkpt lat="46.05157" lon="1.26237">
        <ele>354.863769</ele>
        <time>2011-02-06T08:24:02Z</time>
      </trkpt>
      <trkpt lat="46.05129" lon="1.26237">
        <ele>356.305786</ele>
        <time>2011-02-06T08:24:11Z</time>
      </trkpt>
      <trkpt lat="46.05108" lon="1.26248">
        <ele>354.383179</ele>
        <time>2011-02-06T08:24:19Z</time>
      </trkpt>
      <trkpt lat="46.05087" lon="1.26257">
        <ele>354.863769</ele>
        <time>2011-02-06T08:24:27Z</time>
      </trkpt>
      <trkpt lat="46.05067" lon="1.26262">
        <ele>357.26709</ele>
        <time>2011-02-06T08:24:34Z</time>
      </trkpt>
      <trkpt lat="46.05046" lon="1.2627">
        <ele>359.67041</ele>
        <time>2011-02-06T08:24:42Z</time>
      </trkpt>
      <trkpt lat="46.0503" lon="1.26277">
        <ele>359.67041</ele>
        <time>2011-02-06T08:24:49Z</time>
      </trkpt>
      <trkpt lat="46.05014" lon="1.26282">
        <ele>360.631714</ele>
        <time>2011-02-06T08:24:55Z</time>
      </trkpt>
      <trkpt lat="46.04996" lon="1.26288">
        <ele>358.708984</ele>
        <time>2011-02-06T08:25:01Z</time>
      </trkpt>
      <trkpt lat="46.04976" lon="1.26296">
        <ele>360.151123</ele>
        <time>2011-02-06T08:25:07Z</time>
      </trkpt>
      <trkpt lat="46.04952" lon="1.26308">
        <ele>363.035034</ele>
        <time>2011-02-06T08:25:16Z</time>
      </trkpt>
      <trkpt lat="46.04937" lon="1.26303">
        <ele>363.996338</ele>
        <time>2011-02-06T08:25:21Z</time>
      </trkpt>
      <trkpt lat="46.04923" lon="1.26298">
        <ele>367.841553</ele>
        <time>2011-02-06T08:25:26Z</time>
      </trkpt>
      <trkpt lat="46.04909" lon="1.26292">
        <ele>368.322266</ele>
        <time>2011-02-06T08:25:31Z</time>
      </trkpt>
      <trkpt lat="46.04894" lon="1.26287">
        <ele>369.283691</ele>
        <time>2011-02-06T08:25:36Z</time>
      </trkpt>
      <trkpt lat="46.04871" lon="1.26276">
        <ele>371.206299</ele>
        <time>2011-02-06T08:25:43Z</time>
      </trkpt>
      <trkpt lat="46.04849" lon="1.26269">
        <ele>371.206299</ele>
        <time>2011-02-06T08:25:50Z</time>
      </trkpt>
      <trkpt lat="46.04835" lon="1.26263">
        <ele>371.68689</ele>
        <time>2011-02-06T08:25:55Z</time>
      </trkpt>
      <trkpt lat="46.04817" lon="1.26249">
        <ele>375.051514</ele>
        <time>2011-02-06T08:26:02Z</time>
      </trkpt>
      <trkpt lat="46.04801" lon="1.26234">
        <ele>373.128906</ele>
        <time>2011-02-06T08:26:08Z</time>
      </trkpt>
      <trkpt lat="46.04782" lon="1.2621">
        <ele>373.609497</ele>
        <time>2011-02-06T08:26:15Z</time>
      </trkpt>
      <trkpt lat="46.04762" lon="1.26187">
        <ele>375.051514</ele>
        <time>2011-02-06T08:26:23Z</time>
      </trkpt>
      <trkpt lat="46.04745" lon="1.26172">
        <ele>374.570801</ele>
        <time>2011-02-06T08:26:31Z</time>
      </trkpt>
      <trkpt lat="46.04726" lon="1.26157">
        <ele>377.935425</ele>
        <time>2011-02-06T08:26:40Z</time>
      </trkpt>
      <trkpt lat="46.04717" lon="1.2615">
        <ele>378.896851</ele>
        <time>2011-02-06T08:26:46Z</time>
      </trkpt>
      <trkpt lat="46.04706" lon="1.26139">
        <ele>378.416138</ele>
        <time>2011-02-06T08:26:53Z</time>
      </trkpt>
      <trkpt lat="46.04696" lon="1.26122">
        <ele>379.858032</ele>
        <time>2011-02-06T08:27:02Z</time>
      </trkpt>
      <trkpt lat="46.04688" lon="1.2611">
        <ele>382.742065</ele>
        <time>2011-02-06T08:27:09Z</time>
      </trkpt>
      <trkpt lat="46.04677" lon="1.261">
        <ele>383.222656</ele>
        <time>2011-02-06T08:27:15Z</time>
      </trkpt>
      <trkpt lat="46.04661" lon="1.26091">
        <ele>382.742065</ele>
        <time>2011-02-06T08:27:22Z</time>
      </trkpt>
      <trkpt lat="46.04645" lon="1.26079">
        <ele>381.78064</ele>
        <time>2011-02-06T08:27:28Z</time>
      </trkpt>
      <trkpt lat="46.04623" lon="1.26058">
        <ele>381.300049</ele>
        <time>2011-02-06T08:27:34Z</time>
      </trkpt>
      <trkpt lat="46.04619" lon="1.26054">
        <ele>381.300049</ele>
        <time>2011-02-06T08:27:35Z</time>
      </trkpt>
      <trkpt lat="46.04595" lon="1.26021">
        <ele>379.377441</ele>
        <time>2011-02-06T08:27:40Z</time>
      </trkpt>
      <trkpt lat="46.0459" lon="1.25993">
        <ele>375.051514</ele>
        <time>2011-02-06T08:27:45Z</time>
      </trkpt>
      <trkpt lat="46.04593" lon="1.25986">
        <ele>375.051514</ele>
        <time>2011-02-06T08:27:46Z</time>
      </trkpt>
      <trkpt lat="46.04617" lon="1.25923">
        <ele>373.609497</ele>
        <time>2011-02-06T08:27:54Z</time>
      </trkpt>
      <trkpt lat="46.04634" lon="1.25891">
        <ele>371.68689</ele>
        <time>2011-02-06T08:27:58Z</time>
      </trkpt>
      <trkpt lat="46.04655" lon="1.2584">
        <ele>370.244873</ele>
        <time>2011-02-06T08:28:03Z</time>
      </trkpt>
      <trkpt lat="46.04688" lon="1.25774">
        <ele>361.112427</ele>
        <time>2011-02-06T08:28:09Z</time>
      </trkpt>
      <trkpt lat="46.04711" lon="1.2571">
        <ele>356.305786</ele>
        <time>2011-02-06T08:28:14Z</time>
      </trkpt>
      <trkpt lat="46.04722" lon="1.2567">
        <ele>354.383179</ele>
        <time>2011-02-06T08:28:18Z</time>
      </trkpt>
      <trkpt lat="46.04726" lon="1.25654">
        <ele>354.863769</ele>
        <time>2011-02-06T08:28:20Z</time>
      </trkpt>
      <trkpt lat="46.04742" lon="1.25641">
        <ele>354.383179</ele>
        <time>2011-02-06T08:28:24Z</time>
      </trkpt>
      <trkpt lat="46.04766" lon="1.25641">
        <ele>353.902588</ele>
        <time>2011-02-06T08:28:31Z</time>
      </trkpt>
      <trkpt lat="46.0479" lon="1.25639">
        <ele>355.344482</ele>
        <time>2011-02-06T08:28:38Z</time>
      </trkpt>
      <trkpt lat="46.0481" lon="1.25633">
        <ele>354.383179</ele>
        <time>2011-02-06T08:28:44Z</time>
      </trkpt>
      <trkpt lat="46.04829" lon="1.2562">
        <ele>353.902588</ele>
        <time>2011-02-06T08:28:50Z</time>
      </trkpt>
      <trkpt lat="46.04841" lon="1.25611">
        <ele>354.863769</ele>
        <time>2011-02-06T08:28:55Z</time>
      </trkpt>
      <trkpt lat="46.04854" lon="1.25601">
        <ele>357.747803</ele>
        <time>2011-02-06T08:29:00Z</time>
      </trkpt>
      <trkpt lat="46.04866" lon="1.25587">
        <ele>361.59314</ele>
        <time>2011-02-06T08:29:05Z</time>
      </trkpt>
      <trkpt lat="46.04876" lon="1.25569">
        <ele>363.515747</ele>
        <time>2011-02-06T08:29:10Z</time>
      </trkpt>
      <trkpt lat="46.04894" lon="1.25547">
        <ele>365.438355</ele>
        <time>2011-02-06T08:29:15Z</time>
      </trkpt>
      <trkpt lat="46.04916" lon="1.25538">
        <ele>364.957642</ele>
        <time>2011-02-06T08:29:19Z</time>
      </trkpt>
      <trkpt lat="46.04929" lon="1.25528">
        <ele>364.476929</ele>
        <time>2011-02-06T08:29:22Z</time>
      </trkpt>
      <trkpt lat="46.04946" lon="1.25507">
        <ele>360.151123</ele>
        <time>2011-02-06T08:29:27Z</time>
      </trkpt>
      <trkpt lat="46.0496" lon="1.25502">
        <ele>356.305786</ele>
        <time>2011-02-06T08:29:31Z</time>
      </trkpt>
      <trkpt lat="46.0497" lon="1.25515">
        <ele>355.344482</ele>
        <time>2011-02-06T08:29:38Z</time>
      </trkpt>
      <trkpt lat="46.04978" lon="1.25519">
        <ele>358.708984</ele>
        <time>2011-02-06T08:29:44Z</time>
      </trkpt>
      <trkpt lat="46.04986" lon="1.25518">
        <ele>362.554321</ele>
        <time>2011-02-06T08:29:51Z</time>
      </trkpt>
      <trkpt lat="46.04994" lon="1.25513">
        <ele>364.957642</ele>
        <time>2011-02-06T08:29:57Z</time>
      </trkpt>
      <trkpt lat="46.05" lon="1.25511">
        <ele>368.322266</ele>
        <time>2011-02-06T08:30:01Z</time>
      </trkpt>
      <trkpt lat="46.05007" lon="1.25504">
        <ele>371.206299</ele>
        <time>2011-02-06T08:30:07Z</time>
      </trkpt>
      <trkpt lat="46.05012" lon="1.25503">
        <ele>370.725586</ele>
        <time>2011-02-06T08:30:10Z</time>
      </trkpt>
      <trkpt lat="46.05027" lon="1.25502">
        <ele>369.764282</ele>
        <time>2011-02-06T08:30:17Z</time>
      </trkpt>
      <trkpt lat="46.05043" lon="1.25496">
        <ele>377.454834</ele>
        <time>2011-02-06T08:30:24Z</time>
      </trkpt>
      <trkpt lat="46.05051" lon="1.25485">
        <ele>378.896851</ele>
        <time>2011-02-06T08:30:32Z</time>
      </trkpt>
      <trkpt lat="46.05056" lon="1.2548">
        <ele>381.78064</ele>
        <time>2011-02-06T08:30:38Z</time>
      </trkpt>
      <trkpt lat="46.05061" lon="1.25474">
        <ele>385.145386</ele>
        <time>2011-02-06T08:30:44Z</time>
      </trkpt>
      <trkpt lat="46.05063" lon="1.25467">
        <ele>388.51001</ele>
        <time>2011-02-06T08:30:49Z</time>
      </trkpt>
      <trkpt lat="46.05065" lon="1.2546">
        <ele>392.355347</ele>
        <time>2011-02-06T08:30:53Z</time>
      </trkpt>
      <trkpt lat="46.0507" lon="1.25449">
        <ele>396.200561</ele>
        <time>2011-02-06T08:31:01Z</time>
      </trkpt>
      <trkpt lat="46.05071" lon="1.25447">
        <ele>396.681152</ele>
        <time>2011-02-06T08:31:02Z</time>
      </trkpt>
      <trkpt lat="46.05073" lon="1.25444">
        <ele>397.642456</ele>
        <time>2011-02-06T08:31:04Z</time>
      </trkpt>
      <trkpt lat="46.05078" lon="1.25436">
        <ele>398.123169</ele>
        <time>2011-02-06T08:31:09Z</time>
      </trkpt>
      <trkpt lat="46.05084" lon="1.25421">
        <ele>396.200561</ele>
        <time>2011-02-06T08:31:15Z</time>
      </trkpt>
      <trkpt lat="46.05086" lon="1.25419">
        <ele>395.719849</ele>
        <time>2011-02-06T08:31:16Z</time>
      </trkpt>
      <trkpt lat="46.05093" lon="1.25401">
        <ele>393.797241</ele>
        <time>2011-02-06T08:31:22Z</time>
      </trkpt>
      <trkpt lat="46.05096" lon="1.25388">
        <ele>388.51001</ele>
        <time>2011-02-06T08:31:25Z</time>
      </trkpt>
      <trkpt lat="46.05104" lon="1.25361">
        <ele>380.819458</ele>
        <time>2011-02-06T08:31:32Z</time>
      </trkpt>
      <trkpt lat="46.05114" lon="1.25341">
        <ele>377.454834</ele>
        <time>2011-02-06T08:31:38Z</time>
      </trkpt>
      <trkpt lat="46.05127" lon="1.25314">
        <ele>375.051514</ele>
        <time>2011-02-06T08:31:44Z</time>
      </trkpt>
      <trkpt lat="46.0514" lon="1.25304">
        <ele>373.128906</ele>
        <time>2011-02-06T08:31:47Z</time>
      </trkpt>
      <trkpt lat="46.0517" lon="1.25313">
        <ele>371.206299</ele>
        <time>2011-02-06T08:31:52Z</time>
      </trkpt>
      <trkpt lat="46.05198" lon="1.25324">
        <ele>372.648193</ele>
        <time>2011-02-06T08:31:58Z</time>
      </trkpt>
      <trkpt lat="46.05215" lon="1.25321">
        <ele>373.609497</ele>
        <time>2011-02-06T08:32:02Z</time>
      </trkpt>
      <trkpt lat="46.0522" lon="1.25313">
        <ele>374.570801</ele>
        <time>2011-02-06T08:32:04Z</time>
      </trkpt>
      <trkpt lat="46.05222" lon="1.25311">
        <ele>374.090088</ele>
        <time>2011-02-06T08:32:05Z</time>
      </trkpt>
      <trkpt lat="46.05237" lon="1.25295">
        <ele>374.570801</ele>
        <time>2011-02-06T08:32:11Z</time>
      </trkpt>
      <trkpt lat="46.05255" lon="1.25276">
        <ele>376.012817</ele>
        <time>2011-02-06T08:32:16Z</time>
      </trkpt>
      <trkpt lat="46.05273" lon="1.25267">
        <ele>375.051514</ele>
        <time>2011-02-06T08:32:21Z</time>
      </trkpt>
      <trkpt lat="46.05286" lon="1.25264">
        <ele>374.570801</ele>
        <time>2011-02-06T08:32:24Z</time>
      </trkpt>
      <trkpt lat="46.05309" lon="1.25267">
        <ele>375.532105</ele>
        <time>2011-02-06T08:32:29Z</time>
      </trkpt>
      <trkpt lat="46.05325" lon="1.25274">
        <ele>375.051514</ele>
        <time>2011-02-06T08:32:34Z</time>
      </trkpt>
      <trkpt lat="46.0534" lon="1.25285">
        <ele>378.416138</ele>
        <time>2011-02-06T08:32:39Z</time>
      </trkpt>
      <trkpt lat="46.05363" lon="1.25301">
        <ele>382.261352</ele>
        <time>2011-02-06T08:32:46Z</time>
      </trkpt>
      <trkpt lat="46.0538" lon="1.25314">
        <ele>385.145386</ele>
        <time>2011-02-06T08:32:52Z</time>
      </trkpt>
      <trkpt lat="46.05386" lon="1.25318">
        <ele>384.664795</ele>
        <time>2011-02-06T08:32:54Z</time>
      </trkpt>
      <trkpt lat="46.05404" lon="1.25309">
        <ele>380.338745</ele>
        <time>2011-02-06T08:32:59Z</time>
      </trkpt>
      <trkpt lat="46.05407" lon="1.25305">
        <ele>379.377441</ele>
        <time>2011-02-06T08:33:00Z</time>
      </trkpt>
      <trkpt lat="46.0542" lon="1.25277">
        <ele>375.532105</ele>
        <time>2011-02-06T08:33:07Z</time>
      </trkpt>
      <trkpt lat="46.05428" lon="1.25256">
        <ele>373.609497</ele>
        <time>2011-02-06T08:33:14Z</time>
      </trkpt>
      <trkpt lat="46.05439" lon="1.25219">
        <ele>374.090088</ele>
        <time>2011-02-06T08:33:22Z</time>
      </trkpt>
      <trkpt lat="46.05448" lon="1.25186">
        <ele>375.532105</ele>
        <time>2011-02-06T08:33:30Z</time>
      </trkpt>
      <trkpt lat="46.05454" lon="1.25162">
        <ele>375.532105</ele>
        <time>2011-02-06T08:33:36Z</time>
      </trkpt>
      <trkpt lat="46.05464" lon="1.25124">
        <ele>375.051514</ele>
        <time>2011-02-06T08:33:45Z</time>
      </trkpt>
      <trkpt lat="46.05473" lon="1.25094">
        <ele>378.896851</ele>
        <time>2011-02-06T08:33:53Z</time>
      </trkpt>
      <trkpt lat="46.0548" lon="1.25071">
        <ele>380.819458</ele>
        <time>2011-02-06T08:33:59Z</time>
      </trkpt>
      <trkpt lat="46.05487" lon="1.25047">
        <ele>378.416138</ele>
        <time>2011-02-06T08:34:05Z</time>
      </trkpt>
      <trkpt lat="46.05498" lon="1.25033">
        <ele>376.012817</ele>
        <time>2011-02-06T08:34:09Z</time>
      </trkpt>
      <trkpt lat="46.05517" lon="1.25024">
        <ele>374.090088</ele>
        <time>2011-02-06T08:34:13Z</time>
      </trkpt>
      <trkpt lat="46.05529" lon="1.25019">
        <ele>372.648193</ele>
        <time>2011-02-06T08:34:15Z</time>
      </trkpt>
      <trkpt lat="46.05542" lon="1.25014">
        <ele>372.167481</ele>
        <time>2011-02-06T08:34:17Z</time>
      </trkpt>
      <trkpt lat="46.05557" lon="1.25006">
        <ele>371.206299</ele>
        <time>2011-02-06T08:34:19Z</time>
      </trkpt>
      <trkpt lat="46.05596" lon="1.24995">
        <ele>370.725586</ele>
        <time>2011-02-06T08:34:24Z</time>
      </trkpt>
      <trkpt lat="46.05632" lon="1.24998">
        <ele>369.283691</ele>
        <time>2011-02-06T08:34:29Z</time>
      </trkpt>
      <trkpt lat="46.05652" lon="1.24996">
        <ele>368.802978</ele>
        <time>2011-02-06T08:34:32Z</time>
      </trkpt>
      <trkpt lat="46.05667" lon="1.24983">
        <ele>368.322266</ele>
        <time>2011-02-06T08:34:35Z</time>
      </trkpt>
      <trkpt lat="46.05696" lon="1.2495">
        <ele>368.322266</ele>
        <time>2011-02-06T08:34:42Z</time>
      </trkpt>
      <trkpt lat="46.0572" lon="1.24923">
        <ele>368.322266</ele>
        <time>2011-02-06T08:34:47Z</time>
      </trkpt>
      <trkpt lat="46.05737" lon="1.2492">
        <ele>366.399536</ele>
        <time>2011-02-06T08:34:51Z</time>
      </trkpt>
      <trkpt lat="46.05743" lon="1.24925">
        <ele>364.957642</ele>
        <time>2011-02-06T08:34:52Z</time>
      </trkpt>
      <trkpt lat="46.05781" lon="1.24942">
        <ele>363.996338</ele>
        <time>2011-02-06T08:34:58Z</time>
      </trkpt>
      <trkpt lat="46.05788" lon="1.24945">
        <ele>363.996338</ele>
        <time>2011-02-06T08:34:59Z</time>
      </trkpt>
      <trkpt lat="46.05836" lon="1.24974">
        <ele>360.631714</ele>
        <time>2011-02-06T08:35:05Z</time>
      </trkpt>
      <trkpt lat="46.05866" lon="1.25006">
        <ele>358.228394</ele>
        <time>2011-02-06T08:35:09Z</time>
      </trkpt>
      <trkpt lat="46.05891" lon="1.25039">
        <ele>356.786377</ele>
        <time>2011-02-06T08:35:14Z</time>
      </trkpt>
      <trkpt lat="46.05895" lon="1.25044">
        <ele>356.786377</ele>
        <time>2011-02-06T08:35:15Z</time>
      </trkpt>
      <trkpt lat="46.05904" lon="1.25054">
        <ele>355.825195</ele>
        <time>2011-02-06T08:35:17Z</time>
      </trkpt>
      <trkpt lat="46.05924" lon="1.25066">
        <ele>355.825195</ele>
        <time>2011-02-06T08:35:21Z</time>
      </trkpt>
      <trkpt lat="46.05975" lon="1.25078">
        <ele>354.383179</ele>
        <time>2011-02-06T08:35:30Z</time>
      </trkpt>
      <trkpt lat="46.05986" lon="1.25079">
        <ele>354.383179</ele>
        <time>2011-02-06T08:35:32Z</time>
      </trkpt>
      <trkpt lat="46.06007" lon="1.25072">
        <ele>353.902588</ele>
        <time>2011-02-06T08:35:36Z</time>
      </trkpt>
      <trkpt lat="46.0605" lon="1.25038">
        <ele>351.018433</ele>
        <time>2011-02-06T08:35:44Z</time>
      </trkpt>
      <trkpt lat="46.06097" lon="1.25001">
        <ele>350.537842</ele>
        <time>2011-02-06T08:35:53Z</time>
      </trkpt>
      <trkpt lat="46.06153" lon="1.2496">
        <ele>350.057251</ele>
        <time>2011-02-06T08:36:03Z</time>
      </trkpt>
      <trkpt lat="46.06184" lon="1.24933">
        <ele>349.095825</ele>
        <time>2011-02-06T08:36:09Z</time>
      </trkpt>
      <trkpt lat="46.06202" lon="1.24918">
        <ele>348.134644</ele>
        <time>2011-02-06T08:36:13Z</time>
      </trkpt>
      <trkpt lat="46.06209" lon="1.24903">
        <ele>348.615234</ele>
        <time>2011-02-06T08:36:17Z</time>
      </trkpt>
      <trkpt lat="46.0621" lon="1.24891">
        <ele>348.615234</ele>
        <time>2011-02-06T08:36:19Z</time>
      </trkpt>
      <trkpt lat="46.06211" lon="1.24859">
        <ele>347.653931</ele>
        <time>2011-02-06T08:36:24Z</time>
      </trkpt>
      <trkpt lat="46.06211" lon="1.24848">
        <ele>347.653931</ele>
        <time>2011-02-06T08:36:26Z</time>
      </trkpt>
      <trkpt lat="46.06216" lon="1.2483">
        <ele>348.615234</ele>
        <time>2011-02-06T08:36:31Z</time>
      </trkpt>
      <trkpt lat="46.06218" lon="1.24831">
        <ele>349.095825</ele>
        <time>2011-02-06T08:36:32Z</time>
      </trkpt>
      <trkpt lat="46.06236" lon="1.24843">
        <ele>351.979858</ele>
        <time>2011-02-06T08:36:40Z</time>
      </trkpt>
      <trkpt lat="46.06253" lon="1.24859">
        <ele>351.018433</ele>
        <time>2011-02-06T08:36:47Z</time>
      </trkpt>
      <trkpt lat="46.06265" lon="1.24878">
        <ele>349.576538</ele>
        <time>2011-02-06T08:36:52Z</time>
      </trkpt>
      <trkpt lat="46.06281" lon="1.24912">
        <ele>347.653931</ele>
        <time>2011-02-06T08:37:00Z</time>
      </trkpt>
      <trkpt lat="46.06294" lon="1.2494">
        <ele>349.576538</ele>
        <time>2011-02-06T08:37:07Z</time>
      </trkpt>
      <trkpt lat="46.06315" lon="1.24961">
        <ele>350.537842</ele>
        <time>2011-02-06T08:37:15Z</time>
      </trkpt>
      <trkpt lat="46.06338" lon="1.24981">
        <ele>353.421875</ele>
        <time>2011-02-06T08:37:23Z</time>
      </trkpt>
      <trkpt lat="46.06363" lon="1.25003">
        <ele>355.825195</ele>
        <time>2011-02-06T08:37:31Z</time>
      </trkpt>
      <trkpt lat="46.0638" lon="1.25014">
        <ele>355.344482</ele>
        <time>2011-02-06T08:37:35Z</time>
      </trkpt>
      <trkpt lat="46.06415" lon="1.25017">
        <ele>353.421875</ele>
        <time>2011-02-06T08:37:43Z</time>
      </trkpt>
      <trkpt lat="46.06442" lon="1.25015">
        <ele>351.018433</ele>
        <time>2011-02-06T08:37:50Z</time>
      </trkpt>
      <trkpt lat="46.06461" lon="1.25013">
        <ele>350.057251</ele>
        <time>2011-02-06T08:37:56Z</time>
      </trkpt>
      <trkpt lat="46.06479" lon="1.25013">
        <ele>348.615234</ele>
        <time>2011-02-06T08:38:01Z</time>
      </trkpt>
      <trkpt lat="46.06493" lon="1.25012">
        <ele>347.653931</ele>
        <time>2011-02-06T08:38:06Z</time>
      </trkpt>
      <trkpt lat="46.06509" lon="1.25013">
        <ele>349.095825</ele>
        <time>2011-02-06T08:38:12Z</time>
      </trkpt>
      <trkpt lat="46.06518" lon="1.25022">
        <ele>350.057251</ele>
        <time>2011-02-06T08:38:17Z</time>
      </trkpt>
      <trkpt lat="46.06521" lon="1.25042">
        <ele>351.018433</ele>
        <time>2011-02-06T08:38:22Z</time>
      </trkpt>
      <trkpt lat="46.06521" lon="1.25046">
        <ele>350.537842</ele>
        <time>2011-02-06T08:38:23Z</time>
      </trkpt>
      <trkpt lat="46.06513" lon="1.25068">
        <ele>353.902588</ele>
        <time>2011-02-06T08:38:28Z</time>
      </trkpt>
      <trkpt lat="46.06508" lon="1.25096">
        <ele>355.344482</ele>
        <time>2011-02-06T08:38:34Z</time>
      </trkpt>
      <trkpt lat="46.06509" lon="1.25118">
        <ele>357.747803</ele>
        <time>2011-02-06T08:38:38Z</time>
      </trkpt>
      <trkpt lat="46.06514" lon="1.25153">
        <ele>361.112427</ele>
        <time>2011-02-06T08:38:44Z</time>
      </trkpt>
      <trkpt lat="46.06531" lon="1.2519">
        <ele>356.786377</ele>
        <time>2011-02-06T08:38:51Z</time>
      </trkpt>
      <trkpt lat="46.0655" lon="1.25218">
        <ele>352.941162</ele>
        <time>2011-02-06T08:38:57Z</time>
      </trkpt>
      <trkpt lat="46.06566" lon="1.25243">
        <ele>351.499145</ele>
        <time>2011-02-06T08:39:03Z</time>
      </trkpt>
      <trkpt lat="46.06579" lon="1.25257">
        <ele>351.979858</ele>
        <time>2011-02-06T08:39:08Z</time>
      </trkpt>
      <trkpt lat="46.06582" lon="1.25259">
        <ele>352.460571</ele>
        <time>2011-02-06T08:39:09Z</time>
      </trkpt>
      <trkpt lat="46.066" lon="1.25274">
        <ele>352.460571</ele>
        <time>2011-02-06T08:39:15Z</time>
      </trkpt>
      <trkpt lat="46.0662" lon="1.25295">
        <ele>352.941162</ele>
        <time>2011-02-06T08:39:22Z</time>
      </trkpt>
      <trkpt lat="46.06636" lon="1.25323">
        <ele>348.615234</ele>
        <time>2011-02-06T08:39:28Z</time>
      </trkpt>
      <trkpt lat="46.06642" lon="1.25348">
        <ele>347.653931</ele>
        <time>2011-02-06T08:39:33Z</time>
      </trkpt>
      <trkpt lat="46.06648" lon="1.25377">
        <ele>349.576538</ele>
        <time>2011-02-06T08:39:38Z</time>
      </trkpt>
      <trkpt lat="46.06651" lon="1.25382">
        <ele>349.576538</ele>
        <time>2011-02-06T08:39:39Z</time>
      </trkpt>
      <trkpt lat="46.0666" lon="1.25398">
        <ele>347.173218</ele>
        <time>2011-02-06T08:39:42Z</time>
      </trkpt>
      <trkpt lat="46.06669" lon="1.25411">
        <ele>346.692627</ele>
        <time>2011-02-06T08:39:45Z</time>
      </trkpt>
      <trkpt lat="46.0669" lon="1.25427">
        <ele>346.692627</ele>
        <time>2011-02-06T08:39:51Z</time>
      </trkpt>
      <trkpt lat="46.06709" lon="1.25436">
        <ele>347.173218</ele>
        <time>2011-02-06T08:39:56Z</time>
      </trkpt>
      <trkpt lat="46.06726" lon="1.25451">
        <ele>346.212036</ele>
        <time>2011-02-06T08:40:00Z</time>
      </trkpt>
      <trkpt lat="46.06736" lon="1.25455">
        <ele>345.731323</ele>
        <time>2011-02-06T08:40:02Z</time>
      </trkpt>
      <trkpt lat="46.06753" lon="1.25459">
        <ele>345.25061</ele>
        <time>2011-02-06T08:40:06Z</time>
      </trkpt>
      <trkpt lat="46.06765" lon="1.25458">
        <ele>344.289429</ele>
        <time>2011-02-06T08:40:09Z</time>
      </trkpt>
      <trkpt lat="46.06783" lon="1.2544">
        <ele>342.366699</ele>
        <time>2011-02-06T08:40:15Z</time>
      </trkpt>
      <trkpt lat="46.06788" lon="1.25424">
        <ele>341.885986</ele>
        <time>2011-02-06T08:40:18Z</time>
      </trkpt>
      <trkpt lat="46.06793" lon="1.25382">
        <ele>339.963379</ele>
        <time>2011-02-06T08:40:26Z</time>
      </trkpt>
      <trkpt lat="46.06797" lon="1.25345">
        <ele>339.482666</ele>
        <time>2011-02-06T08:40:32Z</time>
      </trkpt>
      <trkpt lat="46.06801" lon="1.25321">
        <ele>339.002075</ele>
        <time>2011-02-06T08:40:35Z</time>
      </trkpt>
      <trkpt lat="46.06811" lon="1.2528">
        <ele>338.040772</ele>
        <time>2011-02-06T08:40:40Z</time>
      </trkpt>
      <trkpt lat="46.06816" lon="1.25243">
        <ele>338.521484</ele>
        <time>2011-02-06T08:40:44Z</time>
      </trkpt>
      <trkpt lat="46.0682" lon="1.25226">
        <ele>339.002075</ele>
        <time>2011-02-06T08:40:47Z</time>
      </trkpt>
      <trkpt lat="46.06824" lon="1.25213">
        <ele>338.521484</ele>
        <time>2011-02-06T08:40:50Z</time>
      </trkpt>
      <trkpt lat="46.06828" lon="1.25204">
        <ele>338.040772</ele>
        <time>2011-02-06T08:40:52Z</time>
      </trkpt>
      <trkpt lat="46.06842" lon="1.25179">
        <ele>337.079468</ele>
        <time>2011-02-06T08:40:57Z</time>
      </trkpt>
      <trkpt lat="46.06862" lon="1.25154">
        <ele>338.040772</ele>
        <time>2011-02-06T08:41:03Z</time>
      </trkpt>
      <trkpt lat="46.06871" lon="1.25142">
        <ele>338.040772</ele>
        <time>2011-02-06T08:41:06Z</time>
      </trkpt>
      <trkpt lat="46.06883" lon="1.2513">
        <ele>332.75354</ele>
        <time>2011-02-06T08:41:10Z</time>
      </trkpt>
      <trkpt lat="46.06906" lon="1.25126">
        <ele>329.388916</ele>
        <time>2011-02-06T08:41:16Z</time>
      </trkpt>
      <trkpt lat="46.06924" lon="1.25123">
        <ele>326.02417</ele>
        <time>2011-02-06T08:41:21Z</time>
      </trkpt>
      <trkpt lat="46.06938" lon="1.25121">
        <ele>324.101562</ele>
        <time>2011-02-06T08:41:25Z</time>
      </trkpt>
      <trkpt lat="46.06952" lon="1.25122">
        <ele>326.504883</ele>
        <time>2011-02-06T08:41:29Z</time>
      </trkpt>
      <trkpt lat="46.06966" lon="1.2513">
        <ele>327.466186</ele>
        <time>2011-02-06T08:41:33Z</time>
      </trkpt>
      <trkpt lat="46.06982" lon="1.2514">
        <ele>329.388916</ele>
        <time>2011-02-06T08:41:38Z</time>
      </trkpt>
      <trkpt lat="46.06997" lon="1.2515">
        <ele>333.234131</ele>
        <time>2011-02-06T08:41:43Z</time>
      </trkpt>
      <trkpt lat="46.07014" lon="1.25155">
        <ele>337.560059</ele>
        <time>2011-02-06T08:41:47Z</time>
      </trkpt>
      <trkpt lat="46.07027" lon="1.25158">
        <ele>342.84729</ele>
        <time>2011-02-06T08:41:50Z</time>
      </trkpt>
      <trkpt lat="46.07049" lon="1.25151">
        <ele>344.770019</ele>
        <time>2011-02-06T08:41:55Z</time>
      </trkpt>
      <trkpt lat="46.07054" lon="1.25149">
        <ele>344.289429</ele>
        <time>2011-02-06T08:41:56Z</time>
      </trkpt>
      <trkpt lat="46.0707" lon="1.25134">
        <ele>342.366699</ele>
        <time>2011-02-06T08:42:01Z</time>
      </trkpt>
      <trkpt lat="46.07075" lon="1.25126">
        <ele>341.405273</ele>
        <time>2011-02-06T08:42:03Z</time>
      </trkpt>
      <trkpt lat="46.07089" lon="1.25104">
        <ele>339.963379</ele>
        <time>2011-02-06T08:42:09Z</time>
      </trkpt>
      <trkpt lat="46.07096" lon="1.25089">
        <ele>340.924683</ele>
        <time>2011-02-06T08:42:13Z</time>
      </trkpt>
      <trkpt lat="46.07106" lon="1.25067">
        <ele>342.366699</ele>
        <time>2011-02-06T08:42:18Z</time>
      </trkpt>
      <trkpt lat="46.07115" lon="1.25047">
        <ele>349.576538</ele>
        <time>2011-02-06T08:42:24Z</time>
      </trkpt>
      <trkpt lat="46.07118" lon="1.25039">
        <ele>352.941162</ele>
        <time>2011-02-06T08:42:27Z</time>
      </trkpt>
      <trkpt lat="46.07128" lon="1.25018">
        <ele>353.902588</ele>
        <time>2011-02-06T08:42:34Z</time>
      </trkpt>
      <trkpt lat="46.07136" lon="1.25">
        <ele>348.615234</ele>
        <time>2011-02-06T08:42:40Z</time>
      </trkpt>
      <trkpt lat="46.07141" lon="1.24991">
        <ele>347.173218</ele>
        <time>2011-02-06T08:42:43Z</time>
      </trkpt>
      <trkpt lat="46.0715" lon="1.24972">
        <ele>344.289429</ele>
        <time>2011-02-06T08:42:49Z</time>
      </trkpt>
      <trkpt lat="46.07153" lon="1.24965">
        <ele>343.327881</ele>
        <time>2011-02-06T08:42:51Z</time>
      </trkpt>
      <trkpt lat="46.0716" lon="1.24944">
        <ele>343.327881</ele>
        <time>2011-02-06T08:42:56Z</time>
      </trkpt>
      <trkpt lat="46.07163" lon="1.24912">
        <ele>343.327881</ele>
        <time>2011-02-06T08:43:00Z</time>
      </trkpt>
      <trkpt lat="46.07164" lon="1.24873">
        <ele>340.924683</ele>
        <time>2011-02-06T08:43:05Z</time>
      </trkpt>
      <trkpt lat="46.07163" lon="1.24852">
        <ele>339.963379</ele>
        <time>2011-02-06T08:43:08Z</time>
      </trkpt>
      <trkpt lat="46.07159" lon="1.24831">
        <ele>338.521484</ele>
        <time>2011-02-06T08:43:12Z</time>
      </trkpt>
      <trkpt lat="46.07151" lon="1.24819">
        <ele>337.079468</ele>
        <time>2011-02-06T08:43:15Z</time>
      </trkpt>
      <trkpt lat="46.0714" lon="1.24801">
        <ele>338.521484</ele>
        <time>2011-02-06T08:43:21Z</time>
      </trkpt>
      <trkpt lat="46.0713" lon="1.24778">
        <ele>339.002075</ele>
        <time>2011-02-06T08:43:27Z</time>
      </trkpt>
      <trkpt lat="46.07124" lon="1.24757">
        <ele>339.482666</ele>
        <time>2011-02-06T08:43:32Z</time>
      </trkpt>
      <trkpt lat="46.07117" lon="1.2474">
        <ele>337.079468</ele>
        <time>2011-02-06T08:43:36Z</time>
      </trkpt>
      <trkpt lat="46.0711" lon="1.24722">
        <ele>337.079468</ele>
        <time>2011-02-06T08:43:41Z</time>
      </trkpt>
      <trkpt lat="46.07105" lon="1.24704">
        <ele>337.560059</ele>
        <time>2011-02-06T08:43:46Z</time>
      </trkpt>
      <trkpt lat="46.07101" lon="1.24681">
        <ele>338.040772</ele>
        <time>2011-02-06T08:43:51Z</time>
      </trkpt>
      <trkpt lat="46.07099" lon="1.2466">
        <ele>337.560059</ele>
        <time>2011-02-06T08:43:55Z</time>
      </trkpt>
      <trkpt lat="46.07094" lon="1.24614">
        <ele>337.079468</ele>
        <time>2011-02-06T08:44:03Z</time>
      </trkpt>
      <trkpt lat="46.07093" lon="1.24591">
        <ele>335.637329</ele>
        <time>2011-02-06T08:44:07Z</time>
      </trkpt>
      <trkpt lat="46.07086" lon="1.2457">
        <ele>337.560059</ele>
        <time>2011-02-06T08:44:11Z</time>
      </trkpt>
      <trkpt lat="46.07072" lon="1.24563">
        <ele>339.002075</ele>
        <time>2011-02-06T08:44:15Z</time>
      </trkpt>
      <trkpt lat="46.07068" lon="1.24557">
        <ele>339.963379</ele>
        <time>2011-02-06T08:44:17Z</time>
      </trkpt>
      <trkpt lat="46.07054" lon="1.24527">
        <ele>340.924683</ele>
        <time>2011-02-06T08:44:25Z</time>
      </trkpt>
      <trkpt lat="46.07049" lon="1.24501">
        <ele>340.444092</ele>
        <time>2011-02-06T08:44:31Z</time>
      </trkpt>
      <trkpt lat="46.07059" lon="1.24473">
        <ele>337.079468</ele>
        <time>2011-02-06T08:44:37Z</time>
      </trkpt>
      <trkpt lat="46.07069" lon="1.24444">
        <ele>335.637329</ele>
        <time>2011-02-06T08:44:43Z</time>
      </trkpt>
      <trkpt lat="46.07077" lon="1.24412">
        <ele>335.156738</ele>
        <time>2011-02-06T08:44:50Z</time>
      </trkpt>
      <trkpt lat="46.07087" lon="1.24382">
        <ele>335.637329</ele>
        <time>2011-02-06T08:44:57Z</time>
      </trkpt>
      <trkpt lat="46.071" lon="1.24361">
        <ele>336.118164</ele>
        <time>2011-02-06T08:45:03Z</time>
      </trkpt>
      <trkpt lat="46.07121" lon="1.24351">
        <ele>336.118164</ele>
        <time>2011-02-06T08:45:10Z</time>
      </trkpt>
      <trkpt lat="46.07144" lon="1.24341">
        <ele>335.156738</ele>
        <time>2011-02-06T08:45:18Z</time>
      </trkpt>
      <trkpt lat="46.07165" lon="1.24342">
        <ele>334.676148</ele>
        <time>2011-02-06T08:45:25Z</time>
      </trkpt>
      <trkpt lat="46.07181" lon="1.24345">
        <ele>336.118164</ele>
        <time>2011-02-06T08:45:31Z</time>
      </trkpt>
      <trkpt lat="46.07188" lon="1.24336">
        <ele>335.156738</ele>
        <time>2011-02-06T08:45:35Z</time>
      </trkpt>
      <trkpt lat="46.07197" lon="1.24323">
        <ele>334.676148</ele>
        <time>2011-02-06T08:45:39Z</time>
      </trkpt>
      <trkpt lat="46.07206" lon="1.24311">
        <ele>334.676148</ele>
        <time>2011-02-06T08:45:42Z</time>
      </trkpt>
      <trkpt lat="46.07216" lon="1.24289">
        <ele>335.156738</ele>
        <time>2011-02-06T08:45:46Z</time>
      </trkpt>
      <trkpt lat="46.07246" lon="1.24263">
        <ele>332.272827</ele>
        <time>2011-02-06T08:45:52Z</time>
      </trkpt>
      <trkpt lat="46.07251" lon="1.24258">
        <ele>331.311523</ele>
        <time>2011-02-06T08:45:53Z</time>
      </trkpt>
      <trkpt lat="46.0727" lon="1.24228">
        <ele>329.388916</ele>
        <time>2011-02-06T08:45:57Z</time>
      </trkpt>
      <trkpt lat="46.07291" lon="1.24177">
        <ele>328.427612</ele>
        <time>2011-02-06T08:46:03Z</time>
      </trkpt>
      <trkpt lat="46.07307" lon="1.2414">
        <ele>329.388916</ele>
        <time>2011-02-06T08:46:09Z</time>
      </trkpt>
      <trkpt lat="46.0731" lon="1.24129">
        <ele>330.35022</ele>
        <time>2011-02-06T08:46:11Z</time>
      </trkpt>
      <trkpt lat="46.07313" lon="1.24103">
        <ele>331.311523</ele>
        <time>2011-02-06T08:46:16Z</time>
      </trkpt>
      <trkpt lat="46.07312" lon="1.24077">
        <ele>332.75354</ele>
        <time>2011-02-06T08:46:21Z</time>
      </trkpt>
      <trkpt lat="46.07311" lon="1.24067">
        <ele>333.234131</ele>
        <time>2011-02-06T08:46:23Z</time>
      </trkpt>
      <trkpt lat="46.07308" lon="1.24047">
        <ele>334.195435</ele>
        <time>2011-02-06T08:46:27Z</time>
      </trkpt>
      <trkpt lat="46.07308" lon="1.24043">
        <ele>334.676148</ele>
        <time>2011-02-06T08:46:28Z</time>
      </trkpt>
      <trkpt lat="46.07316" lon="1.2404">
        <ele>335.637329</ele>
        <time>2011-02-06T08:46:32Z</time>
      </trkpt>
      <trkpt lat="46.07324" lon="1.24044">
        <ele>335.156738</ele>
        <time>2011-02-06T08:46:35Z</time>
      </trkpt>
      <trkpt lat="46.0734" lon="1.24038">
        <ele>334.676148</ele>
        <time>2011-02-06T08:46:39Z</time>
      </trkpt>
      <trkpt lat="46.07359" lon="1.24012">
        <ele>334.195435</ele>
        <time>2011-02-06T08:46:43Z</time>
      </trkpt>
      <trkpt lat="46.07402" lon="1.23948">
        <ele>332.272827</ele>
        <time>2011-02-06T08:46:52Z</time>
      </trkpt>
      <trkpt lat="46.0744" lon="1.23898">
        <ele>330.35022</ele>
        <time>2011-02-06T08:47:00Z</time>
      </trkpt>
      <trkpt lat="46.07471" lon="1.23845">
        <ele>329.388916</ele>
        <time>2011-02-06T08:47:08Z</time>
      </trkpt>
      <trkpt lat="46.07478" lon="1.23833">
        <ele>329.869507</ele>
        <time>2011-02-06T08:47:10Z</time>
      </trkpt>
      <trkpt lat="46.07493" lon="1.23831">
        <ele>329.869507</ele>
        <time>2011-02-06T08:47:14Z</time>
      </trkpt>
      <trkpt lat="46.07502" lon="1.23852">
        <ele>330.35022</ele>
        <time>2011-02-06T08:47:18Z</time>
      </trkpt>
      <trkpt lat="46.0751" lon="1.23858">
        <ele>330.830933</ele>
        <time>2011-02-06T08:47:20Z</time>
      </trkpt>
      <trkpt lat="46.07558" lon="1.23868">
        <ele>330.35022</ele>
        <time>2011-02-06T08:47:31Z</time>
      </trkpt>
      <trkpt lat="46.07579" lon="1.23873">
        <ele>330.35022</ele>
        <time>2011-02-06T08:47:36Z</time>
      </trkpt>
      <trkpt lat="46.07599" lon="1.23865">
        <ele>330.35022</ele>
        <time>2011-02-06T08:47:41Z</time>
      </trkpt>
      <trkpt lat="46.07625" lon="1.23848">
        <ele>329.869507</ele>
        <time>2011-02-06T08:47:49Z</time>
      </trkpt>
      <trkpt lat="46.07654" lon="1.23831">
        <ele>328.427612</ele>
        <time>2011-02-06T08:47:57Z</time>
      </trkpt>
      <trkpt lat="46.0769" lon="1.2381">
        <ele>327.466186</ele>
        <time>2011-02-06T08:48:05Z</time>
      </trkpt>
      <trkpt lat="46.07705" lon="1.23803">
        <ele>327.466186</ele>
        <time>2011-02-06T08:48:08Z</time>
      </trkpt>
      <trkpt lat="46.07742" lon="1.23778">
        <ele>326.02417</ele>
        <time>2011-02-06T08:48:15Z</time>
      </trkpt>
      <trkpt lat="46.07748" lon="1.23775">
        <ele>326.02417</ele>
        <time>2011-02-06T08:48:16Z</time>
      </trkpt>
      <trkpt lat="46.07769" lon="1.2374">
        <ele>326.985596</ele>
        <time>2011-02-06T08:48:21Z</time>
      </trkpt>
      <trkpt lat="46.0777" lon="1.2373">
        <ele>326.985596</ele>
        <time>2011-02-06T08:48:22Z</time>
      </trkpt>
      <trkpt lat="46.0778" lon="1.23679">
        <ele>326.02417</ele>
        <time>2011-02-06T08:48:28Z</time>
      </trkpt>
      <trkpt lat="46.07792" lon="1.23657">
        <ele>326.02417</ele>
        <time>2011-02-06T08:48:32Z</time>
      </trkpt>
      <trkpt lat="46.07802" lon="1.23648">
        <ele>325.543579</ele>
        <time>2011-02-06T08:48:35Z</time>
      </trkpt>
      <trkpt lat="46.07805" lon="1.23644">
        <ele>325.543579</ele>
        <time>2011-02-06T08:48:36Z</time>
      </trkpt>
      <trkpt lat="46.07812" lon="1.23623">
        <ele>327.946777</ele>
        <time>2011-02-06T08:48:43Z</time>
      </trkpt>
      <trkpt lat="46.07815" lon="1.23604">
        <ele>329.869507</ele>
        <time>2011-02-06T08:48:48Z</time>
      </trkpt>
      <trkpt lat="46.07814" lon="1.23572">
        <ele>329.869507</ele>
        <time>2011-02-06T08:48:54Z</time>
      </trkpt>
      <trkpt lat="46.07813" lon="1.23547">
        <ele>329.388916</ele>
        <time>2011-02-06T08:48:58Z</time>
      </trkpt>
      <trkpt lat="46.07815" lon="1.23535">
        <ele>329.869507</ele>
        <time>2011-02-06T08:49:00Z</time>
      </trkpt>
      <trkpt lat="46.07818" lon="1.23518">
        <ele>330.830933</ele>
        <time>2011-02-06T08:49:03Z</time>
      </trkpt>
      <trkpt lat="46.0782" lon="1.23503">
        <ele>331.792114</ele>
        <time>2011-02-06T08:49:06Z</time>
      </trkpt>
      <trkpt lat="46.07826" lon="1.23478">
        <ele>332.272827</ele>
        <time>2011-02-06T08:49:11Z</time>
      </trkpt>
      <trkpt lat="46.07827" lon="1.23474">
        <ele>332.272827</ele>
        <time>2011-02-06T08:49:12Z</time>
      </trkpt>
      <trkpt lat="46.07841" lon="1.23437">
        <ele>334.195435</ele>
        <time>2011-02-06T08:49:19Z</time>
      </trkpt>
      <trkpt lat="46.07845" lon="1.23426">
        <ele>336.598877</ele>
        <time>2011-02-06T08:49:21Z</time>
      </trkpt>
      <trkpt lat="46.0785" lon="1.23407">
        <ele>339.002075</ele>
        <time>2011-02-06T08:49:24Z</time>
      </trkpt>
      <trkpt lat="46.07853" lon="1.23391">
        <ele>341.405273</ele>
        <time>2011-02-06T08:49:26Z</time>
      </trkpt>
      <trkpt lat="46.07854" lon="1.23362">
        <ele>345.25061</ele>
        <time>2011-02-06T08:49:30Z</time>
      </trkpt>
      <trkpt lat="46.07857" lon="1.23349">
        <ele>346.212036</ele>
        <time>2011-02-06T08:49:32Z</time>
      </trkpt>
      <trkpt lat="46.07863" lon="1.23337">
        <ele>346.692627</ele>
        <time>2011-02-06T08:49:34Z</time>
      </trkpt>
      <trkpt lat="46.07876" lon="1.23318">
        <ele>345.25061</ele>
        <time>2011-02-06T08:49:38Z</time>
      </trkpt>
      <trkpt lat="46.07898" lon="1.23288">
        <ele>349.576538</ele>
        <time>2011-02-06T08:49:45Z</time>
      </trkpt>
      <trkpt lat="46.07908" lon="1.23267">
        <ele>353.902588</ele>
        <time>2011-02-06T08:49:49Z</time>
      </trkpt>
      <trkpt lat="46.07925" lon="1.23222">
        <ele>340.444092</ele>
        <time>2011-02-06T08:49:56Z</time>
      </trkpt>
      <trkpt lat="46.07933" lon="1.23213">
        <ele>338.521484</ele>
        <time>2011-02-06T08:49:58Z</time>
      </trkpt>
      <trkpt lat="46.07946" lon="1.23192">
        <ele>337.079468</ele>
        <time>2011-02-06T08:50:02Z</time>
      </trkpt>
      <trkpt lat="46.07954" lon="1.23168">
        <ele>334.195435</ele>
        <time>2011-02-06T08:50:06Z</time>
      </trkpt>
      <trkpt lat="46.07956" lon="1.23133">
        <ele>332.75354</ele>
        <time>2011-02-06T08:50:13Z</time>
      </trkpt>
      <trkpt lat="46.0797" lon="1.23107">
        <ele>329.869507</ele>
        <time>2011-02-06T08:50:20Z</time>
      </trkpt>
      <trkpt lat="46.07983" lon="1.23086">
        <ele>328.427612</ele>
        <time>2011-02-06T08:50:25Z</time>
      </trkpt>
      <trkpt lat="46.07997" lon="1.23056">
        <ele>328.427612</ele>
        <time>2011-02-06T08:50:31Z</time>
      </trkpt>
      <trkpt lat="46.08001" lon="1.23046">
        <ele>328.908325</ele>
        <time>2011-02-06T08:50:33Z</time>
      </trkpt>
      <trkpt lat="46.08019" lon="1.23006">
        <ele>330.35022</ele>
        <time>2011-02-06T08:50:42Z</time>
      </trkpt>
      <trkpt lat="46.08032" lon="1.22976">
        <ele>331.792114</ele>
        <time>2011-02-06T08:50:49Z</time>
      </trkpt>
      <trkpt lat="46.08042" lon="1.22955">
        <ele>332.75354</ele>
        <time>2011-02-06T08:50:54Z</time>
      </trkpt>
      <trkpt lat="46.08047" lon="1.22938">
        <ele>333.714722</ele>
        <time>2011-02-06T08:50:59Z</time>
      </trkpt>
      <trkpt lat="46.08051" lon="1.22917">
        <ele>332.75354</ele>
        <time>2011-02-06T08:51:04Z</time>
      </trkpt>
      <trkpt lat="46.08049" lon="1.22903">
        <ele>334.195435</ele>
        <time>2011-02-06T08:51:07Z</time>
      </trkpt>
      <trkpt lat="46.08037" lon="1.22895">
        <ele>333.714722</ele>
        <time>2011-02-06T08:51:12Z</time>
      </trkpt>
      <trkpt lat="46.08029" lon="1.22893">
        <ele>334.676148</ele>
        <time>2011-02-06T08:51:15Z</time>
      </trkpt>
      <trkpt lat="46.0802" lon="1.22879">
        <ele>337.079468</ele>
        <time>2011-02-06T08:51:20Z</time>
      </trkpt>
      <trkpt lat="46.08011" lon="1.22866">
        <ele>340.924683</ele>
        <time>2011-02-06T08:51:25Z</time>
      </trkpt>
      <trkpt lat="46.08009" lon="1.22864">
        <ele>341.405273</ele>
        <time>2011-02-06T08:51:26Z</time>
      </trkpt>
      <trkpt lat="46.07993" lon="1.22848">
        <ele>343.808594</ele>
        <time>2011-02-06T08:51:33Z</time>
      </trkpt>
      <trkpt lat="46.0798" lon="1.22836">
        <ele>345.25061</ele>
        <time>2011-02-06T08:51:38Z</time>
      </trkpt>
      <trkpt lat="46.07961" lon="1.22827">
        <ele>345.731323</ele>
        <time>2011-02-06T08:51:44Z</time>
      </trkpt>
      <trkpt lat="46.07959" lon="1.22825">
        <ele>346.212036</ele>
        <time>2011-02-06T08:51:45Z</time>
      </trkpt>
      <trkpt lat="46.0796" lon="1.2281">
        <ele>346.692627</ele>
        <time>2011-02-06T08:51:49Z</time>
      </trkpt>
      <trkpt lat="46.07969" lon="1.22804">
        <ele>346.692627</ele>
        <time>2011-02-06T08:51:52Z</time>
      </trkpt>
      <trkpt lat="46.07993" lon="1.22797">
        <ele>345.731323</ele>
        <time>2011-02-06T08:51:58Z</time>
      </trkpt>
      <trkpt lat="46.08012" lon="1.22793">
        <ele>345.25061</ele>
        <time>2011-02-06T08:52:02Z</time>
      </trkpt>
      <trkpt lat="46.08017" lon="1.22791">
        <ele>345.25061</ele>
        <time>2011-02-06T08:52:03Z</time>
      </trkpt>
      <trkpt lat="46.08029" lon="1.22778">
        <ele>347.653931</ele>
        <time>2011-02-06T08:52:07Z</time>
      </trkpt>
      <trkpt lat="46.08026" lon="1.22762">
        <ele>347.653931</ele>
        <time>2011-02-06T08:52:10Z</time>
      </trkpt>
      <trkpt lat="46.08025" lon="1.22757">
        <ele>347.173218</ele>
        <time>2011-02-06T08:52:11Z</time>
      </trkpt>
      <trkpt lat="46.08013" lon="1.22704">
        <ele>342.366699</ele>
        <time>2011-02-06T08:52:17Z</time>
      </trkpt>
      <trkpt lat="46.0802" lon="1.22668">
        <ele>335.637329</ele>
        <time>2011-02-06T08:52:21Z</time>
      </trkpt>
      <trkpt lat="46.08028" lon="1.22662">
        <ele>334.195435</ele>
        <time>2011-02-06T08:52:22Z</time>
      </trkpt>
      <trkpt lat="46.0805" lon="1.22637">
        <ele>334.676148</ele>
        <time>2011-02-06T08:52:26Z</time>
      </trkpt>
      <trkpt lat="46.08049" lon="1.22609">
        <ele>334.195435</ele>
        <time>2011-02-06T08:52:29Z</time>
      </trkpt>
      <trkpt lat="46.08043" lon="1.22583">
        <ele>331.792114</ele>
        <time>2011-02-06T08:52:32Z</time>
      </trkpt>
      <trkpt lat="46.08033" lon="1.22523">
        <ele>325.062988</ele>
        <time>2011-02-06T08:52:39Z</time>
      </trkpt>
      <trkpt lat="46.08034" lon="1.22503">
        <ele>321.698364</ele>
        <time>2011-02-06T08:52:42Z</time>
      </trkpt>
      <trkpt lat="46.08043" lon="1.22461">
        <ele>318.814331</ele>
        <time>2011-02-06T08:52:49Z</time>
      </trkpt>
      <trkpt lat="46.08052" lon="1.22429">
        <ele>318.333618</ele>
        <time>2011-02-06T08:52:56Z</time>
      </trkpt>
      <trkpt lat="46.08058" lon="1.22407">
        <ele>317.853027</ele>
        <time>2011-02-06T08:53:02Z</time>
      </trkpt>
      <trkpt lat="46.08067" lon="1.22374">
        <ele>318.814331</ele>
        <time>2011-02-06T08:53:10Z</time>
      </trkpt>
      <trkpt lat="46.08075" lon="1.22339">
        <ele>318.814331</ele>
        <time>2011-02-06T08:53:18Z</time>
      </trkpt>
      <trkpt lat="46.0808" lon="1.22303">
        <ele>319.775635</ele>
        <time>2011-02-06T08:53:26Z</time>
      </trkpt>
      <trkpt lat="46.0808" lon="1.22277">
        <ele>320.256348</ele>
        <time>2011-02-06T08:53:32Z</time>
      </trkpt>
      <trkpt lat="46.08067" lon="1.22266">
        <ele>323.140381</ele>
        <time>2011-02-06T08:53:38Z</time>
      </trkpt>
      <trkpt lat="46.08061" lon="1.22264">
        <ele>323.620972</ele>
        <time>2011-02-06T08:53:40Z</time>
      </trkpt>
      <trkpt lat="46.08035" lon="1.22258">
        <ele>324.582275</ele>
        <time>2011-02-06T08:53:49Z</time>
      </trkpt>
      <trkpt lat="46.08012" lon="1.22243">
        <ele>325.062988</ele>
        <time>2011-02-06T08:53:57Z</time>
      </trkpt>
      <trkpt lat="46.0799" lon="1.22225">
        <ele>326.985596</ele>
        <time>2011-02-06T08:54:06Z</time>
      </trkpt>
      <trkpt lat="46.07975" lon="1.22215">
        <ele>327.946777</ele>
        <time>2011-02-06T08:54:12Z</time>
      </trkpt>
      <trkpt lat="46.07961" lon="1.22204">
        <ele>327.466186</ele>
        <time>2011-02-06T08:54:18Z</time>
      </trkpt>
      <trkpt lat="46.0795" lon="1.22196">
        <ele>327.466186</ele>
        <time>2011-02-06T08:54:23Z</time>
      </trkpt>
      <trkpt lat="46.0793" lon="1.2218">
        <ele>328.908325</ele>
        <time>2011-02-06T08:54:31Z</time>
      </trkpt>
      <trkpt lat="46.07914" lon="1.22175">
        <ele>330.830933</ele>
        <time>2011-02-06T08:54:37Z</time>
      </trkpt>
      <trkpt lat="46.07904" lon="1.22184">
        <ele>332.272827</ele>
        <time>2011-02-06T08:54:42Z</time>
      </trkpt>
      <trkpt lat="46.07891" lon="1.22192">
        <ele>333.234131</ele>
        <time>2011-02-06T08:54:48Z</time>
      </trkpt>
      <trkpt lat="46.07877" lon="1.22195">
        <ele>333.714722</ele>
        <time>2011-02-06T08:54:53Z</time>
      </trkpt>
      <trkpt lat="46.07872" lon="1.22196">
        <ele>333.714722</ele>
        <time>2011-02-06T08:54:55Z</time>
      </trkpt>
      <trkpt lat="46.0786" lon="1.22209">
        <ele>334.195435</ele>
        <time>2011-02-06T08:55:01Z</time>
      </trkpt>
      <trkpt lat="46.07835" lon="1.22226">
        <ele>331.311523</ele>
        <time>2011-02-06T08:55:10Z</time>
      </trkpt>
      <trkpt lat="46.07808" lon="1.22229">
        <ele>329.869507</ele>
        <time>2011-02-06T08:55:17Z</time>
      </trkpt>
      <trkpt lat="46.07785" lon="1.22228">
        <ele>329.869507</ele>
        <time>2011-02-06T08:55:22Z</time>
      </trkpt>
      <trkpt lat="46.07749" lon="1.22227">
        <ele>327.466186</ele>
        <time>2011-02-06T08:55:28Z</time>
      </trkpt>
      <trkpt lat="46.0773" lon="1.22228">
        <ele>326.504883</ele>
        <time>2011-02-06T08:55:31Z</time>
      </trkpt>
      <trkpt lat="46.07684" lon="1.22226">
        <ele>321.217773</ele>
        <time>2011-02-06T08:55:37Z</time>
      </trkpt>
      <trkpt lat="46.0763" lon="1.2222">
        <ele>318.814331</ele>
        <time>2011-02-06T08:55:44Z</time>
      </trkpt>
      <trkpt lat="46.07624" lon="1.22219">
        <ele>318.814331</ele>
        <time>2011-02-06T08:55:45Z</time>
      </trkpt>
      <trkpt lat="46.07598" lon="1.22218">
        <ele>319.775635</ele>
        <time>2011-02-06T08:55:50Z</time>
      </trkpt>
      <trkpt lat="46.07574" lon="1.22217">
        <ele>321.698364</ele>
        <time>2011-02-06T08:55:56Z</time>
      </trkpt>
      <trkpt lat="46.07566" lon="1.22218">
        <ele>322.659668</ele>
        <time>2011-02-06T08:55:58Z</time>
      </trkpt>
      <trkpt lat="46.07554" lon="1.22225">
        <ele>323.140381</ele>
        <time>2011-02-06T08:56:02Z</time>
      </trkpt>
      <trkpt lat="46.07545" lon="1.2224">
        <ele>322.659668</ele>
        <time>2011-02-06T08:56:07Z</time>
      </trkpt>
      <trkpt lat="46.07544" lon="1.22254">
        <ele>325.062988</ele>
        <time>2011-02-06T08:56:12Z</time>
      </trkpt>
      <trkpt lat="46.07544" lon="1.22258">
        <ele>326.504883</ele>
        <time>2011-02-06T08:56:14Z</time>
      </trkpt>
      <trkpt lat="46.0755" lon="1.22274">
        <ele>327.466186</ele>
        <time>2011-02-06T08:56:20Z</time>
      </trkpt>
      <trkpt lat="46.0755" lon="1.22288">
        <ele>328.908325</ele>
        <time>2011-02-06T08:56:25Z</time>
      </trkpt>
      <trkpt lat="46.07542" lon="1.22307">
        <ele>329.869507</ele>
        <time>2011-02-06T08:56:32Z</time>
      </trkpt>
      <trkpt lat="46.07533" lon="1.22321">
        <ele>332.75354</ele>
        <time>2011-02-06T08:56:39Z</time>
      </trkpt>
      <trkpt lat="46.07531" lon="1.22325">
        <ele>334.676148</ele>
        <time>2011-02-06T08:56:41Z</time>
      </trkpt>
      <trkpt lat="46.0752" lon="1.22337">
        <ele>337.079468</ele>
        <time>2011-02-06T08:56:48Z</time>
      </trkpt>
      <trkpt lat="46.07511" lon="1.22348">
        <ele>336.118164</ele>
        <time>2011-02-06T08:56:53Z</time>
      </trkpt>
      <trkpt lat="46.07498" lon="1.22367">
        <ele>332.75354</ele>
        <time>2011-02-06T08:57:01Z</time>
      </trkpt>
      <trkpt lat="46.07494" lon="1.22371">
        <ele>333.234131</ele>
        <time>2011-02-06T08:57:03Z</time>
      </trkpt>
      <trkpt lat="46.07483" lon="1.2237">
        <ele>334.195435</ele>
        <time>2011-02-06T08:57:09Z</time>
      </trkpt>
      <trkpt lat="46.07471" lon="1.22359">
        <ele>338.521484</ele>
        <time>2011-02-06T08:57:17Z</time>
      </trkpt>
      <trkpt lat="46.07462" lon="1.22353">
        <ele>339.002075</ele>
        <time>2011-02-06T08:57:23Z</time>
      </trkpt>
      <trkpt lat="46.07453" lon="1.22346">
        <ele>339.002075</ele>
        <time>2011-02-06T08:57:30Z</time>
      </trkpt>
      <trkpt lat="46.07449" lon="1.22343">
        <ele>339.482666</ele>
        <time>2011-02-06T08:57:33Z</time>
      </trkpt>
      <trkpt lat="46.07441" lon="1.22338">
        <ele>341.405273</ele>
        <time>2011-02-06T08:57:38Z</time>
      </trkpt>
      <trkpt lat="46.07429" lon="1.22326">
        <ele>339.963379</ele>
        <time>2011-02-06T08:57:46Z</time>
      </trkpt>
      <trkpt lat="46.0742" lon="1.22317">
        <ele>341.885986</ele>
        <time>2011-02-06T08:57:52Z</time>
      </trkpt>
      <trkpt lat="46.07419" lon="1.22316">
        <ele>342.84729</ele>
        <time>2011-02-06T08:57:53Z</time>
      </trkpt>
      <trkpt lat="46.07405" lon="1.2231">
        <ele>344.770019</ele>
        <time>2011-02-06T08:58:01Z</time>
      </trkpt>
      <trkpt lat="46.07404" lon="1.22308">
        <ele>345.25061</ele>
        <time>2011-02-06T08:58:02Z</time>
      </trkpt>
      <trkpt lat="46.07397" lon="1.22301">
        <ele>346.692627</ele>
        <time>2011-02-06T08:58:07Z</time>
      </trkpt>
      <trkpt lat="46.07383" lon="1.22286">
        <ele>352.460571</ele>
        <time>2011-02-06T08:58:16Z</time>
      </trkpt>
      <trkpt lat="46.07369" lon="1.22271">
        <ele>357.747803</ele>
        <time>2011-02-06T08:58:26Z</time>
      </trkpt>
      <trkpt lat="46.07359" lon="1.22256">
        <ele>356.786377</ele>
        <time>2011-02-06T08:58:33Z</time>
      </trkpt>
      <trkpt lat="46.07354" lon="1.22252">
        <ele>355.825195</ele>
        <time>2011-02-06T08:58:36Z</time>
      </trkpt>
      <trkpt lat="46.07344" lon="1.22251">
        <ele>357.26709</ele>
        <time>2011-02-06T08:58:42Z</time>
      </trkpt>
      <trkpt lat="46.0733" lon="1.22247">
        <ele>357.747803</ele>
        <time>2011-02-06T08:58:51Z</time>
      </trkpt>
      <trkpt lat="46.07318" lon="1.22245">
        <ele>357.747803</ele>
        <time>2011-02-06T08:58:58Z</time>
      </trkpt>
      <trkpt lat="46.07308" lon="1.22243">
        <ele>358.708984</ele>
        <time>2011-02-06T08:59:04Z</time>
      </trkpt>
      <trkpt lat="46.07299" lon="1.22243">
        <ele>361.112427</ele>
        <time>2011-02-06T08:59:10Z</time>
      </trkpt>
      <trkpt lat="46.07291" lon="1.22245">
        <ele>363.515747</ele>
        <time>2011-02-06T08:59:16Z</time>
      </trkpt>
      <trkpt lat="46.0728" lon="1.22248">
        <ele>365.438355</ele>
        <time>2011-02-06T08:59:23Z</time>
      </trkpt>
      <trkpt lat="46.07277" lon="1.22251">
        <ele>365.918945</ele>
        <time>2011-02-06T08:59:25Z</time>
      </trkpt>
      <trkpt lat="46.07274" lon="1.2226">
        <ele>367.360962</ele>
        <time>2011-02-06T08:59:31Z</time>
      </trkpt>
      <trkpt lat="46.0727" lon="1.22267">
        <ele>367.360962</ele>
        <time>2011-02-06T08:59:34Z</time>
      </trkpt>
      <trkpt lat="46.07257" lon="1.22285">
        <ele>365.918945</ele>
        <time>2011-02-06T08:59:42Z</time>
      </trkpt>
      <trkpt lat="46.07251" lon="1.223">
        <ele>367.360962</ele>
        <time>2011-02-06T08:59:48Z</time>
      </trkpt>
      <trkpt lat="46.0724" lon="1.22319">
        <ele>367.841553</ele>
        <time>2011-02-06T08:59:55Z</time>
      </trkpt>
      <trkpt lat="46.07232" lon="1.22336">
        <ele>367.360962</ele>
        <time>2011-02-06T09:00:01Z</time>
      </trkpt>
      <trkpt lat="46.07225" lon="1.22356">
        <ele>368.322266</ele>
        <time>2011-02-06T09:00:07Z</time>
      </trkpt>
      <trkpt lat="46.07215" lon="1.22377">
        <ele>368.802978</ele>
        <time>2011-02-06T09:00:13Z</time>
      </trkpt>
      <trkpt lat="46.072" lon="1.2239">
        <ele>367.841553</ele>
        <time>2011-02-06T09:00:19Z</time>
      </trkpt>
      <trkpt lat="46.07186" lon="1.22399">
        <ele>367.360962</ele>
        <time>2011-02-06T09:00:25Z</time>
      </trkpt>
      <trkpt lat="46.07174" lon="1.22413">
        <ele>364.957642</ele>
        <time>2011-02-06T09:00:31Z</time>
      </trkpt>
      <trkpt lat="46.07163" lon="1.22429">
        <ele>366.399536</ele>
        <time>2011-02-06T09:00:39Z</time>
      </trkpt>
      <trkpt lat="46.07151" lon="1.22444">
        <ele>369.764282</ele>
        <time>2011-02-06T09:00:48Z</time>
      </trkpt>
      <trkpt lat="46.07141" lon="1.22455">
        <ele>373.128906</ele>
        <time>2011-02-06T09:00:57Z</time>
      </trkpt>
      <trkpt lat="46.07133" lon="1.22466">
        <ele>375.532105</ele>
        <time>2011-02-06T09:01:05Z</time>
      </trkpt>
      <trkpt lat="46.07131" lon="1.22474">
        <ele>378.896851</ele>
        <time>2011-02-06T09:01:10Z</time>
      </trkpt>
      <trkpt lat="46.0713" lon="1.22477">
        <ele>380.819458</ele>
        <time>2011-02-06T09:01:12Z</time>
      </trkpt>
      <trkpt lat="46.07126" lon="1.22485">
        <ele>383.222656</ele>
        <time>2011-02-06T09:01:17Z</time>
      </trkpt>
      <trkpt lat="46.07124" lon="1.2249">
        <ele>386.10669</ele>
        <time>2011-02-06T09:01:20Z</time>
      </trkpt>
      <trkpt lat="46.07121" lon="1.22502">
        <ele>388.990601</ele>
        <time>2011-02-06T09:01:26Z</time>
      </trkpt>
      <trkpt lat="46.07119" lon="1.22507">
        <ele>390.913208</ele>
        <time>2011-02-06T09:01:29Z</time>
      </trkpt>
      <trkpt lat="46.07118" lon="1.22511">
        <ele>391.874512</ele>
        <time>2011-02-06T09:01:31Z</time>
      </trkpt>
      <trkpt lat="46.07116" lon="1.22519">
        <ele>394.277954</ele>
        <time>2011-02-06T09:01:35Z</time>
      </trkpt>
      <trkpt lat="46.07115" lon="1.22523">
        <ele>395.719849</ele>
        <time>2011-02-06T09:01:37Z</time>
      </trkpt>
      <trkpt lat="46.0711" lon="1.22541">
        <ele>391.393799</ele>
        <time>2011-02-06T09:01:45Z</time>
      </trkpt>
      <trkpt lat="46.07108" lon="1.22548">
        <ele>389.471191</ele>
        <time>2011-02-06T09:01:48Z</time>
      </trkpt>
      <trkpt lat="46.07102" lon="1.22561">
        <ele>390.432617</ele>
        <time>2011-02-06T09:01:54Z</time>
      </trkpt>
      <trkpt lat="46.07097" lon="1.22572">
        <ele>394.277954</ele>
        <time>2011-02-06T09:02:00Z</time>
      </trkpt>
      <trkpt lat="46.07091" lon="1.22584">
        <ele>395.239136</ele>
        <time>2011-02-06T09:02:05Z</time>
      </trkpt>
      <trkpt lat="46.07083" lon="1.226">
        <ele>391.393799</ele>
        <time>2011-02-06T09:02:10Z</time>
      </trkpt>
      <trkpt lat="46.0708" lon="1.22613">
        <ele>391.874512</ele>
        <time>2011-02-06T09:02:15Z</time>
      </trkpt>
      <trkpt lat="46.07073" lon="1.2263">
        <ele>390.913208</ele>
        <time>2011-02-06T09:02:22Z</time>
      </trkpt>
      <trkpt lat="46.07069" lon="1.22644">
        <ele>390.913208</ele>
        <time>2011-02-06T09:02:27Z</time>
      </trkpt>
      <trkpt lat="46.0706" lon="1.22665">
        <ele>390.913208</ele>
        <time>2011-02-06T09:02:34Z</time>
      </trkpt>
      <trkpt lat="46.0706" lon="1.22684">
        <ele>390.432617</ele>
        <time>2011-02-06T09:02:40Z</time>
      </trkpt>
      <trkpt lat="46.07064" lon="1.2271">
        <ele>390.432617</ele>
        <time>2011-02-06T09:02:48Z</time>
      </trkpt>
      <trkpt lat="46.07066" lon="1.22732">
        <ele>388.990601</ele>
        <time>2011-02-06T09:02:55Z</time>
      </trkpt>
      <trkpt lat="46.07067" lon="1.22748">
        <ele>385.625977</ele>
        <time>2011-02-06T09:03:00Z</time>
      </trkpt>
      <trkpt lat="46.07067" lon="1.22754">
        <ele>383.222656</ele>
        <time>2011-02-06T09:03:02Z</time>
      </trkpt>
      <trkpt lat="46.07065" lon="1.22771">
        <ele>383.703247</ele>
        <time>2011-02-06T09:03:07Z</time>
      </trkpt>
      <trkpt lat="46.07063" lon="1.22775">
        <ele>384.184082</ele>
        <time>2011-02-06T09:03:08Z</time>
      </trkpt>
      <trkpt lat="46.0706" lon="1.22788">
        <ele>384.184082</ele>
        <time>2011-02-06T09:03:11Z</time>
      </trkpt>
      <trkpt lat="46.07062" lon="1.22811">
        <ele>388.990601</ele>
        <time>2011-02-06T09:03:16Z</time>
      </trkpt>
      <trkpt lat="46.07065" lon="1.22835">
        <ele>391.393799</ele>
        <time>2011-02-06T09:03:21Z</time>
      </trkpt>
      <trkpt lat="46.07072" lon="1.2286">
        <ele>390.432617</ele>
        <time>2011-02-06T09:03:26Z</time>
      </trkpt>
      <trkpt lat="46.07087" lon="1.22882">
        <ele>389.471191</ele>
        <time>2011-02-06T09:03:31Z</time>
      </trkpt>
      <trkpt lat="46.07096" lon="1.22911">
        <ele>389.471191</ele>
        <time>2011-02-06T09:03:35Z</time>
      </trkpt>
      <trkpt lat="46.07109" lon="1.22933">
        <ele>388.990601</ele>
        <time>2011-02-06T09:03:39Z</time>
      </trkpt>
      <trkpt lat="46.07115" lon="1.22943">
        <ele>388.990601</ele>
        <time>2011-02-06T09:03:41Z</time>
      </trkpt>
      <trkpt lat="46.07134" lon="1.22992">
        <ele>385.625977</ele>
        <time>2011-02-06T09:03:50Z</time>
      </trkpt>
      <trkpt lat="46.07144" lon="1.23029">
        <ele>384.664795</ele>
        <time>2011-02-06T09:03:56Z</time>
      </trkpt>
      <trkpt lat="46.07151" lon="1.23056">
        <ele>385.625977</ele>
        <time>2011-02-06T09:04:00Z</time>
      </trkpt>
      <trkpt lat="46.07153" lon="1.23104">
        <ele>386.587402</ele>
        <time>2011-02-06T09:04:05Z</time>
      </trkpt>
      <trkpt lat="46.07151" lon="1.23125">
        <ele>385.145386</ele>
        <time>2011-02-06T09:04:07Z</time>
      </trkpt>
      <trkpt lat="46.07137" lon="1.23187">
        <ele>384.184082</ele>
        <time>2011-02-06T09:04:13Z</time>
      </trkpt>
      <trkpt lat="46.07132" lon="1.23202">
        <ele>384.664795</ele>
        <time>2011-02-06T09:04:15Z</time>
      </trkpt>
      <trkpt lat="46.07132" lon="1.23233">
        <ele>382.742065</ele>
        <time>2011-02-06T09:04:19Z</time>
      </trkpt>
      <trkpt lat="46.07135" lon="1.23255">
        <ele>381.78064</ele>
        <time>2011-02-06T09:04:22Z</time>
      </trkpt>
      <trkpt lat="46.07129" lon="1.23272">
        <ele>380.819458</ele>
        <time>2011-02-06T09:04:25Z</time>
      </trkpt>
      <trkpt lat="46.07125" lon="1.23282">
        <ele>380.338745</ele>
        <time>2011-02-06T09:04:27Z</time>
      </trkpt>
      <trkpt lat="46.07113" lon="1.233">
        <ele>378.416138</ele>
        <time>2011-02-06T09:04:31Z</time>
      </trkpt>
      <trkpt lat="46.07096" lon="1.23322">
        <ele>377.454834</ele>
        <time>2011-02-06T09:04:36Z</time>
      </trkpt>
      <trkpt lat="46.07087" lon="1.23329">
        <ele>376.974243</ele>
        <time>2011-02-06T09:04:38Z</time>
      </trkpt>
      <trkpt lat="46.0707" lon="1.23339">
        <ele>377.935425</ele>
        <time>2011-02-06T09:04:42Z</time>
      </trkpt>
      <trkpt lat="46.0705" lon="1.23349">
        <ele>378.416138</ele>
        <time>2011-02-06T09:04:46Z</time>
      </trkpt>
      <trkpt lat="46.07039" lon="1.23357">
        <ele>378.416138</ele>
        <time>2011-02-06T09:04:48Z</time>
      </trkpt>
      <trkpt lat="46.07013" lon="1.23381">
        <ele>378.896851</ele>
        <time>2011-02-06T09:04:53Z</time>
      </trkpt>
      <trkpt lat="46.06987" lon="1.23409">
        <ele>376.012817</ele>
        <time>2011-02-06T09:04:57Z</time>
      </trkpt>
      <trkpt lat="46.06963" lon="1.23455">
        <ele>372.648193</ele>
        <time>2011-02-06T09:05:02Z</time>
      </trkpt>
      <trkpt lat="46.06962" lon="1.23501">
        <ele>373.609497</ele>
        <time>2011-02-06T09:05:06Z</time>
      </trkpt>
      <trkpt lat="46.06967" lon="1.23541">
        <ele>369.764282</ele>
        <time>2011-02-06T09:05:10Z</time>
      </trkpt>
      <trkpt lat="46.06961" lon="1.23545">
        <ele>366.880249</ele>
        <time>2011-02-06T09:05:14Z</time>
      </trkpt>
      <trkpt lat="46.06956" lon="1.23541">
        <ele>365.918945</ele>
        <time>2011-02-06T09:05:16Z</time>
      </trkpt>
      <trkpt lat="46.06937" lon="1.23521">
        <ele>365.438355</ele>
        <time>2011-02-06T09:05:24Z</time>
      </trkpt>
      <trkpt lat="46.06923" lon="1.23507">
        <ele>366.399536</ele>
        <time>2011-02-06T09:05:30Z</time>
      </trkpt>
      <trkpt lat="46.06903" lon="1.23491">
        <ele>366.399536</ele>
        <time>2011-02-06T09:05:38Z</time>
      </trkpt>
      <trkpt lat="46.06881" lon="1.23485">
        <ele>366.880249</ele>
        <time>2011-02-06T09:05:46Z</time>
      </trkpt>
      <trkpt lat="46.06861" lon="1.23484">
        <ele>368.802978</ele>
        <time>2011-02-06T09:05:53Z</time>
      </trkpt>
      <trkpt lat="46.06848" lon="1.23484">
        <ele>371.206299</ele>
        <time>2011-02-06T09:05:58Z</time>
      </trkpt>
      <trkpt lat="46.06826" lon="1.23483">
        <ele>375.051514</ele>
        <time>2011-02-06T09:06:06Z</time>
      </trkpt>
      <trkpt lat="46.06802" lon="1.23477">
        <ele>376.49353</ele>
        <time>2011-02-06T09:06:14Z</time>
      </trkpt>
      <trkpt lat="46.06782" lon="1.2347">
        <ele>378.896851</ele>
        <time>2011-02-06T09:06:21Z</time>
      </trkpt>
      <trkpt lat="46.06766" lon="1.23463">
        <ele>378.416138</ele>
        <time>2011-02-06T09:06:27Z</time>
      </trkpt>
      <trkpt lat="46.06749" lon="1.23455">
        <ele>376.012817</ele>
        <time>2011-02-06T09:06:33Z</time>
      </trkpt>
      <trkpt lat="46.0673" lon="1.23445">
        <ele>374.570801</ele>
        <time>2011-02-06T09:06:40Z</time>
      </trkpt>
      <trkpt lat="46.0671" lon="1.23434">
        <ele>376.012817</ele>
        <time>2011-02-06T09:06:47Z</time>
      </trkpt>
      <trkpt lat="46.06701" lon="1.23415">
        <ele>377.935425</ele>
        <time>2011-02-06T09:06:53Z</time>
      </trkpt>
      <trkpt lat="46.06694" lon="1.23397">
        <ele>379.858032</ele>
        <time>2011-02-06T09:06:59Z</time>
      </trkpt>
      <trkpt lat="46.06687" lon="1.23384">
        <ele>381.78064</ele>
        <time>2011-02-06T09:07:04Z</time>
      </trkpt>
      <trkpt lat="46.06681" lon="1.23366">
        <ele>381.78064</ele>
        <time>2011-02-06T09:07:09Z</time>
      </trkpt>
      <trkpt lat="46.06672" lon="1.23344">
        <ele>379.858032</ele>
        <time>2011-02-06T09:07:16Z</time>
      </trkpt>
      <trkpt lat="46.06664" lon="1.23329">
        <ele>380.819458</ele>
        <time>2011-02-06T09:07:22Z</time>
      </trkpt>
      <trkpt lat="46.06653" lon="1.23312">
        <ele>382.261352</ele>
        <time>2011-02-06T09:07:28Z</time>
      </trkpt>
      <trkpt lat="46.06648" lon="1.23293">
        <ele>379.858032</ele>
        <time>2011-02-06T09:07:33Z</time>
      </trkpt>
      <trkpt lat="46.0665" lon="1.23269">
        <ele>376.974243</ele>
        <time>2011-02-06T09:07:39Z</time>
      </trkpt>
      <trkpt lat="46.06653" lon="1.23249">
        <ele>376.49353</ele>
        <time>2011-02-06T09:07:44Z</time>
      </trkpt>
      <trkpt lat="46.06658" lon="1.23212">
        <ele>376.012817</ele>
        <time>2011-02-06T09:07:52Z</time>
      </trkpt>
      <trkpt lat="46.06657" lon="1.23181">
        <ele>376.49353</ele>
        <time>2011-02-06T09:07:58Z</time>
      </trkpt>
      <trkpt lat="46.0666" lon="1.2315">
        <ele>376.012817</ele>
        <time>2011-02-06T09:08:03Z</time>
      </trkpt>
      <trkpt lat="46.0666" lon="1.23126">
        <ele>375.532105</ele>
        <time>2011-02-06T09:08:07Z</time>
      </trkpt>
      <trkpt lat="46.06658" lon="1.23104">
        <ele>375.532105</ele>
        <time>2011-02-06T09:08:11Z</time>
      </trkpt>
      <trkpt lat="46.0665" lon="1.23087">
        <ele>375.051514</ele>
        <time>2011-02-06T09:08:15Z</time>
      </trkpt>
      <trkpt lat="46.0662" lon="1.23065">
        <ele>374.570801</ele>
        <time>2011-02-06T09:08:24Z</time>
      </trkpt>
      <trkpt lat="46.06599" lon="1.23052">
        <ele>376.012817</ele>
        <time>2011-02-06T09:08:30Z</time>
      </trkpt>
      <trkpt lat="46.06571" lon="1.23033">
        <ele>377.935425</ele>
        <time>2011-02-06T09:08:38Z</time>
      </trkpt>
      <trkpt lat="46.06544" lon="1.23017">
        <ele>378.896851</ele>
        <time>2011-02-06T09:08:46Z</time>
      </trkpt>
      <trkpt lat="46.06525" lon="1.23004">
        <ele>379.377441</ele>
        <time>2011-02-06T09:08:52Z</time>
      </trkpt>
      <trkpt lat="46.06506" lon="1.22989">
        <ele>378.896851</ele>
        <time>2011-02-06T09:08:58Z</time>
      </trkpt>
      <trkpt lat="46.06483" lon="1.22972">
        <ele>378.416138</ele>
        <time>2011-02-06T09:09:05Z</time>
      </trkpt>
      <trkpt lat="46.06465" lon="1.22959">
        <ele>380.338745</ele>
        <time>2011-02-06T09:09:11Z</time>
      </trkpt>
      <trkpt lat="46.06453" lon="1.22948">
        <ele>383.222656</ele>
        <time>2011-02-06T09:09:16Z</time>
      </trkpt>
      <trkpt lat="46.06442" lon="1.22935">
        <ele>381.78064</ele>
        <time>2011-02-06T09:09:21Z</time>
      </trkpt>
      <trkpt lat="46.06429" lon="1.22921">
        <ele>383.222656</ele>
        <time>2011-02-06T09:09:28Z</time>
      </trkpt>
      <trkpt lat="46.0642" lon="1.22909">
        <ele>384.664795</ele>
        <time>2011-02-06T09:09:34Z</time>
      </trkpt>
      <trkpt lat="46.06412" lon="1.22886">
        <ele>385.145386</ele>
        <time>2011-02-06T09:09:42Z</time>
      </trkpt>
      <trkpt lat="46.06407" lon="1.2286">
        <ele>386.587402</ele>
        <time>2011-02-06T09:09:50Z</time>
      </trkpt>
      <trkpt lat="46.06403" lon="1.22837">
        <ele>387.067993</ele>
        <time>2011-02-06T09:09:58Z</time>
      </trkpt>
      <trkpt lat="46.06395" lon="1.22815">
        <ele>386.587402</ele>
        <time>2011-02-06T09:10:05Z</time>
      </trkpt>
      <trkpt lat="46.06384" lon="1.22814">
        <ele>385.625977</ele>
        <time>2011-02-06T09:10:09Z</time>
      </trkpt>
      <trkpt lat="46.06371" lon="1.22828">
        <ele>383.703247</ele>
        <time>2011-02-06T09:10:13Z</time>
      </trkpt>
      <trkpt lat="46.06363" lon="1.22851">
        <ele>381.78064</ele>
        <time>2011-02-06T09:10:17Z</time>
      </trkpt>
      <trkpt lat="46.06358" lon="1.22873">
        <ele>381.300049</ele>
        <time>2011-02-06T09:10:20Z</time>
      </trkpt>
      <trkpt lat="46.06351" lon="1.22895">
        <ele>380.819458</ele>
        <time>2011-02-06T09:10:23Z</time>
      </trkpt>
      <trkpt lat="46.06345" lon="1.22923">
        <ele>381.78064</ele>
        <time>2011-02-06T09:10:27Z</time>
      </trkpt>
      <trkpt lat="46.06336" lon="1.22961">
        <ele>381.78064</ele>
        <time>2011-02-06T09:10:32Z</time>
      </trkpt>
      <trkpt lat="46.06329" lon="1.22985">
        <ele>384.184082</ele>
        <time>2011-02-06T09:10:36Z</time>
      </trkpt>
      <trkpt lat="46.06322" lon="1.23004">
        <ele>389.471191</ele>
        <time>2011-02-06T09:10:41Z</time>
      </trkpt>
      <trkpt lat="46.06311" lon="1.23028">
        <ele>389.951904</ele>
        <time>2011-02-06T09:10:47Z</time>
      </trkpt>
      <trkpt lat="46.06304" lon="1.23048">
        <ele>387.067993</ele>
        <time>2011-02-06T09:10:52Z</time>
      </trkpt>
      <trkpt lat="46.06298" lon="1.23072">
        <ele>389.471191</ele>
        <time>2011-02-06T09:10:59Z</time>
      </trkpt>
      <trkpt lat="46.06294" lon="1.23092">
        <ele>392.355347</ele>
        <time>2011-02-06T09:11:05Z</time>
      </trkpt>
      <trkpt lat="46.06292" lon="1.23107">
        <ele>394.758545</ele>
        <time>2011-02-06T09:11:10Z</time>
      </trkpt>
      <trkpt lat="46.06283" lon="1.23129">
        <ele>394.758545</ele>
        <time>2011-02-06T09:11:16Z</time>
      </trkpt>
      <trkpt lat="46.06268" lon="1.2315">
        <ele>390.432617</ele>
        <time>2011-02-06T09:11:22Z</time>
      </trkpt>
      <trkpt lat="46.06251" lon="1.23173">
        <ele>388.029297</ele>
        <time>2011-02-06T09:11:29Z</time>
      </trkpt>
      <trkpt lat="46.06232" lon="1.23199">
        <ele>387.067993</ele>
        <time>2011-02-06T09:11:37Z</time>
      </trkpt>
      <trkpt lat="46.06212" lon="1.23225">
        <ele>388.029297</ele>
        <time>2011-02-06T09:11:45Z</time>
      </trkpt>
      <trkpt lat="46.06187" lon="1.23258">
        <ele>387.067993</ele>
        <time>2011-02-06T09:11:55Z</time>
      </trkpt>
      <trkpt lat="46.06175" lon="1.23273">
        <ele>388.51001</ele>
        <time>2011-02-06T09:12:00Z</time>
      </trkpt>
      <trkpt lat="46.06164" lon="1.23283">
        <ele>390.913208</ele>
        <time>2011-02-06T09:12:05Z</time>
      </trkpt>
      <trkpt lat="46.06156" lon="1.23292">
        <ele>393.797241</ele>
        <time>2011-02-06T09:12:09Z</time>
      </trkpt>
      <trkpt lat="46.06145" lon="1.23306">
        <ele>394.758545</ele>
        <time>2011-02-06T09:12:14Z</time>
      </trkpt>
      <trkpt lat="46.06131" lon="1.23329">
        <ele>392.835938</ele>
        <time>2011-02-06T09:12:21Z</time>
      </trkpt>
      <trkpt lat="46.06122" lon="1.23349">
        <ele>389.471191</ele>
        <time>2011-02-06T09:12:27Z</time>
      </trkpt>
      <trkpt lat="46.06115" lon="1.2337">
        <ele>390.432617</ele>
        <time>2011-02-06T09:12:32Z</time>
      </trkpt>
      <trkpt lat="46.06107" lon="1.23397">
        <ele>388.51001</ele>
        <time>2011-02-06T09:12:39Z</time>
      </trkpt>
      <trkpt lat="46.06094" lon="1.23423">
        <ele>386.10669</ele>
        <time>2011-02-06T09:12:47Z</time>
      </trkpt>
      <trkpt lat="46.06087" lon="1.23442">
        <ele>384.664795</ele>
        <time>2011-02-06T09:12:54Z</time>
      </trkpt>
      <trkpt lat="46.06077" lon="1.23455">
        <ele>389.951904</ele>
        <time>2011-02-06T09:13:00Z</time>
      </trkpt>
      <trkpt lat="46.0607" lon="1.23468">
        <ele>396.200561</ele>
        <time>2011-02-06T09:13:05Z</time>
      </trkpt>
      <trkpt lat="46.06066" lon="1.23493">
        <ele>402.449097</ele>
        <time>2011-02-06T09:13:10Z</time>
      </trkpt>
      <trkpt lat="46.06064" lon="1.23505">
        <ele>402.929688</ele>
        <time>2011-02-06T09:13:12Z</time>
      </trkpt>
      <trkpt lat="46.06055" lon="1.23516">
        <ele>402.929688</ele>
        <time>2011-02-06T09:13:15Z</time>
      </trkpt>
      <trkpt lat="46.06051" lon="1.23515">
        <ele>403.4104</ele>
        <time>2011-02-06T09:13:16Z</time>
      </trkpt>
      <trkpt lat="46.06026" lon="1.23508">
        <ele>406.774902</ele>
        <time>2011-02-06T09:13:24Z</time>
      </trkpt>
      <trkpt lat="46.06011" lon="1.23505">
        <ele>407.736328</ele>
        <time>2011-02-06T09:13:29Z</time>
      </trkpt>
      <trkpt lat="46.05997" lon="1.23502">
        <ele>404.852295</ele>
        <time>2011-02-06T09:13:34Z</time>
      </trkpt>
      <trkpt lat="46.05974" lon="1.23494">
        <ele>409.178345</ele>
        <time>2011-02-06T09:13:41Z</time>
      </trkpt>
      <trkpt lat="46.05951" lon="1.23493">
        <ele>415.42688</ele>
        <time>2011-02-06T09:13:48Z</time>
      </trkpt>
      <trkpt lat="46.05925" lon="1.23498">
        <ele>417.349609</ele>
        <time>2011-02-06T09:13:56Z</time>
      </trkpt>
      <trkpt lat="46.05892" lon="1.23504">
        <ele>418.310791</ele>
        <time>2011-02-06T09:14:07Z</time>
      </trkpt>
      <trkpt lat="46.05871" lon="1.23507">
        <ele>417.349609</ele>
        <time>2011-02-06T09:14:15Z</time>
      </trkpt>
      <trkpt lat="46.05853" lon="1.23516">
        <ele>415.907471</ele>
        <time>2011-02-06T09:14:22Z</time>
      </trkpt>
      <trkpt lat="46.05839" lon="1.2352">
        <ele>414.465454</ele>
        <time>2011-02-06T09:14:26Z</time>
      </trkpt>
      <trkpt lat="46.05813" lon="1.23505">
        <ele>410.620239</ele>
        <time>2011-02-06T09:14:33Z</time>
      </trkpt>
      <trkpt lat="46.05785" lon="1.23488">
        <ele>406.294311</ele>
        <time>2011-02-06T09:14:39Z</time>
      </trkpt>
      <trkpt lat="46.05766" lon="1.23474">
        <ele>404.371704</ele>
        <time>2011-02-06T09:14:43Z</time>
      </trkpt>
      <trkpt lat="46.05733" lon="1.23452">
        <ele>391.393799</ele>
        <time>2011-02-06T09:14:50Z</time>
      </trkpt>
      <trkpt lat="46.05708" lon="1.23436">
        <ele>387.548584</ele>
        <time>2011-02-06T09:14:56Z</time>
      </trkpt>
      <trkpt lat="46.05703" lon="1.23434">
        <ele>388.029297</ele>
        <time>2011-02-06T09:14:57Z</time>
      </trkpt>
      <trkpt lat="46.05691" lon="1.23416">
        <ele>387.548584</ele>
        <time>2011-02-06T09:15:01Z</time>
      </trkpt>
      <trkpt lat="46.05687" lon="1.23404">
        <ele>391.393799</ele>
        <time>2011-02-06T09:15:04Z</time>
      </trkpt>
      <trkpt lat="46.05683" lon="1.23392">
        <ele>393.797241</ele>
        <time>2011-02-06T09:15:08Z</time>
      </trkpt>
      <trkpt lat="46.05681" lon="1.23389">
        <ele>396.200561</ele>
        <time>2011-02-06T09:15:10Z</time>
      </trkpt>
      <trkpt lat="46.05676" lon="1.23377">
        <ele>399.084351</ele>
        <time>2011-02-06T09:15:15Z</time>
      </trkpt>
      <trkpt lat="46.05674" lon="1.23365">
        <ele>401.487793</ele>
        <time>2011-02-06T09:15:19Z</time>
      </trkpt>
      <trkpt lat="46.05672" lon="1.23353">
        <ele>405.813721</ele>
        <time>2011-02-06T09:15:23Z</time>
      </trkpt>
      <trkpt lat="46.05668" lon="1.23337">
        <ele>406.294311</ele>
        <time>2011-02-06T09:15:29Z</time>
      </trkpt>
      <trkpt lat="46.05664" lon="1.23325">
        <ele>408.697632</ele>
        <time>2011-02-06T09:15:34Z</time>
      </trkpt>
      <trkpt lat="46.05658" lon="1.23317">
        <ele>410.620239</ele>
        <time>2011-02-06T09:15:38Z</time>
      </trkpt>
      <trkpt lat="46.05651" lon="1.23307">
        <ele>414.465454</ele>
        <time>2011-02-06T09:15:44Z</time>
      </trkpt>
      <trkpt lat="46.05647" lon="1.23294">
        <ele>424.078735</ele>
        <time>2011-02-06T09:15:50Z</time>
      </trkpt>
      <trkpt lat="46.05643" lon="1.23286">
        <ele>424.078735</ele>
        <time>2011-02-06T09:15:55Z</time>
      </trkpt>
      <trkpt lat="46.0564" lon="1.23272">
        <ele>426.962769</ele>
        <time>2011-02-06T09:16:01Z</time>
      </trkpt>
      <trkpt lat="46.0564" lon="1.23258">
        <ele>426.482056</ele>
        <time>2011-02-06T09:16:06Z</time>
      </trkpt>
      <trkpt lat="46.0564" lon="1.23247">
        <ele>426.962769</ele>
        <time>2011-02-06T09:16:10Z</time>
      </trkpt>
      <trkpt lat="46.05639" lon="1.23235">
        <ele>425.040161</ele>
        <time>2011-02-06T09:16:15Z</time>
      </trkpt>
      <trkpt lat="46.0564" lon="1.23217">
        <ele>426.962769</ele>
        <time>2011-02-06T09:16:23Z</time>
      </trkpt>
      <trkpt lat="46.05642" lon="1.23203">
        <ele>428.404663</ele>
        <time>2011-02-06T09:16:29Z</time>
      </trkpt>
      <trkpt lat="46.05644" lon="1.23196">
        <ele>428.885376</ele>
        <time>2011-02-06T09:16:32Z</time>
      </trkpt>
      <trkpt lat="46.05647" lon="1.23185">
        <ele>429.846558</ele>
        <time>2011-02-06T09:16:37Z</time>
      </trkpt>
      <trkpt lat="46.05648" lon="1.23173">
        <ele>429.846558</ele>
        <time>2011-02-06T09:16:42Z</time>
      </trkpt>
      <trkpt lat="46.05648" lon="1.23161">
        <ele>430.807983</ele>
        <time>2011-02-06T09:16:47Z</time>
      </trkpt>
      <trkpt lat="46.05645" lon="1.23143">
        <ele>432.730713</ele>
        <time>2011-02-06T09:16:55Z</time>
      </trkpt>
      <trkpt lat="46.05634" lon="1.23135">
        <ele>433.211304</ele>
        <time>2011-02-06T09:17:02Z</time>
      </trkpt>
      <trkpt lat="46.05616" lon="1.23126">
        <ele>434.172607</ele>
        <time>2011-02-06T09:17:10Z</time>
      </trkpt>
      <trkpt lat="46.0561" lon="1.23111">
        <ele>436.095215</ele>
        <time>2011-02-06T09:17:16Z</time>
      </trkpt>
      <trkpt lat="46.05601" lon="1.23088">
        <ele>431.769165</ele>
        <time>2011-02-06T09:17:24Z</time>
      </trkpt>
      <trkpt lat="46.05595" lon="1.23073">
        <ele>429.365967</ele>
        <time>2011-02-06T09:17:29Z</time>
      </trkpt>
      <trkpt lat="46.05579" lon="1.23044">
        <ele>426.482056</ele>
        <time>2011-02-06T09:17:38Z</time>
      </trkpt>
      <trkpt lat="46.05565" lon="1.23021">
        <ele>426.001343</ele>
        <time>2011-02-06T09:17:45Z</time>
      </trkpt>
      <trkpt lat="46.05546" lon="1.22994">
        <ele>425.040161</ele>
        <time>2011-02-06T09:17:53Z</time>
      </trkpt>
      <trkpt lat="46.05517" lon="1.2295">
        <ele>423.598023</ele>
        <time>2011-02-06T09:18:04Z</time>
      </trkpt>
      <trkpt lat="46.05503" lon="1.22924">
        <ele>422.156006</ele>
        <time>2011-02-06T09:18:08Z</time>
      </trkpt>
      <trkpt lat="46.05496" lon="1.22914">
        <ele>422.156006</ele>
        <time>2011-02-06T09:18:10Z</time>
      </trkpt>
      <trkpt lat="46.05475" lon="1.22892">
        <ele>420.714111</ele>
        <time>2011-02-06T09:18:15Z</time>
      </trkpt>
      <trkpt lat="46.05471" lon="1.22887">
        <ele>420.233398</ele>
        <time>2011-02-06T09:18:16Z</time>
      </trkpt>
      <trkpt lat="46.05442" lon="1.22846">
        <ele>415.907471</ele>
        <time>2011-02-06T09:18:22Z</time>
      </trkpt>
      <trkpt lat="46.05413" lon="1.22805">
        <ele>411.100952</ele>
        <time>2011-02-06T09:18:27Z</time>
      </trkpt>
      <trkpt lat="46.05371" lon="1.22746">
        <ele>405.813721</ele>
        <time>2011-02-06T09:18:33Z</time>
      </trkpt>
      <trkpt lat="46.05346" lon="1.2271">
        <ele>403.4104</ele>
        <time>2011-02-06T09:18:37Z</time>
      </trkpt>
      <trkpt lat="46.05302" lon="1.22657">
        <ele>399.565064</ele>
        <time>2011-02-06T09:18:44Z</time>
      </trkpt>
      <trkpt lat="46.0526" lon="1.22617">
        <ele>394.277954</ele>
        <time>2011-02-06T09:18:50Z</time>
      </trkpt>
      <trkpt lat="46.05253" lon="1.22611">
        <ele>393.797241</ele>
        <time>2011-02-06T09:18:51Z</time>
      </trkpt>
      <trkpt lat="46.05227" lon="1.22579">
        <ele>390.432617</ele>
        <time>2011-02-06T09:18:55Z</time>
      </trkpt>
      <trkpt lat="46.05212" lon="1.22533">
        <ele>387.548584</ele>
        <time>2011-02-06T09:18:59Z</time>
      </trkpt>
      <trkpt lat="46.0521" lon="1.22505">
        <ele>385.145386</ele>
        <time>2011-02-06T09:19:01Z</time>
      </trkpt>
      <trkpt lat="46.0521" lon="1.22485">
        <ele>383.703247</ele>
        <time>2011-02-06T09:19:03Z</time>
      </trkpt>
      <trkpt lat="46.05206" lon="1.22475">
        <ele>380.819458</ele>
        <time>2011-02-06T09:19:07Z</time>
      </trkpt>
      <trkpt lat="46.05202" lon="1.22482">
        <ele>380.819458</ele>
        <time>2011-02-06T09:19:10Z</time>
      </trkpt>
      <trkpt lat="46.05199" lon="1.22492">
        <ele>380.338745</ele>
        <time>2011-02-06T09:19:13Z</time>
      </trkpt>
      <trkpt lat="46.05188" lon="1.22515">
        <ele>378.416138</ele>
        <time>2011-02-06T09:19:20Z</time>
      </trkpt>
      <trkpt lat="46.05174" lon="1.22528">
        <ele>376.012817</ele>
        <time>2011-02-06T09:19:26Z</time>
      </trkpt>
      <trkpt lat="46.05165" lon="1.22535">
        <ele>377.935425</ele>
        <time>2011-02-06T09:19:31Z</time>
      </trkpt>
      <trkpt lat="46.05153" lon="1.22545">
        <ele>388.51001</ele>
        <time>2011-02-06T09:19:38Z</time>
      </trkpt>
      <trkpt lat="46.05142" lon="1.22552">
        <ele>388.029297</ele>
        <time>2011-02-06T09:19:44Z</time>
      </trkpt>
      <trkpt lat="46.05131" lon="1.2256">
        <ele>386.10669</ele>
        <time>2011-02-06T09:19:51Z</time>
      </trkpt>
      <trkpt lat="46.05125" lon="1.22568">
        <ele>383.222656</ele>
        <time>2011-02-06T09:19:56Z</time>
      </trkpt>
      <trkpt lat="46.05121" lon="1.2258">
        <ele>385.625977</ele>
        <time>2011-02-06T09:20:02Z</time>
      </trkpt>
      <trkpt lat="46.05118" lon="1.22584">
        <ele>384.664795</ele>
        <time>2011-02-06T09:20:04Z</time>
      </trkpt>
      <trkpt lat="46.05113" lon="1.22598">
        <ele>382.261352</ele>
        <time>2011-02-06T09:20:10Z</time>
      </trkpt>
      <trkpt lat="46.05111" lon="1.22605">
        <ele>384.664795</ele>
        <time>2011-02-06T09:20:12Z</time>
      </trkpt>
      <trkpt lat="46.05112" lon="1.22627">
        <ele>389.951904</ele>
        <time>2011-02-06T09:20:19Z</time>
      </trkpt>
      <trkpt lat="46.05116" lon="1.22632">
        <ele>391.874512</ele>
        <time>2011-02-06T09:20:22Z</time>
      </trkpt>
      <trkpt lat="46.05127" lon="1.22636">
        <ele>394.758545</ele>
        <time>2011-02-06T09:20:29Z</time>
      </trkpt>
      <trkpt lat="46.05139" lon="1.22637">
        <ele>398.60376</ele>
        <time>2011-02-06T09:20:36Z</time>
      </trkpt>
      <trkpt lat="46.05151" lon="1.22637">
        <ele>399.084351</ele>
        <time>2011-02-06T09:20:43Z</time>
      </trkpt>
      <trkpt lat="46.05165" lon="1.2264">
        <ele>400.045898</ele>
        <time>2011-02-06T09:20:49Z</time>
      </trkpt>
      <trkpt lat="46.0518" lon="1.22647">
        <ele>400.526489</ele>
        <time>2011-02-06T09:20:54Z</time>
      </trkpt>
      <trkpt lat="46.05198" lon="1.2266">
        <ele>401.487793</ele>
        <time>2011-02-06T09:21:02Z</time>
      </trkpt>
      <trkpt lat="46.05214" lon="1.22675">
        <ele>403.891113</ele>
        <time>2011-02-06T09:21:11Z</time>
      </trkpt>
      <trkpt lat="46.05225" lon="1.2269">
        <ele>405.813721</ele>
        <time>2011-02-06T09:21:18Z</time>
      </trkpt>
      <trkpt lat="46.05234" lon="1.2271">
        <ele>407.255615</ele>
        <time>2011-02-06T09:21:26Z</time>
      </trkpt>
      <trkpt lat="46.05242" lon="1.22731">
        <ele>408.217041</ele>
        <time>2011-02-06T09:21:33Z</time>
      </trkpt>
      <trkpt lat="46.05254" lon="1.22757">
        <ele>408.697632</ele>
        <time>2011-02-06T09:21:42Z</time>
      </trkpt>
      <trkpt lat="46.05265" lon="1.22777">
        <ele>409.178345</ele>
        <time>2011-02-06T09:21:49Z</time>
      </trkpt>
      <trkpt lat="46.05277" lon="1.22795">
        <ele>410.139648</ele>
        <time>2011-02-06T09:21:56Z</time>
      </trkpt>
      <trkpt lat="46.05288" lon="1.22811">
        <ele>411.581665</ele>
        <time>2011-02-06T09:22:03Z</time>
      </trkpt>
      <trkpt lat="46.05301" lon="1.22832">
        <ele>412.062256</ele>
        <time>2011-02-06T09:22:12Z</time>
      </trkpt>
      <trkpt lat="46.05311" lon="1.22852">
        <ele>413.984863</ele>
        <time>2011-02-06T09:22:21Z</time>
      </trkpt>
      <trkpt lat="46.05316" lon="1.22871">
        <ele>417.8302</ele>
        <time>2011-02-06T09:22:29Z</time>
      </trkpt>
      <trkpt lat="46.05318" lon="1.22889">
        <ele>419.752808</ele>
        <time>2011-02-06T09:22:36Z</time>
      </trkpt>
      <trkpt lat="46.05323" lon="1.22911">
        <ele>418.791504</ele>
        <time>2011-02-06T09:22:44Z</time>
      </trkpt>
      <trkpt lat="46.05327" lon="1.22932">
        <ele>419.272217</ele>
        <time>2011-02-06T09:22:52Z</time>
      </trkpt>
      <trkpt lat="46.05329" lon="1.22944">
        <ele>422.156006</ele>
        <time>2011-02-06T09:22:57Z</time>
      </trkpt>
      <trkpt lat="46.05327" lon="1.22956">
        <ele>420.714111</ele>
        <time>2011-02-06T09:23:03Z</time>
      </trkpt>
      <trkpt lat="46.05323" lon="1.22965">
        <ele>421.675415</ele>
        <time>2011-02-06T09:23:08Z</time>
      </trkpt>
      <trkpt lat="46.05316" lon="1.22974">
        <ele>422.156006</ele>
        <time>2011-02-06T09:23:13Z</time>
      </trkpt>
      <trkpt lat="46.05306" lon="1.22985">
        <ele>420.714111</ele>
        <time>2011-02-06T09:23:20Z</time>
      </trkpt>
      <trkpt lat="46.05297" lon="1.22992">
        <ele>417.8302</ele>
        <time>2011-02-06T09:23:25Z</time>
      </trkpt>
      <trkpt lat="46.05282" lon="1.23006">
        <ele>422.156006</ele>
        <time>2011-02-06T09:23:33Z</time>
      </trkpt>
      <trkpt lat="46.05268" lon="1.2302">
        <ele>424.078735</ele>
        <time>2011-02-06T09:23:41Z</time>
      </trkpt>
      <trkpt lat="46.05259" lon="1.23032">
        <ele>422.156006</ele>
        <time>2011-02-06T09:23:48Z</time>
      </trkpt>
      <trkpt lat="46.05251" lon="1.23041">
        <ele>420.714111</ele>
        <time>2011-02-06T09:23:54Z</time>
      </trkpt>
      <trkpt lat="46.05246" lon="1.2305">
        <ele>421.194824</ele>
        <time>2011-02-06T09:23:59Z</time>
      </trkpt>
      <trkpt lat="46.05239" lon="1.23061">
        <ele>424.078735</ele>
        <time>2011-02-06T09:24:05Z</time>
      </trkpt>
      <trkpt lat="46.0523" lon="1.23071">
        <ele>421.194824</ele>
        <time>2011-02-06T09:24:11Z</time>
      </trkpt>
      <trkpt lat="46.05221" lon="1.2308">
        <ele>416.868897</ele>
        <time>2011-02-06T09:24:17Z</time>
      </trkpt>
      <trkpt lat="46.05212" lon="1.23089">
        <ele>414.465454</ele>
        <time>2011-02-06T09:24:23Z</time>
      </trkpt>
      <trkpt lat="46.05207" lon="1.23095">
        <ele>415.42688</ele>
        <time>2011-02-06T09:24:27Z</time>
      </trkpt>
      <trkpt lat="46.05199" lon="1.23105">
        <ele>418.310791</ele>
        <time>2011-02-06T09:24:33Z</time>
      </trkpt>
      <trkpt lat="46.05188" lon="1.23118">
        <ele>423.598023</ele>
        <time>2011-02-06T09:24:41Z</time>
      </trkpt>
      <trkpt lat="46.05176" lon="1.23128">
        <ele>417.8302</ele>
        <time>2011-02-06T09:24:48Z</time>
      </trkpt>
      <trkpt lat="46.0516" lon="1.2314">
        <ele>417.349609</ele>
        <time>2011-02-06T09:24:56Z</time>
      </trkpt>
      <trkpt lat="46.05142" lon="1.23152">
        <ele>431.769165</ele>
        <time>2011-02-06T09:25:04Z</time>
      </trkpt>
      <trkpt lat="46.05125" lon="1.23158">
        <ele>441.382446</ele>
        <time>2011-02-06T09:25:10Z</time>
      </trkpt>
      <trkpt lat="46.05107" lon="1.23161">
        <ele>447.630981</ele>
        <time>2011-02-06T09:25:16Z</time>
      </trkpt>
      <trkpt lat="46.05092" lon="1.23167">
        <ele>446.189087</ele>
        <time>2011-02-06T09:25:21Z</time>
      </trkpt>
      <trkpt lat="46.05073" lon="1.23175">
        <ele>445.227661</ele>
        <time>2011-02-06T09:25:28Z</time>
      </trkpt>
      <trkpt lat="46.0505" lon="1.23187">
        <ele>446.669678</ele>
        <time>2011-02-06T09:25:37Z</time>
      </trkpt>
      <trkpt lat="46.05037" lon="1.23203">
        <ele>442.343872</ele>
        <time>2011-02-06T09:25:42Z</time>
      </trkpt>
      <trkpt lat="46.05033" lon="1.23226">
        <ele>438.498535</ele>
        <time>2011-02-06T09:25:46Z</time>
      </trkpt>
      <trkpt lat="46.05029" lon="1.23246">
        <ele>437.537109</ele>
        <time>2011-02-06T09:25:49Z</time>
      </trkpt>
      <trkpt lat="46.05024" lon="1.23268">
        <ele>438.979126</ele>
        <time>2011-02-06T09:25:52Z</time>
      </trkpt>
      <trkpt lat="46.05016" lon="1.23324">
        <ele>440.901856</ele>
        <time>2011-02-06T09:25:59Z</time>
      </trkpt>
      <trkpt lat="46.05013" lon="1.23342">
        <ele>438.017822</ele>
        <time>2011-02-06T09:26:02Z</time>
      </trkpt>
      <trkpt lat="46.05002" lon="1.23379">
        <ele>431.288574</ele>
        <time>2011-02-06T09:26:08Z</time>
      </trkpt>
      <trkpt lat="46.04997" lon="1.23394">
        <ele>427.92395</ele>
        <time>2011-02-06T09:26:10Z</time>
      </trkpt>
      <trkpt lat="46.04984" lon="1.2341">
        <ele>424.559448</ele>
        <time>2011-02-06T09:26:14Z</time>
      </trkpt>
      <trkpt lat="46.04974" lon="1.23413">
        <ele>426.001343</ele>
        <time>2011-02-06T09:26:16Z</time>
      </trkpt>
      <trkpt lat="46.04936" lon="1.23415">
        <ele>426.001343</ele>
        <time>2011-02-06T09:26:24Z</time>
      </trkpt>
      <trkpt lat="46.04911" lon="1.23413">
        <ele>426.482056</ele>
        <time>2011-02-06T09:26:29Z</time>
      </trkpt>
      <trkpt lat="46.04898" lon="1.23413">
        <ele>426.962769</ele>
        <time>2011-02-06T09:26:33Z</time>
      </trkpt>
      <trkpt lat="46.04884" lon="1.23412">
        <ele>423.117432</ele>
        <time>2011-02-06T09:26:38Z</time>
      </trkpt>
      <trkpt lat="46.04876" lon="1.23409">
        <ele>418.310791</ele>
        <time>2011-02-06T09:26:42Z</time>
      </trkpt>
      <trkpt lat="46.04873" lon="1.23408">
        <ele>416.868897</ele>
        <time>2011-02-06T09:26:43Z</time>
      </trkpt>
      <trkpt lat="46.04856" lon="1.23401">
        <ele>413.02356</ele>
        <time>2011-02-06T09:26:48Z</time>
      </trkpt>
      <trkpt lat="46.04831" lon="1.23391">
        <ele>409.659058</ele>
        <time>2011-02-06T09:26:54Z</time>
      </trkpt>
      <trkpt lat="46.04809" lon="1.23379">
        <ele>405.333008</ele>
        <time>2011-02-06T09:27:00Z</time>
      </trkpt>
      <trkpt lat="46.04792" lon="1.23365">
        <ele>399.565064</ele>
        <time>2011-02-06T09:27:05Z</time>
      </trkpt>
      <trkpt lat="46.04779" lon="1.23354">
        <ele>401.487793</ele>
        <time>2011-02-06T09:27:09Z</time>
      </trkpt>
      <trkpt lat="46.04767" lon="1.23345">
        <ele>404.371704</ele>
        <time>2011-02-06T09:27:14Z</time>
      </trkpt>
      <trkpt lat="46.04748" lon="1.23329">
        <ele>406.294311</ele>
        <time>2011-02-06T09:27:20Z</time>
      </trkpt>
      <trkpt lat="46.04727" lon="1.23315">
        <ele>412.062256</ele>
        <time>2011-02-06T09:27:26Z</time>
      </trkpt>
      <trkpt lat="46.04717" lon="1.23308">
        <ele>414.465454</ele>
        <time>2011-02-06T09:27:29Z</time>
      </trkpt>
      <trkpt lat="46.04713" lon="1.23293">
        <ele>414.465454</ele>
        <time>2011-02-06T09:27:34Z</time>
      </trkpt>
      <trkpt lat="46.04702" lon="1.23277">
        <ele>413.984863</ele>
        <time>2011-02-06T09:27:40Z</time>
      </trkpt>
      <trkpt lat="46.04698" lon="1.23272">
        <ele>414.465454</ele>
        <time>2011-02-06T09:27:42Z</time>
      </trkpt>
      <trkpt lat="46.04681" lon="1.23261">
        <ele>419.752808</ele>
        <time>2011-02-06T09:27:49Z</time>
      </trkpt>
      <trkpt lat="46.04671" lon="1.23259">
        <ele>418.310791</ele>
        <time>2011-02-06T09:27:54Z</time>
      </trkpt>
      <trkpt lat="46.04657" lon="1.23259">
        <ele>418.310791</ele>
        <time>2011-02-06T09:28:00Z</time>
      </trkpt>
      <trkpt lat="46.04645" lon="1.23258">
        <ele>424.078735</ele>
        <time>2011-02-06T09:28:05Z</time>
      </trkpt>
      <trkpt lat="46.04637" lon="1.23257">
        <ele>430.807983</ele>
        <time>2011-02-06T09:28:09Z</time>
      </trkpt>
      <trkpt lat="46.04625" lon="1.23254">
        <ele>439.459717</ele>
        <time>2011-02-06T09:28:14Z</time>
      </trkpt>
      <trkpt lat="46.04612" lon="1.2325">
        <ele>444.26648</ele>
        <time>2011-02-06T09:28:20Z</time>
      </trkpt>
      <trkpt lat="46.04598" lon="1.23242">
        <ele>440.421265</ele>
        <time>2011-02-06T09:28:26Z</time>
      </trkpt>
      <trkpt lat="46.04585" lon="1.23233">
        <ele>434.65332</ele>
        <time>2011-02-06T09:28:31Z</time>
      </trkpt>
      <trkpt lat="46.04573" lon="1.23222">
        <ele>424.559448</ele>
        <time>2011-02-06T09:28:37Z</time>
      </trkpt>
      <trkpt lat="46.04562" lon="1.23208">
        <ele>424.559448</ele>
        <time>2011-02-06T09:28:42Z</time>
      </trkpt>
      <trkpt lat="46.04545" lon="1.23197">
        <ele>424.559448</ele>
        <time>2011-02-06T09:28:47Z</time>
      </trkpt>
      <trkpt lat="46.04537" lon="1.23187">
        <ele>421.675415</ele>
        <time>2011-02-06T09:28:50Z</time>
      </trkpt>
      <trkpt lat="46.04539" lon="1.23169">
        <ele>420.714111</ele>
        <time>2011-02-06T09:28:55Z</time>
      </trkpt>
      <trkpt lat="46.04542" lon="1.23154">
        <ele>423.117432</ele>
        <time>2011-02-06T09:29:00Z</time>
      </trkpt>
      <trkpt lat="46.04547" lon="1.23135">
        <ele>426.001343</ele>
        <time>2011-02-06T09:29:06Z</time>
      </trkpt>
      <trkpt lat="46.04549" lon="1.23127">
        <ele>427.92395</ele>
        <time>2011-02-06T09:29:08Z</time>
      </trkpt>
      <trkpt lat="46.04553" lon="1.2311">
        <ele>431.288574</ele>
        <time>2011-02-06T09:29:13Z</time>
      </trkpt>
      <trkpt lat="46.04559" lon="1.23085">
        <ele>434.172607</ele>
        <time>2011-02-06T09:29:19Z</time>
      </trkpt>
      <trkpt lat="46.04561" lon="1.23064">
        <ele>435.614502</ele>
        <time>2011-02-06T09:29:23Z</time>
      </trkpt>
      <trkpt lat="46.04556" lon="1.23037">
        <ele>436.095215</ele>
        <time>2011-02-06T09:29:26Z</time>
      </trkpt>
      <trkpt lat="46.04545" lon="1.22979">
        <ele>433.211304</ele>
        <time>2011-02-06T09:29:31Z</time>
      </trkpt>
      <trkpt lat="46.04537" lon="1.2292">
        <ele>429.846558</ele>
        <time>2011-02-06T09:29:36Z</time>
      </trkpt>
      <trkpt lat="46.04532" lon="1.22889">
        <ele>427.92395</ele>
        <time>2011-02-06T09:29:39Z</time>
      </trkpt>
      <trkpt lat="46.04531" lon="1.22874">
        <ele>426.962769</ele>
        <time>2011-02-06T09:29:41Z</time>
      </trkpt>
      <trkpt lat="46.04524" lon="1.22837">
        <ele>425.040161</ele>
        <time>2011-02-06T09:29:48Z</time>
      </trkpt>
      <trkpt lat="46.0452" lon="1.22826">
        <ele>424.078735</ele>
        <time>2011-02-06T09:29:50Z</time>
      </trkpt>
      <trkpt lat="46.04511" lon="1.22803">
        <ele>422.156006</ele>
        <time>2011-02-06T09:29:55Z</time>
      </trkpt>
      <trkpt lat="46.04507" lon="1.22786">
        <ele>422.156006</ele>
        <time>2011-02-06T09:29:59Z</time>
      </trkpt>
      <trkpt lat="46.04501" lon="1.22761">
        <ele>419.272217</ele>
        <time>2011-02-06T09:30:04Z</time>
      </trkpt>
      <trkpt lat="46.04493" lon="1.22733">
        <ele>418.310791</ele>
        <time>2011-02-06T09:30:08Z</time>
      </trkpt>
      <trkpt lat="46.04484" lon="1.22707">
        <ele>414.946167</ele>
        <time>2011-02-06T09:30:12Z</time>
      </trkpt>
      <trkpt lat="46.04469" lon="1.22667">
        <ele>412.062256</ele>
        <time>2011-02-06T09:30:17Z</time>
      </trkpt>
      <trkpt lat="46.04465" lon="1.22648">
        <ele>412.542847</ele>
        <time>2011-02-06T09:30:19Z</time>
      </trkpt>
      <trkpt lat="46.04452" lon="1.22622">
        <ele>414.946167</ele>
        <time>2011-02-06T09:30:23Z</time>
      </trkpt>
      <trkpt lat="46.04441" lon="1.22616">
        <ele>420.233398</ele>
        <time>2011-02-06T09:30:26Z</time>
      </trkpt>
      <trkpt lat="46.04438" lon="1.22615">
        <ele>421.675415</ele>
        <time>2011-02-06T09:30:27Z</time>
      </trkpt>
      <trkpt lat="46.04431" lon="1.22613">
        <ele>425.520752</ele>
        <time>2011-02-06T09:30:32Z</time>
      </trkpt>
      <trkpt lat="46.04422" lon="1.22615">
        <ele>423.598023</ele>
        <time>2011-02-06T09:30:37Z</time>
      </trkpt>
      <trkpt lat="46.04417" lon="1.2262">
        <ele>423.598023</ele>
        <time>2011-02-06T09:30:43Z</time>
      </trkpt>
      <trkpt lat="46.04414" lon="1.22621">
        <ele>425.040161</ele>
        <time>2011-02-06T09:30:45Z</time>
      </trkpt>
      <trkpt lat="46.04407" lon="1.22627">
        <ele>426.482056</ele>
        <time>2011-02-06T09:30:52Z</time>
      </trkpt>
      <trkpt lat="46.04398" lon="1.22634">
        <ele>424.559448</ele>
        <time>2011-02-06T09:30:59Z</time>
      </trkpt>
      <trkpt lat="46.04392" lon="1.22639">
        <ele>424.559448</ele>
        <time>2011-02-06T09:31:04Z</time>
      </trkpt>
      <trkpt lat="46.04381" lon="1.22645">
        <ele>422.636719</ele>
        <time>2011-02-06T09:31:11Z</time>
      </trkpt>
      <trkpt lat="46.04372" lon="1.22653">
        <ele>423.598023</ele>
        <time>2011-02-06T09:31:18Z</time>
      </trkpt>
      <trkpt lat="46.04363" lon="1.22659">
        <ele>427.92395</ele>
        <time>2011-02-06T09:31:24Z</time>
      </trkpt>
      <trkpt lat="46.04358" lon="1.22661">
        <ele>428.404663</ele>
        <time>2011-02-06T09:31:26Z</time>
      </trkpt>
      <trkpt lat="46.04343" lon="1.2267">
        <ele>432.730713</ele>
        <time>2011-02-06T09:31:33Z</time>
      </trkpt>
      <trkpt lat="46.04334" lon="1.22676">
        <ele>434.172607</ele>
        <time>2011-02-06T09:31:38Z</time>
      </trkpt>
      <trkpt lat="46.04327" lon="1.22681">
        <ele>430.807983</ele>
        <time>2011-02-06T09:31:42Z</time>
      </trkpt>
      <trkpt lat="46.04317" lon="1.22691">
        <ele>425.520752</ele>
        <time>2011-02-06T09:31:48Z</time>
      </trkpt>
      <trkpt lat="46.04315" lon="1.22693">
        <ele>423.598023</ele>
        <time>2011-02-06T09:31:49Z</time>
      </trkpt>
      <trkpt lat="46.04309" lon="1.22699">
        <ele>419.272217</ele>
        <time>2011-02-06T09:31:53Z</time>
      </trkpt>
      <trkpt lat="46.04296" lon="1.22721">
        <ele>416.868897</ele>
        <time>2011-02-06T09:32:00Z</time>
      </trkpt>
      <trkpt lat="46.04298" lon="1.22742">
        <ele>423.117432</ele>
        <time>2011-02-06T09:32:05Z</time>
      </trkpt>
      <trkpt lat="46.04304" lon="1.22762">
        <ele>424.559448</ele>
        <time>2011-02-06T09:32:10Z</time>
      </trkpt>
      <trkpt lat="46.04302" lon="1.22789">
        <ele>428.885376</ele>
        <time>2011-02-06T09:32:14Z</time>
      </trkpt>
      <trkpt lat="46.04294" lon="1.22817">
        <ele>430.807983</ele>
        <time>2011-02-06T09:32:18Z</time>
      </trkpt>
      <trkpt lat="46.04274" lon="1.22849">
        <ele>429.365967</ele>
        <time>2011-02-06T09:32:25Z</time>
      </trkpt>
      <trkpt lat="46.04263" lon="1.22869">
        <ele>427.92395</ele>
        <time>2011-02-06T09:32:31Z</time>
      </trkpt>
      <trkpt lat="46.04252" lon="1.22896">
        <ele>430.32727</ele>
        <time>2011-02-06T09:32:38Z</time>
      </trkpt>
      <trkpt lat="46.04244" lon="1.22923">
        <ele>428.404663</ele>
        <time>2011-02-06T09:32:44Z</time>
      </trkpt>
      <trkpt lat="46.04243" lon="1.22953">
        <ele>428.885376</ele>
        <time>2011-02-06T09:32:50Z</time>
      </trkpt>
      <trkpt lat="46.04245" lon="1.22984">
        <ele>427.92395</ele>
        <time>2011-02-06T09:32:56Z</time>
      </trkpt>
      <trkpt lat="46.04238" lon="1.23013">
        <ele>426.482056</ele>
        <time>2011-02-06T09:33:01Z</time>
      </trkpt>
      <trkpt lat="46.04229" lon="1.23034">
        <ele>425.520752</ele>
        <time>2011-02-06T09:33:04Z</time>
      </trkpt>
      <trkpt lat="46.04226" lon="1.23066">
        <ele>421.675415</ele>
        <time>2011-02-06T09:33:08Z</time>
      </trkpt>
      <trkpt lat="46.04242" lon="1.23088">
        <ele>417.349609</ele>
        <time>2011-02-06T09:33:12Z</time>
      </trkpt>
      <trkpt lat="46.04261" lon="1.23123">
        <ele>413.02356</ele>
        <time>2011-02-06T09:33:16Z</time>
      </trkpt>
      <trkpt lat="46.04269" lon="1.23138">
        <ele>411.581665</ele>
        <time>2011-02-06T09:33:18Z</time>
      </trkpt>
      <trkpt lat="46.04298" lon="1.23168">
        <ele>408.697632</ele>
        <time>2011-02-06T09:33:24Z</time>
      </trkpt>
      <trkpt lat="46.0432" lon="1.2319">
        <ele>405.813721</ele>
        <time>2011-02-06T09:33:27Z</time>
      </trkpt>
      <trkpt lat="46.04334" lon="1.23229">
        <ele>401.487793</ele>
        <time>2011-02-06T09:33:31Z</time>
      </trkpt>
      <trkpt lat="46.04329" lon="1.23254">
        <ele>401.487793</ele>
        <time>2011-02-06T09:33:35Z</time>
      </trkpt>
      <trkpt lat="46.04328" lon="1.23262">
        <ele>401.00708</ele>
        <time>2011-02-06T09:33:36Z</time>
      </trkpt>
      <trkpt lat="46.04332" lon="1.23291">
        <ele>400.526489</ele>
        <time>2011-02-06T09:33:40Z</time>
      </trkpt>
      <trkpt lat="46.04335" lon="1.23321">
        <ele>401.487793</ele>
        <time>2011-02-06T09:33:45Z</time>
      </trkpt>
      <trkpt lat="46.04332" lon="1.23343">
        <ele>401.00708</ele>
        <time>2011-02-06T09:33:49Z</time>
      </trkpt>
      <trkpt lat="46.04329" lon="1.23367">
        <ele>401.00708</ele>
        <time>2011-02-06T09:33:53Z</time>
      </trkpt>
      <trkpt lat="46.04328" lon="1.23387">
        <ele>401.00708</ele>
        <time>2011-02-06T09:33:56Z</time>
      </trkpt>
      <trkpt lat="46.04322" lon="1.23414">
        <ele>403.891113</ele>
        <time>2011-02-06T09:34:01Z</time>
      </trkpt>
      <trkpt lat="46.04313" lon="1.23421">
        <ele>404.371704</ele>
        <time>2011-02-06T09:34:04Z</time>
      </trkpt>
      <trkpt lat="46.0429" lon="1.23428">
        <ele>406.294311</ele>
        <time>2011-02-06T09:34:11Z</time>
      </trkpt>
      <trkpt lat="46.04276" lon="1.23441">
        <ele>406.774902</ele>
        <time>2011-02-06T09:34:16Z</time>
      </trkpt>
      <trkpt lat="46.04262" lon="1.23452">
        <ele>405.813721</ele>
        <time>2011-02-06T09:34:21Z</time>
      </trkpt>
      <trkpt lat="46.04245" lon="1.23468">
        <ele>403.891113</ele>
        <time>2011-02-06T09:34:28Z</time>
      </trkpt>
      <trkpt lat="46.04229" lon="1.23486">
        <ele>403.4104</ele>
        <time>2011-02-06T09:34:34Z</time>
      </trkpt>
      <trkpt lat="46.04218" lon="1.23501">
        <ele>405.333008</ele>
        <time>2011-02-06T09:34:38Z</time>
      </trkpt>
      <trkpt lat="46.04202" lon="1.23526">
        <ele>402.929688</ele>
        <time>2011-02-06T09:34:44Z</time>
      </trkpt>
      <trkpt lat="46.04188" lon="1.23532">
        <ele>403.891113</ele>
        <time>2011-02-06T09:34:48Z</time>
      </trkpt>
      <trkpt lat="46.0417" lon="1.23535">
        <ele>406.294311</ele>
        <time>2011-02-06T09:34:53Z</time>
      </trkpt>
      <trkpt lat="46.0416" lon="1.23552">
        <ele>407.736328</ele>
        <time>2011-02-06T09:34:58Z</time>
      </trkpt>
      <trkpt lat="46.04162" lon="1.23576">
        <ele>408.697632</ele>
        <time>2011-02-06T09:35:01Z</time>
      </trkpt>
      <trkpt lat="46.04163" lon="1.23595">
        <ele>408.697632</ele>
        <time>2011-02-06T09:35:03Z</time>
      </trkpt>
      <trkpt lat="46.0416" lon="1.23621">
        <ele>407.255615</ele>
        <time>2011-02-06T09:35:06Z</time>
      </trkpt>
      <trkpt lat="46.04162" lon="1.23665">
        <ele>405.333008</ele>
        <time>2011-02-06T09:35:13Z</time>
      </trkpt>
      <trkpt lat="46.04162" lon="1.23679">
        <ele>404.852295</ele>
        <time>2011-02-06T09:35:16Z</time>
      </trkpt>
      <trkpt lat="46.04161" lon="1.23708">
        <ele>406.294311</ele>
        <time>2011-02-06T09:35:23Z</time>
      </trkpt>
      <trkpt lat="46.04162" lon="1.23735">
        <ele>408.217041</ele>
        <time>2011-02-06T09:35:29Z</time>
      </trkpt>
      <trkpt lat="46.04162" lon="1.23756">
        <ele>405.813721</ele>
        <time>2011-02-06T09:35:34Z</time>
      </trkpt>
      <trkpt lat="46.04148" lon="1.23779">
        <ele>403.891113</ele>
        <time>2011-02-06T09:35:40Z</time>
      </trkpt>
      <trkpt lat="46.04132" lon="1.23797">
        <ele>403.891113</ele>
        <time>2011-02-06T09:35:46Z</time>
      </trkpt>
      <trkpt lat="46.04123" lon="1.23805">
        <ele>403.891113</ele>
        <time>2011-02-06T09:35:50Z</time>
      </trkpt>
      <trkpt lat="46.04109" lon="1.23823">
        <ele>404.371704</ele>
        <time>2011-02-06T09:35:56Z</time>
      </trkpt>
      <trkpt lat="46.04096" lon="1.2384">
        <ele>401.487793</ele>
        <time>2011-02-06T09:36:02Z</time>
      </trkpt>
      <trkpt lat="46.04088" lon="1.23861">
        <ele>403.4104</ele>
        <time>2011-02-06T09:36:07Z</time>
      </trkpt>
      <trkpt lat="46.04091" lon="1.23891">
        <ele>405.333008</ele>
        <time>2011-02-06T09:36:14Z</time>
      </trkpt>
      <trkpt lat="46.04095" lon="1.23916">
        <ele>406.294311</ele>
        <time>2011-02-06T09:36:21Z</time>
      </trkpt>
      <trkpt lat="46.04098" lon="1.23938">
        <ele>407.255615</ele>
        <time>2011-02-06T09:36:28Z</time>
      </trkpt>
      <trkpt lat="46.041" lon="1.23956">
        <ele>408.217041</ele>
        <time>2011-02-06T09:36:34Z</time>
      </trkpt>
      <trkpt lat="46.041" lon="1.23966">
        <ele>409.659058</ele>
        <time>2011-02-06T09:36:38Z</time>
      </trkpt>
      <trkpt lat="46.041" lon="1.23967">
        <ele>409.659058</ele>
        <time>2011-02-06T09:36:41Z</time>
      </trkpt>
      <trkpt lat="46.04103" lon="1.23958">
        <ele>388.990601</ele>
        <time>2011-02-06T09:40:34Z</time>
      </trkpt>
      <trkpt lat="46.04103" lon="1.23958">
        <ele>388.990601</ele>
        <time>2011-02-06T09:40:35Z</time>
      </trkpt>
      <trkpt lat="46.04103" lon="1.23958">
        <ele>388.990601</ele>
        <time>2011-02-06T09:40:36Z</time>
      </trkpt>
      <trkpt lat="46.04101" lon="1.23954">
        <ele>382.261352</ele>
        <time>2011-02-06T09:41:42Z</time>
      </trkpt>
      <trkpt lat="46.04101" lon="1.23954">
        <ele>381.78064</ele>
        <time>2011-02-06T09:41:43Z</time>
      </trkpt>
      <trkpt lat="46.04105" lon="1.23973">
        <ele>406.774902</ele>
        <time>2011-02-06T09:42:42Z</time>
      </trkpt>
      <trkpt lat="46.04105" lon="1.23989">
        <ele>407.736328</ele>
        <time>2011-02-06T09:42:47Z</time>
      </trkpt>
      <trkpt lat="46.04108" lon="1.24009">
        <ele>407.255615</ele>
        <time>2011-02-06T09:42:52Z</time>
      </trkpt>
      <trkpt lat="46.04115" lon="1.24038">
        <ele>408.217041</ele>
        <time>2011-02-06T09:42:59Z</time>
      </trkpt>
      <trkpt lat="46.04126" lon="1.24083">
        <ele>407.255615</ele>
        <time>2011-02-06T09:43:09Z</time>
      </trkpt>
      <trkpt lat="46.04133" lon="1.24114">
        <ele>407.736328</ele>
        <time>2011-02-06T09:43:16Z</time>
      </trkpt>
      <trkpt lat="46.04143" lon="1.24147">
        <ele>407.736328</ele>
        <time>2011-02-06T09:43:23Z</time>
      </trkpt>
      <trkpt lat="46.04147" lon="1.24165">
        <ele>407.255615</ele>
        <time>2011-02-06T09:43:27Z</time>
      </trkpt>
      <trkpt lat="46.04145" lon="1.24172">
        <ele>405.333008</ele>
        <time>2011-02-06T09:43:29Z</time>
      </trkpt>
      <trkpt lat="46.04131" lon="1.24185">
        <ele>402.929688</ele>
        <time>2011-02-06T09:43:34Z</time>
      </trkpt>
      <trkpt lat="46.04112" lon="1.24208">
        <ele>403.891113</ele>
        <time>2011-02-06T09:43:40Z</time>
      </trkpt>
      <trkpt lat="46.04101" lon="1.24222">
        <ele>403.891113</ele>
        <time>2011-02-06T09:43:45Z</time>
      </trkpt>
      <trkpt lat="46.04089" lon="1.24235">
        <ele>401.487793</ele>
        <time>2011-02-06T09:43:49Z</time>
      </trkpt>
      <trkpt lat="46.04075" lon="1.24253">
        <ele>399.565064</ele>
        <time>2011-02-06T09:43:54Z</time>
      </trkpt>
      <trkpt lat="46.0406" lon="1.24274">
        <ele>399.565064</ele>
        <time>2011-02-06T09:43:59Z</time>
      </trkpt>
      <trkpt lat="46.04044" lon="1.24303">
        <ele>401.487793</ele>
        <time>2011-02-06T09:44:05Z</time>
      </trkpt>
      <trkpt lat="46.04036" lon="1.24321">
        <ele>403.4104</ele>
        <time>2011-02-06T09:44:10Z</time>
      </trkpt>
      <trkpt lat="46.04029" lon="1.24335">
        <ele>403.4104</ele>
        <time>2011-02-06T09:44:15Z</time>
      </trkpt>
      <trkpt lat="46.04017" lon="1.24358">
        <ele>409.659058</ele>
        <time>2011-02-06T09:44:21Z</time>
      </trkpt>
      <trkpt lat="46.04004" lon="1.24376">
        <ele>408.697632</ele>
        <time>2011-02-06T09:44:26Z</time>
      </trkpt>
      <trkpt lat="46.03992" lon="1.24389">
        <ele>407.255615</ele>
        <time>2011-02-06T09:44:30Z</time>
      </trkpt>
      <trkpt lat="46.03986" lon="1.24395">
        <ele>406.294311</ele>
        <time>2011-02-06T09:44:32Z</time>
      </trkpt>
      <trkpt lat="46.03973" lon="1.24399">
        <ele>410.620239</ele>
        <time>2011-02-06T09:44:36Z</time>
      </trkpt>
      <trkpt lat="46.03966" lon="1.24405">
        <ele>410.139648</ele>
        <time>2011-02-06T09:44:38Z</time>
      </trkpt>
      <trkpt lat="46.03944" lon="1.24432">
        <ele>409.178345</ele>
        <time>2011-02-06T09:44:45Z</time>
      </trkpt>
      <trkpt lat="46.03929" lon="1.24453">
        <ele>409.178345</ele>
        <time>2011-02-06T09:44:51Z</time>
      </trkpt>
      <trkpt lat="46.03912" lon="1.24476">
        <ele>407.255615</ele>
        <time>2011-02-06T09:44:58Z</time>
      </trkpt>
      <trkpt lat="46.03889" lon="1.24501">
        <ele>407.255615</ele>
        <time>2011-02-06T09:45:07Z</time>
      </trkpt>
      <trkpt lat="46.03866" lon="1.24516">
        <ele>405.813721</ele>
        <time>2011-02-06T09:45:15Z</time>
      </trkpt>
      <trkpt lat="46.03843" lon="1.24529">
        <ele>406.774902</ele>
        <time>2011-02-06T09:45:22Z</time>
      </trkpt>
      <trkpt lat="46.03812" lon="1.24542">
        <ele>405.813721</ele>
        <time>2011-02-06T09:45:31Z</time>
      </trkpt>
      <trkpt lat="46.03794" lon="1.2455">
        <ele>405.813721</ele>
        <time>2011-02-06T09:45:37Z</time>
      </trkpt>
      <trkpt lat="46.03782" lon="1.24557">
        <ele>408.697632</ele>
        <time>2011-02-06T09:45:42Z</time>
      </trkpt>
      <trkpt lat="46.03766" lon="1.24567">
        <ele>409.178345</ele>
        <time>2011-02-06T09:45:48Z</time>
      </trkpt>
      <trkpt lat="46.03759" lon="1.24568">
        <ele>410.620239</ele>
        <time>2011-02-06T09:45:51Z</time>
      </trkpt>
      <trkpt lat="46.03747" lon="1.24575">
        <ele>415.42688</ele>
        <time>2011-02-06T09:45:57Z</time>
      </trkpt>
      <trkpt lat="46.03737" lon="1.24585">
        <ele>415.907471</ele>
        <time>2011-02-06T09:46:03Z</time>
      </trkpt>
      <trkpt lat="46.03725" lon="1.24596">
        <ele>414.946167</ele>
        <time>2011-02-06T09:46:10Z</time>
      </trkpt>
      <trkpt lat="46.03715" lon="1.24607">
        <ele>417.8302</ele>
        <time>2011-02-06T09:46:16Z</time>
      </trkpt>
      <trkpt lat="46.03701" lon="1.2462">
        <ele>416.868897</ele>
        <time>2011-02-06T09:46:23Z</time>
      </trkpt>
      <trkpt lat="46.0369" lon="1.24632">
        <ele>418.310791</ele>
        <time>2011-02-06T09:46:29Z</time>
      </trkpt>
      <trkpt lat="46.03677" lon="1.24643">
        <ele>419.272217</ele>
        <time>2011-02-06T09:46:35Z</time>
      </trkpt>
      <trkpt lat="46.0366" lon="1.24665">
        <ele>427.92395</ele>
        <time>2011-02-06T09:46:44Z</time>
      </trkpt>
      <trkpt lat="46.03651" lon="1.24679">
        <ele>427.443359</ele>
        <time>2011-02-06T09:46:50Z</time>
      </trkpt>
      <trkpt lat="46.03632" lon="1.24699">
        <ele>426.001343</ele>
        <time>2011-02-06T09:46:57Z</time>
      </trkpt>
      <trkpt lat="46.03608" lon="1.24724">
        <ele>422.156006</ele>
        <time>2011-02-06T09:47:05Z</time>
      </trkpt>
      <trkpt lat="46.03592" lon="1.24739">
        <ele>420.714111</ele>
        <time>2011-02-06T09:47:09Z</time>
      </trkpt>
      <trkpt lat="46.03582" lon="1.24755">
        <ele>420.714111</ele>
        <time>2011-02-06T09:47:12Z</time>
      </trkpt>
      <trkpt lat="46.03559" lon="1.24788">
        <ele>416.388184</ele>
        <time>2011-02-06T09:47:19Z</time>
      </trkpt>
      <trkpt lat="46.03535" lon="1.24812">
        <ele>412.542847</ele>
        <time>2011-02-06T09:47:25Z</time>
      </trkpt>
      <trkpt lat="46.03499" lon="1.24841">
        <ele>410.620239</ele>
        <time>2011-02-06T09:47:33Z</time>
      </trkpt>
      <trkpt lat="46.03493" lon="1.24848">
        <ele>410.620239</ele>
        <time>2011-02-06T09:47:35Z</time>
      </trkpt>
      <trkpt lat="46.0348" lon="1.24858">
        <ele>411.100952</ele>
        <time>2011-02-06T09:47:39Z</time>
      </trkpt>
      <trkpt lat="46.03459" lon="1.24877">
        <ele>412.062256</ele>
        <time>2011-02-06T09:47:46Z</time>
      </trkpt>
      <trkpt lat="46.03447" lon="1.24893">
        <ele>418.310791</ele>
        <time>2011-02-06T09:47:50Z</time>
      </trkpt>
      <trkpt lat="46.03436" lon="1.24912">
        <ele>423.117432</ele>
        <time>2011-02-06T09:47:55Z</time>
      </trkpt>
      <trkpt lat="46.03427" lon="1.2493">
        <ele>427.92395</ele>
        <time>2011-02-06T09:48:00Z</time>
      </trkpt>
      <trkpt lat="46.03415" lon="1.24953">
        <ele>426.962769</ele>
        <time>2011-02-06T09:48:06Z</time>
      </trkpt>
      <trkpt lat="46.03403" lon="1.24978">
        <ele>423.117432</ele>
        <time>2011-02-06T09:48:11Z</time>
      </trkpt>
      <trkpt lat="46.03396" lon="1.25">
        <ele>422.636719</ele>
        <time>2011-02-06T09:48:15Z</time>
      </trkpt>
      <trkpt lat="46.03392" lon="1.25031">
        <ele>421.194824</ele>
        <time>2011-02-06T09:48:20Z</time>
      </trkpt>
      <trkpt lat="46.03391" lon="1.25048">
        <ele>421.194824</ele>
        <time>2011-02-06T09:48:23Z</time>
      </trkpt>
      <trkpt lat="46.03388" lon="1.25058">
        <ele>419.752808</ele>
        <time>2011-02-06T09:48:25Z</time>
      </trkpt>
      <trkpt lat="46.03382" lon="1.25079">
        <ele>419.752808</ele>
        <time>2011-02-06T09:48:29Z</time>
      </trkpt>
      <trkpt lat="46.03368" lon="1.25099">
        <ele>416.388184</ele>
        <time>2011-02-06T09:48:33Z</time>
      </trkpt>
      <trkpt lat="46.03343" lon="1.25113">
        <ele>414.946167</ele>
        <time>2011-02-06T09:48:38Z</time>
      </trkpt>
      <trkpt lat="46.03334" lon="1.25118">
        <ele>414.465454</ele>
        <time>2011-02-06T09:48:40Z</time>
      </trkpt>
      <trkpt lat="46.03318" lon="1.25139">
        <ele>414.946167</ele>
        <time>2011-02-06T09:48:45Z</time>
      </trkpt>
      <trkpt lat="46.03317" lon="1.25153">
        <ele>413.984863</ele>
        <time>2011-02-06T09:48:48Z</time>
      </trkpt>
      <trkpt lat="46.03322" lon="1.25196">
        <ele>411.100952</ele>
        <time>2011-02-06T09:48:55Z</time>
      </trkpt>
      <trkpt lat="46.03328" lon="1.25225">
        <ele>412.062256</ele>
        <time>2011-02-06T09:49:00Z</time>
      </trkpt>
      <trkpt lat="46.0333" lon="1.25238">
        <ele>410.139648</ele>
        <time>2011-02-06T09:49:02Z</time>
      </trkpt>
      <trkpt lat="46.03325" lon="1.25261">
        <ele>408.697632</ele>
        <time>2011-02-06T09:49:07Z</time>
      </trkpt>
      <trkpt lat="46.03315" lon="1.25287">
        <ele>403.4104</ele>
        <time>2011-02-06T09:49:13Z</time>
      </trkpt>
      <trkpt lat="46.03302" lon="1.25305">
        <ele>401.487793</ele>
        <time>2011-02-06T09:49:19Z</time>
      </trkpt>
      <trkpt lat="46.03292" lon="1.2531">
        <ele>400.045898</ele>
        <time>2011-02-06T09:49:23Z</time>
      </trkpt>
      <trkpt lat="46.03268" lon="1.25317">
        <ele>404.371704</ele>
        <time>2011-02-06T09:49:30Z</time>
      </trkpt>
      <trkpt lat="46.03246" lon="1.25331">
        <ele>406.294311</ele>
        <time>2011-02-06T09:49:36Z</time>
      </trkpt>
      <trkpt lat="46.03242" lon="1.25335">
        <ele>405.813721</ele>
        <time>2011-02-06T09:49:37Z</time>
      </trkpt>
      <trkpt lat="46.03228" lon="1.25359">
        <ele>407.736328</ele>
        <time>2011-02-06T09:49:41Z</time>
      </trkpt>
      <trkpt lat="46.03209" lon="1.25377">
        <ele>408.217041</ele>
        <time>2011-02-06T09:49:45Z</time>
      </trkpt>
      <trkpt lat="46.03193" lon="1.25385">
        <ele>408.217041</ele>
        <time>2011-02-06T09:49:48Z</time>
      </trkpt>
      <trkpt lat="46.03173" lon="1.2541">
        <ele>407.255615</ele>
        <time>2011-02-06T09:49:53Z</time>
      </trkpt>
      <trkpt lat="46.03166" lon="1.25433">
        <ele>408.217041</ele>
        <time>2011-02-06T09:49:58Z</time>
      </trkpt>
      <trkpt lat="46.03157" lon="1.25461">
        <ele>413.984863</ele>
        <time>2011-02-06T09:50:06Z</time>
      </trkpt>
      <trkpt lat="46.0315" lon="1.25483">
        <ele>419.752808</ele>
        <time>2011-02-06T09:50:12Z</time>
      </trkpt>
      <trkpt lat="46.03144" lon="1.25504">
        <ele>428.885376</ele>
        <time>2011-02-06T09:50:18Z</time>
      </trkpt>
      <trkpt lat="46.03141" lon="1.25529">
        <ele>435.133911</ele>
        <time>2011-02-06T09:50:25Z</time>
      </trkpt>
      <trkpt lat="46.0314" lon="1.25552">
        <ele>438.498535</ele>
        <time>2011-02-06T09:50:32Z</time>
      </trkpt>
      <trkpt lat="46.0314" lon="1.25572">
        <ele>441.382446</ele>
        <time>2011-02-06T09:50:38Z</time>
      </trkpt>
      <trkpt lat="46.03138" lon="1.25597">
        <ele>444.74707</ele>
        <time>2011-02-06T09:50:44Z</time>
      </trkpt>
      <trkpt lat="46.03137" lon="1.25616">
        <ele>447.630981</ele>
        <time>2011-02-06T09:50:49Z</time>
      </trkpt>
      <trkpt lat="46.03136" lon="1.25634">
        <ele>448.592407</ele>
        <time>2011-02-06T09:50:54Z</time>
      </trkpt>
      <trkpt lat="46.03135" lon="1.25649">
        <ele>449.072998</ele>
        <time>2011-02-06T09:50:58Z</time>
      </trkpt>
      <trkpt lat="46.03133" lon="1.25672">
        <ele>448.592407</ele>
        <time>2011-02-06T09:51:03Z</time>
      </trkpt>
      <trkpt lat="46.03134" lon="1.25701">
        <ele>442.343872</ele>
        <time>2011-02-06T09:51:07Z</time>
      </trkpt>
      <trkpt lat="46.03134" lon="1.25743">
        <ele>435.614502</ele>
        <time>2011-02-06T09:51:12Z</time>
      </trkpt>
      <trkpt lat="46.03136" lon="1.25785">
        <ele>433.211304</ele>
        <time>2011-02-06T09:51:18Z</time>
      </trkpt>
      <trkpt lat="46.03129" lon="1.258">
        <ele>430.807983</ele>
        <time>2011-02-06T09:51:22Z</time>
      </trkpt>
      <trkpt lat="46.03114" lon="1.25815">
        <ele>428.404663</ele>
        <time>2011-02-06T09:51:28Z</time>
      </trkpt>
      <trkpt lat="46.03089" lon="1.25835">
        <ele>426.962769</ele>
        <time>2011-02-06T09:51:36Z</time>
      </trkpt>
      <trkpt lat="46.03071" lon="1.25836">
        <ele>426.962769</ele>
        <time>2011-02-06T09:51:41Z</time>
      </trkpt>
      <trkpt lat="46.03051" lon="1.25827">
        <ele>426.001343</ele>
        <time>2011-02-06T09:51:48Z</time>
      </trkpt>
      <trkpt lat="46.0304" lon="1.25819">
        <ele>424.559448</ele>
        <time>2011-02-06T09:51:53Z</time>
      </trkpt>
      <trkpt lat="46.03032" lon="1.2581">
        <ele>423.117432</ele>
        <time>2011-02-06T09:51:58Z</time>
      </trkpt>
      <trkpt lat="46.03013" lon="1.25803">
        <ele>425.040161</ele>
        <time>2011-02-06T09:52:04Z</time>
      </trkpt>
      <trkpt lat="46.02998" lon="1.25796">
        <ele>425.040161</ele>
        <time>2011-02-06T09:52:08Z</time>
      </trkpt>
      <trkpt lat="46.02969" lon="1.25785">
        <ele>426.962769</ele>
        <time>2011-02-06T09:52:16Z</time>
      </trkpt>
      <trkpt lat="46.02936" lon="1.25777">
        <ele>430.807983</ele>
        <time>2011-02-06T09:52:25Z</time>
      </trkpt>
      <trkpt lat="46.02916" lon="1.25771">
        <ele>430.32727</ele>
        <time>2011-02-06T09:52:31Z</time>
      </trkpt>
      <trkpt lat="46.02894" lon="1.25764">
        <ele>430.807983</ele>
        <time>2011-02-06T09:52:36Z</time>
      </trkpt>
      <trkpt lat="46.02854" lon="1.25748">
        <ele>431.769165</ele>
        <time>2011-02-06T09:52:44Z</time>
      </trkpt>
      <trkpt lat="46.02826" lon="1.25735">
        <ele>433.211304</ele>
        <time>2011-02-06T09:52:50Z</time>
      </trkpt>
      <trkpt lat="46.02796" lon="1.25722">
        <ele>435.614502</ele>
        <time>2011-02-06T09:52:57Z</time>
      </trkpt>
      <trkpt lat="46.02769" lon="1.25717">
        <ele>438.498535</ele>
        <time>2011-02-06T09:53:04Z</time>
      </trkpt>
      <trkpt lat="46.02746" lon="1.25713">
        <ele>440.901856</ele>
        <time>2011-02-06T09:53:11Z</time>
      </trkpt>
      <trkpt lat="46.02732" lon="1.2571">
        <ele>441.863159</ele>
        <time>2011-02-06T09:53:16Z</time>
      </trkpt>
      <trkpt lat="46.02712" lon="1.25709">
        <ele>441.863159</ele>
        <time>2011-02-06T09:53:23Z</time>
      </trkpt>
      <trkpt lat="46.02698" lon="1.25711">
        <ele>439.94043</ele>
        <time>2011-02-06T09:53:28Z</time>
      </trkpt>
      <trkpt lat="46.02684" lon="1.25714">
        <ele>442.343872</ele>
        <time>2011-02-06T09:53:33Z</time>
      </trkpt>
      <trkpt lat="46.02664" lon="1.2572">
        <ele>446.189087</ele>
        <time>2011-02-06T09:53:39Z</time>
      </trkpt>
      <trkpt lat="46.02645" lon="1.2573">
        <ele>442.343872</ele>
        <time>2011-02-06T09:53:44Z</time>
      </trkpt>
      <trkpt lat="46.02627" lon="1.2574">
        <ele>438.979126</ele>
        <time>2011-02-06T09:53:49Z</time>
      </trkpt>
      <trkpt lat="46.02615" lon="1.25748">
        <ele>437.056519</ele>
        <time>2011-02-06T09:53:53Z</time>
      </trkpt>
      <trkpt lat="46.02598" lon="1.25762">
        <ele>436.095215</ele>
        <time>2011-02-06T09:53:59Z</time>
      </trkpt>
      <trkpt lat="46.02586" lon="1.25771">
        <ele>436.095215</ele>
        <time>2011-02-06T09:54:03Z</time>
      </trkpt>
      <trkpt lat="46.02569" lon="1.25775">
        <ele>435.614502</ele>
        <time>2011-02-06T09:54:07Z</time>
      </trkpt>
      <trkpt lat="46.02547" lon="1.25771">
        <ele>436.095215</ele>
        <time>2011-02-06T09:54:11Z</time>
      </trkpt>
      <trkpt lat="46.02532" lon="1.25764">
        <ele>434.65332</ele>
        <time>2011-02-06T09:54:14Z</time>
      </trkpt>
      <trkpt lat="46.02522" lon="1.25762">
        <ele>434.65332</ele>
        <time>2011-02-06T09:54:16Z</time>
      </trkpt>
      <trkpt lat="46.02495" lon="1.25748">
        <ele>434.65332</ele>
        <time>2011-02-06T09:54:22Z</time>
      </trkpt>
      <trkpt lat="46.02476" lon="1.25745">
        <ele>435.614502</ele>
        <time>2011-02-06T09:54:26Z</time>
      </trkpt>
      <trkpt lat="46.02457" lon="1.25749">
        <ele>436.095215</ele>
        <time>2011-02-06T09:54:30Z</time>
      </trkpt>
      <trkpt lat="46.02437" lon="1.25746">
        <ele>436.095215</ele>
        <time>2011-02-06T09:54:34Z</time>
      </trkpt>
      <trkpt lat="46.02401" lon="1.25727">
        <ele>434.65332</ele>
        <time>2011-02-06T09:54:41Z</time>
      </trkpt>
      <trkpt lat="46.02382" lon="1.2571">
        <ele>431.769165</ele>
        <time>2011-02-06T09:54:45Z</time>
      </trkpt>
      <trkpt lat="46.02351" lon="1.25673">
        <ele>426.001343</ele>
        <time>2011-02-06T09:54:52Z</time>
      </trkpt>
      <trkpt lat="46.02323" lon="1.25647">
        <ele>424.559448</ele>
        <time>2011-02-06T09:54:58Z</time>
      </trkpt>
      <trkpt lat="46.02293" lon="1.2563">
        <ele>427.443359</ele>
        <time>2011-02-06T09:55:04Z</time>
      </trkpt>
      <trkpt lat="46.02278" lon="1.25622">
        <ele>429.846558</ele>
        <time>2011-02-06T09:55:07Z</time>
      </trkpt>
      <trkpt lat="46.02251" lon="1.25597">
        <ele>427.92395</ele>
        <time>2011-02-06T09:55:13Z</time>
      </trkpt>
      <trkpt lat="46.02246" lon="1.25592">
        <ele>426.962769</ele>
        <time>2011-02-06T09:55:14Z</time>
      </trkpt>
      <trkpt lat="46.02237" lon="1.25584">
        <ele>426.001343</ele>
        <time>2011-02-06T09:55:16Z</time>
      </trkpt>
      <trkpt lat="46.02214" lon="1.25582">
        <ele>432.730713</ele>
        <time>2011-02-06T09:55:20Z</time>
      </trkpt>
      <trkpt lat="46.02208" lon="1.25587">
        <ele>433.211304</ele>
        <time>2011-02-06T09:55:21Z</time>
      </trkpt>
      <trkpt lat="46.02167" lon="1.25618">
        <ele>434.172607</ele>
        <time>2011-02-06T09:55:28Z</time>
      </trkpt>
      <trkpt lat="46.02149" lon="1.25627">
        <ele>433.211304</ele>
        <time>2011-02-06T09:55:31Z</time>
      </trkpt>
      <trkpt lat="46.02109" lon="1.25641">
        <ele>431.769165</ele>
        <time>2011-02-06T09:55:37Z</time>
      </trkpt>
      <trkpt lat="46.02087" lon="1.25666">
        <ele>430.32727</ele>
        <time>2011-02-06T09:55:41Z</time>
      </trkpt>
      <trkpt lat="46.02083" lon="1.25683">
        <ele>429.365967</ele>
        <time>2011-02-06T09:55:43Z</time>
      </trkpt>
      <trkpt lat="46.02086" lon="1.25723">
        <ele>425.040161</ele>
        <time>2011-02-06T09:55:48Z</time>
      </trkpt>
      <trkpt lat="46.021" lon="1.25737">
        <ele>422.156006</ele>
        <time>2011-02-06T09:55:51Z</time>
      </trkpt>
      <trkpt lat="46.02107" lon="1.2575">
        <ele>419.272217</ele>
        <time>2011-02-06T09:55:54Z</time>
      </trkpt>
      <trkpt lat="46.02101" lon="1.25765">
        <ele>417.349609</ele>
        <time>2011-02-06T09:55:57Z</time>
      </trkpt>
      <trkpt lat="46.02097" lon="1.25766">
        <ele>417.349609</ele>
        <time>2011-02-06T09:55:58Z</time>
      </trkpt>
      <trkpt lat="46.0207" lon="1.25767">
        <ele>416.388184</ele>
        <time>2011-02-06T09:56:03Z</time>
      </trkpt>
      <trkpt lat="46.02045" lon="1.25756">
        <ele>415.907471</ele>
        <time>2011-02-06T09:56:09Z</time>
      </trkpt>
      <trkpt lat="46.02029" lon="1.25743">
        <ele>414.465454</ele>
        <time>2011-02-06T09:56:13Z</time>
      </trkpt>
      <trkpt lat="46.02002" lon="1.25718">
        <ele>405.813721</ele>
        <time>2011-02-06T09:56:19Z</time>
      </trkpt>
      <trkpt lat="46.01979" lon="1.25713">
        <ele>405.813721</ele>
        <time>2011-02-06T09:56:24Z</time>
      </trkpt>
      <trkpt lat="46.01957" lon="1.25714">
        <ele>406.294311</ele>
        <time>2011-02-06T09:56:29Z</time>
      </trkpt>
      <trkpt lat="46.01953" lon="1.25714">
        <ele>406.294311</ele>
        <time>2011-02-06T09:56:30Z</time>
      </trkpt>
      <trkpt lat="46.0193" lon="1.25716">
        <ele>405.813721</ele>
        <time>2011-02-06T09:56:35Z</time>
      </trkpt>
      <trkpt lat="46.01906" lon="1.25718">
        <ele>404.852295</ele>
        <time>2011-02-06T09:56:39Z</time>
      </trkpt>
      <trkpt lat="46.01891" lon="1.25705">
        <ele>403.4104</ele>
        <time>2011-02-06T09:56:43Z</time>
      </trkpt>
      <trkpt lat="46.01893" lon="1.25695">
        <ele>403.4104</ele>
        <time>2011-02-06T09:56:45Z</time>
      </trkpt>
      <trkpt lat="46.01904" lon="1.25638">
        <ele>403.891113</ele>
        <time>2011-02-06T09:56:54Z</time>
      </trkpt>
      <trkpt lat="46.01906" lon="1.25631">
        <ele>404.371704</ele>
        <time>2011-02-06T09:56:55Z</time>
      </trkpt>
      <trkpt lat="46.01908" lon="1.25592">
        <ele>403.4104</ele>
        <time>2011-02-06T09:57:00Z</time>
      </trkpt>
      <trkpt lat="46.0191" lon="1.25574">
        <ele>402.449097</ele>
        <time>2011-02-06T09:57:02Z</time>
      </trkpt>
      <trkpt lat="46.01915" lon="1.25538">
        <ele>401.487793</ele>
        <time>2011-02-06T09:57:06Z</time>
      </trkpt>
      <trkpt lat="46.01905" lon="1.25507">
        <ele>400.045898</ele>
        <time>2011-02-06T09:57:10Z</time>
      </trkpt>
      <trkpt lat="46.01885" lon="1.25491">
        <ele>399.565064</ele>
        <time>2011-02-06T09:57:13Z</time>
      </trkpt>
      <trkpt lat="46.01864" lon="1.25475">
        <ele>397.642456</ele>
        <time>2011-02-06T09:57:16Z</time>
      </trkpt>
      <trkpt lat="46.01829" lon="1.25441">
        <ele>392.355347</ele>
        <time>2011-02-06T09:57:22Z</time>
      </trkpt>
      <trkpt lat="46.01824" lon="1.25436">
        <ele>391.874512</ele>
        <time>2011-02-06T09:57:23Z</time>
      </trkpt>
      <trkpt lat="46.01813" lon="1.25413">
        <ele>391.393799</ele>
        <time>2011-02-06T09:57:27Z</time>
      </trkpt>
      <trkpt lat="46.01811" lon="1.25386">
        <ele>391.874512</ele>
        <time>2011-02-06T09:57:31Z</time>
      </trkpt>
      <trkpt lat="46.018" lon="1.25369">
        <ele>394.758545</ele>
        <time>2011-02-06T09:57:35Z</time>
      </trkpt>
      <trkpt lat="46.01792" lon="1.25366">
        <ele>396.200561</ele>
        <time>2011-02-06T09:57:37Z</time>
      </trkpt>
      <trkpt lat="46.01777" lon="1.25364">
        <ele>397.642456</ele>
        <time>2011-02-06T09:57:40Z</time>
      </trkpt>
      <trkpt lat="46.0175" lon="1.25369">
        <ele>392.835938</ele>
        <time>2011-02-06T09:57:45Z</time>
      </trkpt>
      <trkpt lat="46.0172" lon="1.2538">
        <ele>392.835938</ele>
        <time>2011-02-06T09:57:50Z</time>
      </trkpt>
      <trkpt lat="46.01688" lon="1.25388">
        <ele>393.316528</ele>
        <time>2011-02-06T09:57:55Z</time>
      </trkpt>
      <trkpt lat="46.01668" lon="1.25376">
        <ele>391.874512</ele>
        <time>2011-02-06T09:57:59Z</time>
      </trkpt>
      <trkpt lat="46.01656" lon="1.25359">
        <ele>385.625977</ele>
        <time>2011-02-06T09:58:01Z</time>
      </trkpt>
      <trkpt lat="46.01632" lon="1.25325">
        <ele>379.377441</ele>
        <time>2011-02-06T09:58:06Z</time>
      </trkpt>
      <trkpt lat="46.01619" lon="1.25305">
        <ele>377.935425</ele>
        <time>2011-02-06T09:58:09Z</time>
      </trkpt>
      <trkpt lat="46.01603" lon="1.25273">
        <ele>377.454834</ele>
        <time>2011-02-06T09:58:13Z</time>
      </trkpt>
      <trkpt lat="46.01597" lon="1.25247">
        <ele>376.49353</ele>
        <time>2011-02-06T09:58:16Z</time>
      </trkpt>
      <trkpt lat="46.01594" lon="1.25222">
        <ele>375.051514</ele>
        <time>2011-02-06T09:58:19Z</time>
      </trkpt>
      <trkpt lat="46.01598" lon="1.25189">
        <ele>373.609497</ele>
        <time>2011-02-06T09:58:23Z</time>
      </trkpt>
      <trkpt lat="46.01603" lon="1.25156">
        <ele>373.128906</ele>
        <time>2011-02-06T09:58:27Z</time>
      </trkpt>
      <trkpt lat="46.016" lon="1.25126">
        <ele>373.609497</ele>
        <time>2011-02-06T09:58:31Z</time>
      </trkpt>
      <trkpt lat="46.01594" lon="1.25099">
        <ele>373.128906</ele>
        <time>2011-02-06T09:58:35Z</time>
      </trkpt>
      <trkpt lat="46.01586" lon="1.25063">
        <ele>374.090088</ele>
        <time>2011-02-06T09:58:41Z</time>
      </trkpt>
      <trkpt lat="46.01578" lon="1.25048">
        <ele>375.051514</ele>
        <time>2011-02-06T09:58:45Z</time>
      </trkpt>
      <trkpt lat="46.01573" lon="1.25049">
        <ele>373.609497</ele>
        <time>2011-02-06T09:58:47Z</time>
      </trkpt>
      <trkpt lat="46.01552" lon="1.25056">
        <ele>374.090088</ele>
        <time>2011-02-06T09:58:53Z</time>
      </trkpt>
      <trkpt lat="46.01535" lon="1.25053">
        <ele>375.532105</ele>
        <time>2011-02-06T09:58:58Z</time>
      </trkpt>
      <trkpt lat="46.01519" lon="1.25042">
        <ele>372.167481</ele>
        <time>2011-02-06T09:59:03Z</time>
      </trkpt>
      <trkpt lat="46.01494" lon="1.25027">
        <ele>372.648193</ele>
        <time>2011-02-06T09:59:10Z</time>
      </trkpt>
      <trkpt lat="46.01469" lon="1.25016">
        <ele>376.012817</ele>
        <time>2011-02-06T09:59:17Z</time>
      </trkpt>
      <trkpt lat="46.01453" lon="1.25006">
        <ele>376.49353</ele>
        <time>2011-02-06T09:59:22Z</time>
      </trkpt>
      <trkpt lat="46.01437" lon="1.24993">
        <ele>376.49353</ele>
        <time>2011-02-06T09:59:27Z</time>
      </trkpt>
      <trkpt lat="46.01428" lon="1.24985">
        <ele>376.974243</ele>
        <time>2011-02-06T09:59:30Z</time>
      </trkpt>
      <trkpt lat="46.01415" lon="1.24989">
        <ele>378.416138</ele>
        <time>2011-02-06T09:59:34Z</time>
      </trkpt>
      <trkpt lat="46.01384" lon="1.2501">
        <ele>379.377441</ele>
        <time>2011-02-06T09:59:43Z</time>
      </trkpt>
      <trkpt lat="46.01339" lon="1.25044">
        <ele>381.78064</ele>
        <time>2011-02-06T09:59:56Z</time>
      </trkpt>
      <trkpt lat="46.01309" lon="1.25075">
        <ele>381.300049</ele>
        <time>2011-02-06T10:00:06Z</time>
      </trkpt>
      <trkpt lat="46.01289" lon="1.25095">
        <ele>379.858032</ele>
        <time>2011-02-06T10:00:13Z</time>
      </trkpt>
      <trkpt lat="46.01264" lon="1.25117">
        <ele>378.896851</ele>
        <time>2011-02-06T10:00:20Z</time>
      </trkpt>
      <trkpt lat="46.01249" lon="1.25129">
        <ele>377.454834</ele>
        <time>2011-02-06T10:00:23Z</time>
      </trkpt>
      <trkpt lat="46.01205" lon="1.25158">
        <ele>375.051514</ele>
        <time>2011-02-06T10:00:30Z</time>
      </trkpt>
      <trkpt lat="46.01179" lon="1.25172">
        <ele>373.609497</ele>
        <time>2011-02-06T10:00:34Z</time>
      </trkpt>
      <trkpt lat="46.01153" lon="1.25183">
        <ele>372.648193</ele>
        <time>2011-02-06T10:00:38Z</time>
      </trkpt>
      <trkpt lat="46.01092" lon="1.25205">
        <ele>372.167481</ele>
        <time>2011-02-06T10:00:47Z</time>
      </trkpt>
      <trkpt lat="46.01045" lon="1.25214">
        <ele>371.68689</ele>
        <time>2011-02-06T10:00:54Z</time>
      </trkpt>
      <trkpt lat="46.0099" lon="1.25222">
        <ele>371.68689</ele>
        <time>2011-02-06T10:01:02Z</time>
      </trkpt>
      <trkpt lat="46.00962" lon="1.25225">
        <ele>369.764282</ele>
        <time>2011-02-06T10:01:06Z</time>
      </trkpt>
      <trkpt lat="46.00942" lon="1.25233">
        <ele>367.841553</ele>
        <time>2011-02-06T10:01:09Z</time>
      </trkpt>
      <trkpt lat="46.00901" lon="1.25261">
        <ele>362.554321</ele>
        <time>2011-02-06T10:01:14Z</time>
      </trkpt>
      <trkpt lat="46.00872" lon="1.2528">
        <ele>359.67041</ele>
        <time>2011-02-06T10:01:17Z</time>
      </trkpt>
      <trkpt lat="46.00846" lon="1.25313">
        <ele>357.26709</ele>
        <time>2011-02-06T10:01:21Z</time>
      </trkpt>
      <trkpt lat="46.00831" lon="1.25355">
        <ele>357.747803</ele>
        <time>2011-02-06T10:01:25Z</time>
      </trkpt>
      <trkpt lat="46.00821" lon="1.2538">
        <ele>358.228394</ele>
        <time>2011-02-06T10:01:28Z</time>
      </trkpt>
      <trkpt lat="46.00805" lon="1.25405">
        <ele>358.228394</ele>
        <time>2011-02-06T10:01:32Z</time>
      </trkpt>
      <trkpt lat="46.00794" lon="1.25414">
        <ele>356.786377</ele>
        <time>2011-02-06T10:01:34Z</time>
      </trkpt>
      <trkpt lat="46.00783" lon="1.25425">
        <ele>356.305786</ele>
        <time>2011-02-06T10:01:36Z</time>
      </trkpt>
      <trkpt lat="46.00763" lon="1.25458">
        <ele>355.825195</ele>
        <time>2011-02-06T10:01:40Z</time>
      </trkpt>
      <trkpt lat="46.00761" lon="1.2549">
        <ele>358.228394</ele>
        <time>2011-02-06T10:01:44Z</time>
      </trkpt>
      <trkpt lat="46.0077" lon="1.25525">
        <ele>355.825195</ele>
        <time>2011-02-06T10:01:48Z</time>
      </trkpt>
      <trkpt lat="46.00769" lon="1.25544">
        <ele>352.460571</ele>
        <time>2011-02-06T10:01:52Z</time>
      </trkpt>
      <trkpt lat="46.00761" lon="1.25551">
        <ele>349.576538</ele>
        <time>2011-02-06T10:01:55Z</time>
      </trkpt>
      <trkpt lat="46.00743" lon="1.25574">
        <ele>350.057251</ele>
        <time>2011-02-06T10:02:01Z</time>
      </trkpt>
      <trkpt lat="46.00736" lon="1.25591">
        <ele>352.941162</ele>
        <time>2011-02-06T10:02:05Z</time>
      </trkpt>
      <trkpt lat="46.00723" lon="1.25606">
        <ele>355.344482</ele>
        <time>2011-02-06T10:02:12Z</time>
      </trkpt>
      <trkpt lat="46.00714" lon="1.2561">
        <ele>354.863769</ele>
        <time>2011-02-06T10:02:19Z</time>
      </trkpt>
      <trkpt lat="46.00711" lon="1.2561">
        <ele>354.863769</ele>
        <time>2011-02-06T10:02:21Z</time>
      </trkpt>
      <trkpt lat="46.00701" lon="1.25612">
        <ele>356.786377</ele>
        <time>2011-02-06T10:02:28Z</time>
      </trkpt>
      <trkpt lat="46.00694" lon="1.25622">
        <ele>360.151123</ele>
        <time>2011-02-06T10:02:34Z</time>
      </trkpt>
      <trkpt lat="46.00695" lon="1.25635">
        <ele>363.996338</ele>
        <time>2011-02-06T10:02:40Z</time>
      </trkpt>
      <trkpt lat="46.00696" lon="1.25643">
        <ele>365.438355</ele>
        <time>2011-02-06T10:02:44Z</time>
      </trkpt>
      <trkpt lat="46.00698" lon="1.25661">
        <ele>367.841553</ele>
        <time>2011-02-06T10:02:52Z</time>
      </trkpt>
      <trkpt lat="46.00702" lon="1.25674">
        <ele>367.841553</ele>
        <time>2011-02-06T10:02:58Z</time>
      </trkpt>
      <trkpt lat="46.00703" lon="1.25685">
        <ele>369.283691</ele>
        <time>2011-02-06T10:03:03Z</time>
      </trkpt>
      <trkpt lat="46.00695" lon="1.25707">
        <ele>369.764282</ele>
        <time>2011-02-06T10:03:11Z</time>
      </trkpt>
      <trkpt lat="46.00688" lon="1.25725">
        <ele>369.764282</ele>
        <time>2011-02-06T10:03:18Z</time>
      </trkpt>
      <trkpt lat="46.00682" lon="1.25743">
        <ele>369.283691</ele>
        <time>2011-02-06T10:03:25Z</time>
      </trkpt>
      <trkpt lat="46.00669" lon="1.25771">
        <ele>374.570801</ele>
        <time>2011-02-06T10:03:34Z</time>
      </trkpt>
      <trkpt lat="46.00661" lon="1.25793">
        <ele>375.051514</ele>
        <time>2011-02-06T10:03:42Z</time>
      </trkpt>
      <trkpt lat="46.0065" lon="1.25816">
        <ele>374.570801</ele>
        <time>2011-02-06T10:03:51Z</time>
      </trkpt>
      <trkpt lat="46.00642" lon="1.25827">
        <ele>373.609497</ele>
        <time>2011-02-06T10:03:57Z</time>
      </trkpt>
      <trkpt lat="46.00634" lon="1.25835">
        <ele>372.648193</ele>
        <time>2011-02-06T10:04:03Z</time>
      </trkpt>
      <trkpt lat="46.00628" lon="1.25842">
        <ele>372.648193</ele>
        <time>2011-02-06T10:04:07Z</time>
      </trkpt>
      <trkpt lat="46.00633" lon="1.25855">
        <ele>377.454834</ele>
        <time>2011-02-06T10:04:13Z</time>
      </trkpt>
      <trkpt lat="46.0064" lon="1.25862">
        <ele>378.896851</ele>
        <time>2011-02-06T10:04:18Z</time>
      </trkpt>
      <trkpt lat="46.00649" lon="1.2587">
        <ele>378.416138</ele>
        <time>2011-02-06T10:04:24Z</time>
      </trkpt>
      <trkpt lat="46.00652" lon="1.25872">
        <ele>377.454834</ele>
        <time>2011-02-06T10:04:26Z</time>
      </trkpt>
      <trkpt lat="46.00662" lon="1.2588">
        <ele>375.532105</ele>
        <time>2011-02-06T10:04:31Z</time>
      </trkpt>
      <trkpt lat="46.00684" lon="1.259">
        <ele>368.802978</ele>
        <time>2011-02-06T10:04:41Z</time>
      </trkpt>
      <trkpt lat="46.00691" lon="1.25906">
        <ele>368.802978</ele>
        <time>2011-02-06T10:04:48Z</time>
      </trkpt>
      <trkpt lat="46.00695" lon="1.25909">
        <ele>369.283691</ele>
        <time>2011-02-06T10:04:52Z</time>
      </trkpt>
      <trkpt lat="46.00702" lon="1.25916">
        <ele>371.206299</ele>
        <time>2011-02-06T10:04:58Z</time>
      </trkpt>
      <trkpt lat="46.00714" lon="1.25916">
        <ele>372.167481</ele>
        <time>2011-02-06T10:05:03Z</time>
      </trkpt>
      <trkpt lat="46.00717" lon="1.25914">
        <ele>372.648193</ele>
        <time>2011-02-06T10:05:04Z</time>
      </trkpt>
      <trkpt lat="46.00729" lon="1.25924">
        <ele>373.128906</ele>
        <time>2011-02-06T10:05:08Z</time>
      </trkpt>
      <trkpt lat="46.00737" lon="1.25942">
        <ele>374.090088</ele>
        <time>2011-02-06T10:05:13Z</time>
      </trkpt>
      <trkpt lat="46.00745" lon="1.25961">
        <ele>374.090088</ele>
        <time>2011-02-06T10:05:17Z</time>
      </trkpt>
      <trkpt lat="46.00748" lon="1.25983">
        <ele>373.609497</ele>
        <time>2011-02-06T10:05:20Z</time>
      </trkpt>
      <trkpt lat="46.00742" lon="1.26014">
        <ele>374.570801</ele>
        <time>2011-02-06T10:05:24Z</time>
      </trkpt>
      <trkpt lat="46.00735" lon="1.26031">
        <ele>376.49353</ele>
        <time>2011-02-06T10:05:27Z</time>
      </trkpt>
      <trkpt lat="46.00725" lon="1.26044">
        <ele>376.49353</ele>
        <time>2011-02-06T10:05:32Z</time>
      </trkpt>
      <trkpt lat="46.00711" lon="1.26061">
        <ele>376.49353</ele>
        <time>2011-02-06T10:05:40Z</time>
      </trkpt>
      <trkpt lat="46.00702" lon="1.26078">
        <ele>376.49353</ele>
        <time>2011-02-06T10:05:45Z</time>
      </trkpt>
      <trkpt lat="46.00699" lon="1.2609">
        <ele>377.454834</ele>
        <time>2011-02-06T10:05:48Z</time>
      </trkpt>
      <trkpt lat="46.00696" lon="1.26102">
        <ele>378.896851</ele>
        <time>2011-02-06T10:05:51Z</time>
      </trkpt>
      <trkpt lat="46.00691" lon="1.2613">
        <ele>381.78064</ele>
        <time>2011-02-06T10:05:58Z</time>
      </trkpt>
      <trkpt lat="46.00686" lon="1.26158">
        <ele>383.703247</ele>
        <time>2011-02-06T10:06:05Z</time>
      </trkpt>
      <trkpt lat="46.00681" lon="1.26177">
        <ele>384.664795</ele>
        <time>2011-02-06T10:06:10Z</time>
      </trkpt>
      <trkpt lat="46.00677" lon="1.26208">
        <ele>383.703247</ele>
        <time>2011-02-06T10:06:16Z</time>
      </trkpt>
      <trkpt lat="46.00673" lon="1.26236">
        <ele>382.742065</ele>
        <time>2011-02-06T10:06:20Z</time>
      </trkpt>
      <trkpt lat="46.00666" lon="1.2629">
        <ele>379.858032</ele>
        <time>2011-02-06T10:06:26Z</time>
      </trkpt>
      <trkpt lat="46.00647" lon="1.26349">
        <ele>375.532105</ele>
        <time>2011-02-06T10:06:32Z</time>
      </trkpt>
      <trkpt lat="46.00621" lon="1.26391">
        <ele>373.128906</ele>
        <time>2011-02-06T10:06:37Z</time>
      </trkpt>
      <trkpt lat="46.00611" lon="1.26405">
        <ele>371.68689</ele>
        <time>2011-02-06T10:06:39Z</time>
      </trkpt>
      <trkpt lat="46.00596" lon="1.26421">
        <ele>369.283691</ele>
        <time>2011-02-06T10:06:42Z</time>
      </trkpt>
      <trkpt lat="46.00585" lon="1.26432">
        <ele>369.764282</ele>
        <time>2011-02-06T10:06:44Z</time>
      </trkpt>
      <trkpt lat="46.00539" lon="1.26458">
        <ele>368.802978</ele>
        <time>2011-02-06T10:06:51Z</time>
      </trkpt>
      <trkpt lat="46.00494" lon="1.26488">
        <ele>364.957642</ele>
        <time>2011-02-06T10:06:57Z</time>
      </trkpt>
      <trkpt lat="46.00457" lon="1.26528">
        <ele>359.189697</ele>
        <time>2011-02-06T10:07:02Z</time>
      </trkpt>
      <trkpt lat="46.00429" lon="1.26572">
        <ele>357.747803</ele>
        <time>2011-02-06T10:07:07Z</time>
      </trkpt>
      <trkpt lat="46.00407" lon="1.26612">
        <ele>358.228394</ele>
        <time>2011-02-06T10:07:12Z</time>
      </trkpt>
      <trkpt lat="46.004" lon="1.26625">
        <ele>360.151123</ele>
        <time>2011-02-06T10:07:14Z</time>
      </trkpt>
      <trkpt lat="46.0038" lon="1.26651">
        <ele>364.476929</ele>
        <time>2011-02-06T10:07:21Z</time>
      </trkpt>
      <trkpt lat="46.00367" lon="1.26664">
        <ele>365.438355</ele>
        <time>2011-02-06T10:07:25Z</time>
      </trkpt>
      <trkpt lat="46.00361" lon="1.26669">
        <ele>365.918945</ele>
        <time>2011-02-06T10:07:27Z</time>
      </trkpt>
      <trkpt lat="46.00354" lon="1.2668">
        <ele>367.360962</ele>
        <time>2011-02-06T10:07:30Z</time>
      </trkpt>
      <trkpt lat="46.00357" lon="1.26699">
        <ele>370.244873</ele>
        <time>2011-02-06T10:07:34Z</time>
      </trkpt>
      <trkpt lat="46.0037" lon="1.26728">
        <ele>371.68689</ele>
        <time>2011-02-06T10:07:42Z</time>
      </trkpt>
      <trkpt lat="46.00381" lon="1.26749">
        <ele>370.725586</ele>
        <time>2011-02-06T10:07:48Z</time>
      </trkpt>
      <trkpt lat="46.0039" lon="1.26773">
        <ele>373.128906</ele>
        <time>2011-02-06T10:07:53Z</time>
      </trkpt>
      <trkpt lat="46.004" lon="1.26796">
        <ele>373.609497</ele>
        <time>2011-02-06T10:07:58Z</time>
      </trkpt>
      <trkpt lat="46.00408" lon="1.26821">
        <ele>373.128906</ele>
        <time>2011-02-06T10:08:03Z</time>
      </trkpt>
      <trkpt lat="46.00421" lon="1.26858">
        <ele>370.725586</ele>
        <time>2011-02-06T10:08:10Z</time>
      </trkpt>
      <trkpt lat="46.0043" lon="1.26881">
        <ele>366.399536</ele>
        <time>2011-02-06T10:08:14Z</time>
      </trkpt>
      <trkpt lat="46.00443" lon="1.26905">
        <ele>365.918945</ele>
        <time>2011-02-06T10:08:21Z</time>
      </trkpt>
      <trkpt lat="46.0046" lon="1.26923">
        <ele>366.880249</ele>
        <time>2011-02-06T10:08:28Z</time>
      </trkpt>
      <trkpt lat="46.00475" lon="1.26932">
        <ele>374.090088</ele>
        <time>2011-02-06T10:08:35Z</time>
      </trkpt>
      <trkpt lat="46.00484" lon="1.2694">
        <ele>375.532105</ele>
        <time>2011-02-06T10:08:40Z</time>
      </trkpt>
      <trkpt lat="46.00491" lon="1.26945">
        <ele>375.051514</ele>
        <time>2011-02-06T10:08:44Z</time>
      </trkpt>
      <trkpt lat="46.00493" lon="1.26946">
        <ele>375.051514</ele>
        <time>2011-02-06T10:08:45Z</time>
      </trkpt>
      <trkpt lat="46.00499" lon="1.26952">
        <ele>376.974243</ele>
        <time>2011-02-06T10:08:49Z</time>
      </trkpt>
      <trkpt lat="46.00512" lon="1.26964">
        <ele>381.300049</ele>
        <time>2011-02-06T10:08:56Z</time>
      </trkpt>
      <trkpt lat="46.00521" lon="1.26971">
        <ele>384.184082</ele>
        <time>2011-02-06T10:09:00Z</time>
      </trkpt>
      <trkpt lat="46.00531" lon="1.26977">
        <ele>382.261352</ele>
        <time>2011-02-06T10:09:04Z</time>
      </trkpt>
      <trkpt lat="46.00546" lon="1.26977">
        <ele>386.587402</ele>
        <time>2011-02-06T10:09:09Z</time>
      </trkpt>
      <trkpt lat="46.00562" lon="1.26977">
        <ele>388.51001</ele>
        <time>2011-02-06T10:09:15Z</time>
      </trkpt>
      <trkpt lat="46.00574" lon="1.26982">
        <ele>382.261352</ele>
        <time>2011-02-06T10:09:20Z</time>
      </trkpt>
      <trkpt lat="46.00591" lon="1.26979">
        <ele>383.222656</ele>
        <time>2011-02-06T10:09:26Z</time>
      </trkpt>
      <trkpt lat="46.00608" lon="1.26975">
        <ele>388.51001</ele>
        <time>2011-02-06T10:09:32Z</time>
      </trkpt>
      <trkpt lat="46.00632" lon="1.26973">
        <ele>387.067993</ele>
        <time>2011-02-06T10:09:41Z</time>
      </trkpt>
      <trkpt lat="46.00649" lon="1.2697">
        <ele>387.548584</ele>
        <time>2011-02-06T10:09:48Z</time>
      </trkpt>
      <trkpt lat="46.00664" lon="1.26968">
        <ele>387.067993</ele>
        <time>2011-02-06T10:09:54Z</time>
      </trkpt>
      <trkpt lat="46.00682" lon="1.2697">
        <ele>386.10669</ele>
        <time>2011-02-06T10:10:02Z</time>
      </trkpt>
      <trkpt lat="46.00694" lon="1.26973">
        <ele>386.587402</ele>
        <time>2011-02-06T10:10:07Z</time>
      </trkpt>
      <trkpt lat="46.00709" lon="1.26977">
        <ele>383.703247</ele>
        <time>2011-02-06T10:10:14Z</time>
      </trkpt>
      <trkpt lat="46.00725" lon="1.26986">
        <ele>383.222656</ele>
        <time>2011-02-06T10:10:20Z</time>
      </trkpt>
      <trkpt lat="46.00738" lon="1.26993">
        <ele>382.742065</ele>
        <time>2011-02-06T10:10:26Z</time>
      </trkpt>
      <trkpt lat="46.00753" lon="1.27003">
        <ele>384.664795</ele>
        <time>2011-02-06T10:10:32Z</time>
      </trkpt>
      <trkpt lat="46.00773" lon="1.27023">
        <ele>384.184082</ele>
        <time>2011-02-06T10:10:39Z</time>
      </trkpt>
      <trkpt lat="46.00789" lon="1.27036">
        <ele>379.858032</ele>
        <time>2011-02-06T10:10:45Z</time>
      </trkpt>
      <trkpt lat="46.00811" lon="1.27057">
        <ele>374.090088</ele>
        <time>2011-02-06T10:10:54Z</time>
      </trkpt>
      <trkpt lat="46.00828" lon="1.27071">
        <ele>369.764282</ele>
        <time>2011-02-06T10:11:02Z</time>
      </trkpt>
      <trkpt lat="46.00844" lon="1.27084">
        <ele>373.609497</ele>
        <time>2011-02-06T10:11:09Z</time>
      </trkpt>
      <trkpt lat="46.00863" lon="1.27099">
        <ele>377.454834</ele>
        <time>2011-02-06T10:11:17Z</time>
      </trkpt>
      <trkpt lat="46.00881" lon="1.27114">
        <ele>381.78064</ele>
        <time>2011-02-06T10:11:25Z</time>
      </trkpt>
      <trkpt lat="46.00899" lon="1.2713">
        <ele>387.548584</ele>
        <time>2011-02-06T10:11:34Z</time>
      </trkpt>
      <trkpt lat="46.00916" lon="1.27143">
        <ele>389.951904</ele>
        <time>2011-02-06T10:11:42Z</time>
      </trkpt>
      <trkpt lat="46.00936" lon="1.27156">
        <ele>389.951904</ele>
        <time>2011-02-06T10:11:50Z</time>
      </trkpt>
      <trkpt lat="46.00947" lon="1.27165">
        <ele>390.432617</ele>
        <time>2011-02-06T10:11:54Z</time>
      </trkpt>
      <trkpt lat="46.00956" lon="1.27171">
        <ele>389.951904</ele>
        <time>2011-02-06T10:11:59Z</time>
      </trkpt>
      <trkpt lat="46.00969" lon="1.27181">
        <ele>389.471191</ele>
        <time>2011-02-06T10:12:04Z</time>
      </trkpt>
      <trkpt lat="46.00986" lon="1.27198">
        <ele>388.029297</ele>
        <time>2011-02-06T10:12:10Z</time>
      </trkpt>
      <trkpt lat="46.00999" lon="1.27207">
        <ele>385.625977</ele>
        <time>2011-02-06T10:12:15Z</time>
      </trkpt>
      <trkpt lat="46.01014" lon="1.27215">
        <ele>384.184082</ele>
        <time>2011-02-06T10:12:20Z</time>
      </trkpt>
      <trkpt lat="46.0103" lon="1.27218">
        <ele>385.625977</ele>
        <time>2011-02-06T10:12:25Z</time>
      </trkpt>
      <trkpt lat="46.01049" lon="1.27218">
        <ele>389.951904</ele>
        <time>2011-02-06T10:12:30Z</time>
      </trkpt>
      <trkpt lat="46.01064" lon="1.27221">
        <ele>393.316528</ele>
        <time>2011-02-06T10:12:35Z</time>
      </trkpt>
      <trkpt lat="46.01078" lon="1.27218">
        <ele>398.123169</ele>
        <time>2011-02-06T10:12:39Z</time>
      </trkpt>
      <trkpt lat="46.01098" lon="1.27211">
        <ele>405.333008</ele>
        <time>2011-02-06T10:12:44Z</time>
      </trkpt>
      <trkpt lat="46.01117" lon="1.27207">
        <ele>406.294311</ele>
        <time>2011-02-06T10:12:50Z</time>
      </trkpt>
      <trkpt lat="46.01136" lon="1.27203">
        <ele>404.852295</ele>
        <time>2011-02-06T10:12:56Z</time>
      </trkpt>
      <trkpt lat="46.01155" lon="1.27199">
        <ele>406.294311</ele>
        <time>2011-02-06T10:13:02Z</time>
      </trkpt>
      <trkpt lat="46.01175" lon="1.27191">
        <ele>405.333008</ele>
        <time>2011-02-06T10:13:08Z</time>
      </trkpt>
      <trkpt lat="46.01189" lon="1.27184">
        <ele>406.294311</ele>
        <time>2011-02-06T10:13:13Z</time>
      </trkpt>
      <trkpt lat="46.01208" lon="1.27179">
        <ele>407.255615</ele>
        <time>2011-02-06T10:13:19Z</time>
      </trkpt>
      <trkpt lat="46.01222" lon="1.27172">
        <ele>409.178345</ele>
        <time>2011-02-06T10:13:24Z</time>
      </trkpt>
      <trkpt lat="46.01244" lon="1.2716">
        <ele>412.542847</ele>
        <time>2011-02-06T10:13:30Z</time>
      </trkpt>
      <trkpt lat="46.01272" lon="1.27141">
        <ele>415.907471</ele>
        <time>2011-02-06T10:13:37Z</time>
      </trkpt>
      <trkpt lat="46.01276" lon="1.27138">
        <ele>415.907471</ele>
        <time>2011-02-06T10:13:38Z</time>
      </trkpt>
      <trkpt lat="46.01299" lon="1.27126">
        <ele>415.907471</ele>
        <time>2011-02-06T10:13:44Z</time>
      </trkpt>
      <trkpt lat="46.01306" lon="1.27121">
        <ele>414.946167</ele>
        <time>2011-02-06T10:13:46Z</time>
      </trkpt>
      <trkpt lat="46.01328" lon="1.27109">
        <ele>414.946167</ele>
        <time>2011-02-06T10:13:51Z</time>
      </trkpt>
      <trkpt lat="46.01361" lon="1.27095">
        <ele>413.504273</ele>
        <time>2011-02-06T10:13:56Z</time>
      </trkpt>
      <trkpt lat="46.01367" lon="1.27092">
        <ele>413.02356</ele>
        <time>2011-02-06T10:13:57Z</time>
      </trkpt>
      <trkpt lat="46.01397" lon="1.27079">
        <ele>413.504273</ele>
        <time>2011-02-06T10:14:01Z</time>
      </trkpt>
      <trkpt lat="46.01419" lon="1.27072">
        <ele>413.984863</ele>
        <time>2011-02-06T10:14:04Z</time>
      </trkpt>
      <trkpt lat="46.01439" lon="1.27065">
        <ele>413.504273</ele>
        <time>2011-02-06T10:14:07Z</time>
      </trkpt>
      <trkpt lat="46.01457" lon="1.27059">
        <ele>412.062256</ele>
        <time>2011-02-06T10:14:10Z</time>
      </trkpt>
      <trkpt lat="46.01487" lon="1.27042">
        <ele>411.100952</ele>
        <time>2011-02-06T10:14:15Z</time>
      </trkpt>
      <trkpt lat="46.01508" lon="1.27026">
        <ele>402.449097</ele>
        <time>2011-02-06T10:14:19Z</time>
      </trkpt>
      <trkpt lat="46.01547" lon="1.2699">
        <ele>399.084351</ele>
        <time>2011-02-06T10:14:27Z</time>
      </trkpt>
      <trkpt lat="46.01577" lon="1.26966">
        <ele>397.161743</ele>
        <time>2011-02-06T10:14:33Z</time>
      </trkpt>
      <trkpt lat="46.0161" lon="1.26929">
        <ele>392.835938</ele>
        <time>2011-02-06T10:14:40Z</time>
      </trkpt>
      <trkpt lat="46.01642" lon="1.26881">
        <ele>390.432617</ele>
        <time>2011-02-06T10:14:47Z</time>
      </trkpt>
      <trkpt lat="46.0166" lon="1.26861">
        <ele>388.51001</ele>
        <time>2011-02-06T10:14:51Z</time>
      </trkpt>
      <trkpt lat="46.01667" lon="1.26854">
        <ele>388.990601</ele>
        <time>2011-02-06T10:14:53Z</time>
      </trkpt>
      <trkpt lat="46.01674" lon="1.26837">
        <ele>389.471191</ele>
        <time>2011-02-06T10:14:57Z</time>
      </trkpt>
      <trkpt lat="46.0168" lon="1.26828">
        <ele>388.990601</ele>
        <time>2011-02-06T10:14:59Z</time>
      </trkpt>
      <trkpt lat="46.01691" lon="1.26808">
        <ele>388.029297</ele>
        <time>2011-02-06T10:15:03Z</time>
      </trkpt>
      <trkpt lat="46.017" lon="1.26793">
        <ele>388.029297</ele>
        <time>2011-02-06T10:15:06Z</time>
      </trkpt>
      <trkpt lat="46.01716" lon="1.26793">
        <ele>386.587402</ele>
        <time>2011-02-06T10:15:10Z</time>
      </trkpt>
      <trkpt lat="46.0172" lon="1.26796">
        <ele>386.587402</ele>
        <time>2011-02-06T10:15:11Z</time>
      </trkpt>
      <trkpt lat="46.01737" lon="1.26803">
        <ele>388.51001</ele>
        <time>2011-02-06T10:15:15Z</time>
      </trkpt>
      <trkpt lat="46.0175" lon="1.26805">
        <ele>390.913208</ele>
        <time>2011-02-06T10:15:18Z</time>
      </trkpt>
      <trkpt lat="46.01758" lon="1.26806">
        <ele>391.874512</ele>
        <time>2011-02-06T10:15:20Z</time>
      </trkpt>
      <trkpt lat="46.01779" lon="1.26811">
        <ele>394.277954</ele>
        <time>2011-02-06T10:15:25Z</time>
      </trkpt>
      <trkpt lat="46.01786" lon="1.26814">
        <ele>393.797241</ele>
        <time>2011-02-06T10:15:27Z</time>
      </trkpt>
      <trkpt lat="46.01797" lon="1.26821">
        <ele>393.316528</ele>
        <time>2011-02-06T10:15:30Z</time>
      </trkpt>
      <trkpt lat="46.01822" lon="1.2683">
        <ele>395.719849</ele>
        <time>2011-02-06T10:15:36Z</time>
      </trkpt>
      <trkpt lat="46.01834" lon="1.26844">
        <ele>397.161743</ele>
        <time>2011-02-06T10:15:41Z</time>
      </trkpt>
      <trkpt lat="46.01835" lon="1.26848">
        <ele>398.123169</ele>
        <time>2011-02-06T10:15:42Z</time>
      </trkpt>
      <trkpt lat="46.01841" lon="1.26888">
        <ele>401.00708</ele>
        <time>2011-02-06T10:15:51Z</time>
      </trkpt>
      <trkpt lat="46.0184" lon="1.26915">
        <ele>401.487793</ele>
        <time>2011-02-06T10:15:57Z</time>
      </trkpt>
      <trkpt lat="46.01841" lon="1.26951">
        <ele>403.4104</ele>
        <time>2011-02-06T10:16:06Z</time>
      </trkpt>
      <trkpt lat="46.01847" lon="1.26976">
        <ele>404.852295</ele>
        <time>2011-02-06T10:16:13Z</time>
      </trkpt>
      <trkpt lat="46.01857" lon="1.27012">
        <ele>405.813721</ele>
        <time>2011-02-06T10:16:22Z</time>
      </trkpt>
      <trkpt lat="46.01869" lon="1.27048">
        <ele>405.813721</ele>
        <time>2011-02-06T10:16:32Z</time>
      </trkpt>
      <trkpt lat="46.01884" lon="1.27066">
        <ele>405.813721</ele>
        <time>2011-02-06T10:16:39Z</time>
      </trkpt>
      <trkpt lat="46.01892" lon="1.27076">
        <ele>404.852295</ele>
        <time>2011-02-06T10:16:44Z</time>
      </trkpt>
      <trkpt lat="46.01906" lon="1.27089">
        <ele>406.294311</ele>
        <time>2011-02-06T10:16:51Z</time>
      </trkpt>
      <trkpt lat="46.01924" lon="1.27101">
        <ele>408.697632</ele>
        <time>2011-02-06T10:16:59Z</time>
      </trkpt>
      <trkpt lat="46.01937" lon="1.2711">
        <ele>408.697632</ele>
        <time>2011-02-06T10:17:06Z</time>
      </trkpt>
      <trkpt lat="46.01952" lon="1.27117">
        <ele>408.217041</ele>
        <time>2011-02-06T10:17:10Z</time>
      </trkpt>
      <trkpt lat="46.01979" lon="1.2712">
        <ele>407.255615</ele>
        <time>2011-02-06T10:17:15Z</time>
      </trkpt>
      <trkpt lat="46.01992" lon="1.2712">
        <ele>406.774902</ele>
        <time>2011-02-06T10:17:18Z</time>
      </trkpt>
      <trkpt lat="46.02015" lon="1.27126">
        <ele>405.813721</ele>
        <time>2011-02-06T10:17:23Z</time>
      </trkpt>
      <trkpt lat="46.02037" lon="1.27137">
        <ele>406.294311</ele>
        <time>2011-02-06T10:17:28Z</time>
      </trkpt>
      <trkpt lat="46.02049" lon="1.27155">
        <ele>406.294311</ele>
        <time>2011-02-06T10:17:32Z</time>
      </trkpt>
      <trkpt lat="46.02054" lon="1.27176">
        <ele>405.813721</ele>
        <time>2011-02-06T10:17:36Z</time>
      </trkpt>
      <trkpt lat="46.02057" lon="1.27192">
        <ele>406.294311</ele>
        <time>2011-02-06T10:17:39Z</time>
      </trkpt>
      <trkpt lat="46.02065" lon="1.27211">
        <ele>407.255615</ele>
        <time>2011-02-06T10:17:43Z</time>
      </trkpt>
      <trkpt lat="46.02067" lon="1.27215">
        <ele>407.255615</ele>
        <time>2011-02-06T10:17:44Z</time>
      </trkpt>
      <trkpt lat="46.02075" lon="1.27239">
        <ele>407.736328</ele>
        <time>2011-02-06T10:17:49Z</time>
      </trkpt>
      <trkpt lat="46.02077" lon="1.27264">
        <ele>408.697632</ele>
        <time>2011-02-06T10:17:54Z</time>
      </trkpt>
      <trkpt lat="46.02086" lon="1.27271">
        <ele>411.100952</ele>
        <time>2011-02-06T10:17:58Z</time>
      </trkpt>
      <trkpt lat="46.02104" lon="1.27272">
        <ele>413.504273</ele>
        <time>2011-02-06T10:18:04Z</time>
      </trkpt>
      <trkpt lat="46.02121" lon="1.27274">
        <ele>414.946167</ele>
        <time>2011-02-06T10:18:10Z</time>
      </trkpt>
      <trkpt lat="46.02133" lon="1.27282">
        <ele>413.984863</ele>
        <time>2011-02-06T10:18:15Z</time>
      </trkpt>
      <trkpt lat="46.02145" lon="1.27298">
        <ele>413.02356</ele>
        <time>2011-02-06T10:18:21Z</time>
      </trkpt>
      <trkpt lat="46.02153" lon="1.27307">
        <ele>412.542847</ele>
        <time>2011-02-06T10:18:25Z</time>
      </trkpt>
      <trkpt lat="46.0217" lon="1.27323">
        <ele>412.542847</ele>
        <time>2011-02-06T10:18:31Z</time>
      </trkpt>
      <trkpt lat="46.02184" lon="1.27339">
        <ele>414.946167</ele>
        <time>2011-02-06T10:18:36Z</time>
      </trkpt>
      <trkpt lat="46.02198" lon="1.27355">
        <ele>414.946167</ele>
        <time>2011-02-06T10:18:42Z</time>
      </trkpt>
      <trkpt lat="46.02202" lon="1.27365">
        <ele>415.42688</ele>
        <time>2011-02-06T10:18:46Z</time>
      </trkpt>
      <trkpt lat="46.02213" lon="1.27385">
        <ele>417.8302</ele>
        <time>2011-02-06T10:18:52Z</time>
      </trkpt>
      <trkpt lat="46.0222" lon="1.27398">
        <ele>419.272217</ele>
        <time>2011-02-06T10:18:57Z</time>
      </trkpt>
      <trkpt lat="46.02227" lon="1.27406">
        <ele>419.272217</ele>
        <time>2011-02-06T10:19:02Z</time>
      </trkpt>
      <trkpt lat="46.02232" lon="1.27414">
        <ele>419.752808</ele>
        <time>2011-02-06T10:19:06Z</time>
      </trkpt>
      <trkpt lat="46.0224" lon="1.27426">
        <ele>419.752808</ele>
        <time>2011-02-06T10:19:11Z</time>
      </trkpt>
      <trkpt lat="46.02249" lon="1.27442">
        <ele>421.675415</ele>
        <time>2011-02-06T10:19:16Z</time>
      </trkpt>
      <trkpt lat="46.02257" lon="1.27457">
        <ele>425.040161</ele>
        <time>2011-02-06T10:19:20Z</time>
      </trkpt>
      <trkpt lat="46.02266" lon="1.27478">
        <ele>429.365967</ele>
        <time>2011-02-06T10:19:27Z</time>
      </trkpt>
      <trkpt lat="46.02276" lon="1.27501">
        <ele>432.730713</ele>
        <time>2011-02-06T10:19:34Z</time>
      </trkpt>
      <trkpt lat="46.02281" lon="1.27515">
        <ele>434.65332</ele>
        <time>2011-02-06T10:19:39Z</time>
      </trkpt>
      <trkpt lat="46.02284" lon="1.27523">
        <ele>432.730713</ele>
        <time>2011-02-06T10:19:41Z</time>
      </trkpt>
      <trkpt lat="46.02282" lon="1.27536">
        <ele>430.807983</ele>
        <time>2011-02-06T10:19:46Z</time>
      </trkpt>
      <trkpt lat="46.02278" lon="1.27542">
        <ele>430.32727</ele>
        <time>2011-02-06T10:19:52Z</time>
      </trkpt>
      <trkpt lat="46.02273" lon="1.27549">
        <ele>430.32727</ele>
        <time>2011-02-06T10:19:56Z</time>
      </trkpt>
      <trkpt lat="46.02261" lon="1.27561">
        <ele>430.32727</ele>
        <time>2011-02-06T10:20:03Z</time>
      </trkpt>
      <trkpt lat="46.02249" lon="1.2757">
        <ele>429.846558</ele>
        <time>2011-02-06T10:20:09Z</time>
      </trkpt>
      <trkpt lat="46.02232" lon="1.2759">
        <ele>427.92395</ele>
        <time>2011-02-06T10:20:17Z</time>
      </trkpt>
      <trkpt lat="46.02219" lon="1.27615">
        <ele>427.443359</ele>
        <time>2011-02-06T10:20:23Z</time>
      </trkpt>
      <trkpt lat="46.02209" lon="1.27649">
        <ele>427.92395</ele>
        <time>2011-02-06T10:20:30Z</time>
      </trkpt>
      <trkpt lat="46.02203" lon="1.27675">
        <ele>427.92395</ele>
        <time>2011-02-06T10:20:36Z</time>
      </trkpt>
      <trkpt lat="46.02209" lon="1.27687">
        <ele>427.92395</ele>
        <time>2011-02-06T10:20:40Z</time>
      </trkpt>
      <trkpt lat="46.02229" lon="1.27703">
        <ele>426.001343</ele>
        <time>2011-02-06T10:20:48Z</time>
      </trkpt>
      <trkpt lat="46.02247" lon="1.27718">
        <ele>425.040161</ele>
        <time>2011-02-06T10:20:54Z</time>
      </trkpt>
      <trkpt lat="46.02261" lon="1.27729">
        <ele>425.040161</ele>
        <time>2011-02-06T10:20:59Z</time>
      </trkpt>
      <trkpt lat="46.02281" lon="1.27746">
        <ele>423.598023</ele>
        <time>2011-02-06T10:21:05Z</time>
      </trkpt>
      <trkpt lat="46.02298" lon="1.27761">
        <ele>421.194824</ele>
        <time>2011-02-06T10:21:11Z</time>
      </trkpt>
      <trkpt lat="46.02313" lon="1.27771">
        <ele>421.194824</ele>
        <time>2011-02-06T10:21:15Z</time>
      </trkpt>
      <trkpt lat="46.02322" lon="1.27775">
        <ele>421.194824</ele>
        <time>2011-02-06T10:21:17Z</time>
      </trkpt>
      <trkpt lat="46.02352" lon="1.27803">
        <ele>420.233398</ele>
        <time>2011-02-06T10:21:23Z</time>
      </trkpt>
      <trkpt lat="46.02379" lon="1.27828">
        <ele>418.791504</ele>
        <time>2011-02-06T10:21:28Z</time>
      </trkpt>
      <trkpt lat="46.02412" lon="1.27857">
        <ele>416.388184</ele>
        <time>2011-02-06T10:21:34Z</time>
      </trkpt>
      <trkpt lat="46.02442" lon="1.27886">
        <ele>414.946167</ele>
        <time>2011-02-06T10:21:39Z</time>
      </trkpt>
      <trkpt lat="46.02454" lon="1.27896">
        <ele>414.946167</ele>
        <time>2011-02-06T10:21:41Z</time>
      </trkpt>
      <trkpt lat="46.02482" lon="1.27921">
        <ele>415.42688</ele>
        <time>2011-02-06T10:21:45Z</time>
      </trkpt>
      <trkpt lat="46.02509" lon="1.2796">
        <ele>415.907471</ele>
        <time>2011-02-06T10:21:50Z</time>
      </trkpt>
      <trkpt lat="46.02515" lon="1.27968">
        <ele>415.907471</ele>
        <time>2011-02-06T10:21:51Z</time>
      </trkpt>
      <trkpt lat="46.02527" lon="1.27983">
        <ele>415.42688</ele>
        <time>2011-02-06T10:21:53Z</time>
      </trkpt>
      <trkpt lat="46.02548" lon="1.28002">
        <ele>415.907471</ele>
        <time>2011-02-06T10:21:56Z</time>
      </trkpt>
      <trkpt lat="46.02587" lon="1.28024">
        <ele>417.8302</ele>
        <time>2011-02-06T10:22:01Z</time>
      </trkpt>
      <trkpt lat="46.02602" lon="1.28028">
        <ele>418.791504</ele>
        <time>2011-02-06T10:22:03Z</time>
      </trkpt>
      <trkpt lat="46.02644" lon="1.28023">
        <ele>422.156006</ele>
        <time>2011-02-06T10:22:08Z</time>
      </trkpt>
      <trkpt lat="46.02692" lon="1.28011">
        <ele>414.946167</ele>
        <time>2011-02-06T10:22:14Z</time>
      </trkpt>
      <trkpt lat="46.02699" lon="1.28008">
        <ele>414.465454</ele>
        <time>2011-02-06T10:22:15Z</time>
      </trkpt>
      <trkpt lat="46.02731" lon="1.28009">
        <ele>412.542847</ele>
        <time>2011-02-06T10:22:19Z</time>
      </trkpt>
      <trkpt lat="46.02746" lon="1.28015">
        <ele>411.581665</ele>
        <time>2011-02-06T10:22:21Z</time>
      </trkpt>
      <trkpt lat="46.02791" lon="1.28041">
        <ele>401.487793</ele>
        <time>2011-02-06T10:22:27Z</time>
      </trkpt>
      <trkpt lat="46.02834" lon="1.28045">
        <ele>400.045898</ele>
        <time>2011-02-06T10:22:32Z</time>
      </trkpt>
      <trkpt lat="46.02887" lon="1.28046">
        <ele>395.719849</ele>
        <time>2011-02-06T10:22:38Z</time>
      </trkpt>
      <trkpt lat="46.02897" lon="1.28043">
        <ele>394.758545</ele>
        <time>2011-02-06T10:22:39Z</time>
      </trkpt>
      <trkpt lat="46.02917" lon="1.28048">
        <ele>392.355347</ele>
        <time>2011-02-06T10:22:42Z</time>
      </trkpt>
      <trkpt lat="46.02951" lon="1.28087">
        <ele>384.184082</ele>
        <time>2011-02-06T10:22:46Z</time>
      </trkpt>
      <trkpt lat="46.02963" lon="1.28103">
        <ele>382.261352</ele>
        <time>2011-02-06T10:22:48Z</time>
      </trkpt>
      <trkpt lat="46.02982" lon="1.28132">
        <ele>379.377441</ele>
        <time>2011-02-06T10:22:52Z</time>
      </trkpt>
      <trkpt lat="46.03" lon="1.2815">
        <ele>378.896851</ele>
        <time>2011-02-06T10:22:55Z</time>
      </trkpt>
      <trkpt lat="46.03033" lon="1.28168">
        <ele>382.261352</ele>
        <time>2011-02-06T10:23:00Z</time>
      </trkpt>
      <trkpt lat="46.03054" lon="1.2818">
        <ele>383.222656</ele>
        <time>2011-02-06T10:23:03Z</time>
      </trkpt>
      <trkpt lat="46.0308" lon="1.28187">
        <ele>381.78064</ele>
        <time>2011-02-06T10:23:07Z</time>
      </trkpt>
      <trkpt lat="46.03102" lon="1.2821">
        <ele>377.935425</ele>
        <time>2011-02-06T10:23:11Z</time>
      </trkpt>
      <trkpt lat="46.03109" lon="1.28226">
        <ele>377.935425</ele>
        <time>2011-02-06T10:23:13Z</time>
      </trkpt>
      <trkpt lat="46.03117" lon="1.28252">
        <ele>376.974243</ele>
        <time>2011-02-06T10:23:16Z</time>
      </trkpt>
      <trkpt lat="46.03129" lon="1.28267">
        <ele>373.128906</ele>
        <time>2011-02-06T10:23:20Z</time>
      </trkpt>
      <trkpt lat="46.0314" lon="1.28259">
        <ele>371.68689</ele>
        <time>2011-02-06T10:23:22Z</time>
      </trkpt>
      <trkpt lat="46.03162" lon="1.28233">
        <ele>372.648193</ele>
        <time>2011-02-06T10:23:28Z</time>
      </trkpt>
      <trkpt lat="46.03183" lon="1.28212">
        <ele>373.609497</ele>
        <time>2011-02-06T10:23:34Z</time>
      </trkpt>
      <trkpt lat="46.03203" lon="1.2819">
        <ele>374.090088</ele>
        <time>2011-02-06T10:23:41Z</time>
      </trkpt>
      <trkpt lat="46.0321" lon="1.28181">
        <ele>376.49353</ele>
        <time>2011-02-06T10:23:45Z</time>
      </trkpt>
      <trkpt lat="46.03214" lon="1.28175">
        <ele>378.416138</ele>
        <time>2011-02-06T10:23:49Z</time>
      </trkpt>
      <trkpt lat="46.03219" lon="1.28167">
        <ele>380.338745</ele>
        <time>2011-02-06T10:23:53Z</time>
      </trkpt>
      <trkpt lat="46.03221" lon="1.28165">
        <ele>381.300049</ele>
        <time>2011-02-06T10:23:54Z</time>
      </trkpt>
      <trkpt lat="46.03228" lon="1.28156">
        <ele>382.261352</ele>
        <time>2011-02-06T10:23:58Z</time>
      </trkpt>
      <trkpt lat="46.03245" lon="1.28141">
        <ele>381.78064</ele>
        <time>2011-02-06T10:24:04Z</time>
      </trkpt>
      <trkpt lat="46.03262" lon="1.28124">
        <ele>381.300049</ele>
        <time>2011-02-06T10:24:10Z</time>
      </trkpt>
      <trkpt lat="46.03273" lon="1.28102">
        <ele>378.896851</ele>
        <time>2011-02-06T10:24:15Z</time>
      </trkpt>
      <trkpt lat="46.03285" lon="1.28075">
        <ele>380.338745</ele>
        <time>2011-02-06T10:24:20Z</time>
      </trkpt>
      <trkpt lat="46.03285" lon="1.28051">
        <ele>381.78064</ele>
        <time>2011-02-06T10:24:25Z</time>
      </trkpt>
      <trkpt lat="46.03286" lon="1.28022">
        <ele>383.703247</ele>
        <time>2011-02-06T10:24:31Z</time>
      </trkpt>
      <trkpt lat="46.03284" lon="1.27992">
        <ele>385.145386</ele>
        <time>2011-02-06T10:24:36Z</time>
      </trkpt>
      <trkpt lat="46.03282" lon="1.27966">
        <ele>382.261352</ele>
        <time>2011-02-06T10:24:40Z</time>
      </trkpt>
      <trkpt lat="46.03281" lon="1.27944">
        <ele>380.819458</ele>
        <time>2011-02-06T10:24:43Z</time>
      </trkpt>
      <trkpt lat="46.0328" lon="1.27914">
        <ele>377.454834</ele>
        <time>2011-02-06T10:24:47Z</time>
      </trkpt>
      <trkpt lat="46.03281" lon="1.27896">
        <ele>374.090088</ele>
        <time>2011-02-06T10:24:50Z</time>
      </trkpt>
      <trkpt lat="46.03288" lon="1.27871">
        <ele>373.609497</ele>
        <time>2011-02-06T10:24:54Z</time>
      </trkpt>
      <trkpt lat="46.03291" lon="1.27856">
        <ele>372.648193</ele>
        <time>2011-02-06T10:24:56Z</time>
      </trkpt>
      <trkpt lat="46.03294" lon="1.27823">
        <ele>374.570801</ele>
        <time>2011-02-06T10:25:00Z</time>
      </trkpt>
      <trkpt lat="46.03286" lon="1.27808">
        <ele>375.532105</ele>
        <time>2011-02-06T10:25:03Z</time>
      </trkpt>
      <trkpt lat="46.03278" lon="1.27804">
        <ele>376.012817</ele>
        <time>2011-02-06T10:25:05Z</time>
      </trkpt>
      <trkpt lat="46.03272" lon="1.27801">
        <ele>376.974243</ele>
        <time>2011-02-06T10:25:07Z</time>
      </trkpt>
      <trkpt lat="46.03249" lon="1.27797">
        <ele>380.819458</ele>
        <time>2011-02-06T10:25:13Z</time>
      </trkpt>
      <trkpt lat="46.03229" lon="1.27795">
        <ele>386.10669</ele>
        <time>2011-02-06T10:25:18Z</time>
      </trkpt>
      <trkpt lat="46.03214" lon="1.27789">
        <ele>386.10669</ele>
        <time>2011-02-06T10:25:22Z</time>
      </trkpt>
      <trkpt lat="46.03197" lon="1.27778">
        <ele>386.587402</ele>
        <time>2011-02-06T10:25:26Z</time>
      </trkpt>
      <trkpt lat="46.03192" lon="1.27774">
        <ele>385.625977</ele>
        <time>2011-02-06T10:25:27Z</time>
      </trkpt>
      <trkpt lat="46.0317" lon="1.27762">
        <ele>384.664795</ele>
        <time>2011-02-06T10:25:31Z</time>
      </trkpt>
      <trkpt lat="46.0315" lon="1.27757">
        <ele>383.222656</ele>
        <time>2011-02-06T10:25:35Z</time>
      </trkpt>
      <trkpt lat="46.0313" lon="1.27753">
        <ele>384.184082</ele>
        <time>2011-02-06T10:25:39Z</time>
      </trkpt>
      <trkpt lat="46.03101" lon="1.27746">
        <ele>379.377441</ele>
        <time>2011-02-06T10:25:45Z</time>
      </trkpt>
      <trkpt lat="46.03088" lon="1.27736">
        <ele>378.416138</ele>
        <time>2011-02-06T10:25:48Z</time>
      </trkpt>
      <trkpt lat="46.03075" lon="1.2774">
        <ele>378.416138</ele>
        <time>2011-02-06T10:25:51Z</time>
      </trkpt>
      <trkpt lat="46.03064" lon="1.27743">
        <ele>378.416138</ele>
        <time>2011-02-06T10:25:54Z</time>
      </trkpt>
      <trkpt lat="46.03059" lon="1.27736">
        <ele>380.819458</ele>
        <time>2011-02-06T10:25:57Z</time>
      </trkpt>
      <trkpt lat="46.03055" lon="1.27713">
        <ele>380.819458</ele>
        <time>2011-02-06T10:26:02Z</time>
      </trkpt>
      <trkpt lat="46.03051" lon="1.27702">
        <ele>381.300049</ele>
        <time>2011-02-06T10:26:04Z</time>
      </trkpt>
      <trkpt lat="46.03038" lon="1.27666">
        <ele>380.819458</ele>
        <time>2011-02-06T10:26:11Z</time>
      </trkpt>
      <trkpt lat="46.0303" lon="1.27642">
        <ele>384.664795</ele>
        <time>2011-02-06T10:26:15Z</time>
      </trkpt>
      <trkpt lat="46.03027" lon="1.27616">
        <ele>388.990601</ele>
        <time>2011-02-06T10:26:21Z</time>
      </trkpt>
      <trkpt lat="46.03026" lon="1.27607">
        <ele>389.951904</ele>
        <time>2011-02-06T10:26:23Z</time>
      </trkpt>
      <trkpt lat="46.03025" lon="1.27588">
        <ele>386.10669</ele>
        <time>2011-02-06T10:26:27Z</time>
      </trkpt>
      <trkpt lat="46.03037" lon="1.27575">
        <ele>379.858032</ele>
        <time>2011-02-06T10:26:31Z</time>
      </trkpt>
      <trkpt lat="46.03042" lon="1.27575">
        <ele>378.416138</ele>
        <time>2011-02-06T10:26:32Z</time>
      </trkpt>
      <trkpt lat="46.03064" lon="1.27575">
        <ele>376.012817</ele>
        <time>2011-02-06T10:26:37Z</time>
      </trkpt>
      <trkpt lat="46.03085" lon="1.27566">
        <ele>374.570801</ele>
        <time>2011-02-06T10:26:42Z</time>
      </trkpt>
      <trkpt lat="46.03099" lon="1.27559">
        <ele>375.051514</ele>
        <time>2011-02-06T10:26:46Z</time>
      </trkpt>
      <trkpt lat="46.03125" lon="1.27557">
        <ele>376.012817</ele>
        <time>2011-02-06T10:26:53Z</time>
      </trkpt>
      <trkpt lat="46.03141" lon="1.27546">
        <ele>375.532105</ele>
        <time>2011-02-06T10:26:57Z</time>
      </trkpt>
      <trkpt lat="46.03149" lon="1.27523">
        <ele>374.090088</ele>
        <time>2011-02-06T10:27:01Z</time>
      </trkpt>
      <trkpt lat="46.03152" lon="1.27512">
        <ele>374.090088</ele>
        <time>2011-02-06T10:27:03Z</time>
      </trkpt>
      <trkpt lat="46.03171" lon="1.27473">
        <ele>376.012817</ele>
        <time>2011-02-06T10:27:11Z</time>
      </trkpt>
      <trkpt lat="46.03177" lon="1.2745">
        <ele>379.858032</ele>
        <time>2011-02-06T10:27:17Z</time>
      </trkpt>
      <trkpt lat="46.03179" lon="1.27431">
        <ele>383.222656</ele>
        <time>2011-02-06T10:27:22Z</time>
      </trkpt>
      <trkpt lat="46.03179" lon="1.27408">
        <ele>386.10669</ele>
        <time>2011-02-06T10:27:28Z</time>
      </trkpt>
      <trkpt lat="46.03176" lon="1.27392">
        <ele>385.625977</ele>
        <time>2011-02-06T10:27:33Z</time>
      </trkpt>
      <trkpt lat="46.03167" lon="1.27392">
        <ele>387.067993</ele>
        <time>2011-02-06T10:27:39Z</time>
      </trkpt>
      <trkpt lat="46.0316" lon="1.27393">
        <ele>383.703247</ele>
        <time>2011-02-06T10:27:43Z</time>
      </trkpt>
      <trkpt lat="46.03155" lon="1.27388">
        <ele>384.664795</ele>
        <time>2011-02-06T10:27:48Z</time>
      </trkpt>
      <trkpt lat="46.03155" lon="1.27386">
        <ele>385.145386</ele>
        <time>2011-02-06T10:27:49Z</time>
      </trkpt>
      <trkpt lat="46.03159" lon="1.27377">
        <ele>387.067993</ele>
        <time>2011-02-06T10:27:53Z</time>
      </trkpt>
      <trkpt lat="46.03159" lon="1.2737">
        <ele>388.990601</ele>
        <time>2011-02-06T10:27:57Z</time>
      </trkpt>
      <trkpt lat="46.03157" lon="1.27353">
        <ele>393.797241</ele>
        <time>2011-02-06T10:28:04Z</time>
      </trkpt>
      <trkpt lat="46.03156" lon="1.27344">
        <ele>395.239136</ele>
        <time>2011-02-06T10:28:07Z</time>
      </trkpt>
      <trkpt lat="46.03153" lon="1.27326">
        <ele>395.239136</ele>
        <time>2011-02-06T10:28:14Z</time>
      </trkpt>
      <trkpt lat="46.03152" lon="1.27316">
        <ele>396.681152</ele>
        <time>2011-02-06T10:28:19Z</time>
      </trkpt>
      <trkpt lat="46.03151" lon="1.27314">
        <ele>397.642456</ele>
        <time>2011-02-06T10:28:20Z</time>
      </trkpt>
      <trkpt lat="46.03145" lon="1.27298">
        <ele>400.526489</ele>
        <time>2011-02-06T10:28:26Z</time>
      </trkpt>
      <trkpt lat="46.0314" lon="1.2728">
        <ele>403.4104</ele>
        <time>2011-02-06T10:28:32Z</time>
      </trkpt>
      <trkpt lat="46.03137" lon="1.27265">
        <ele>402.449097</ele>
        <time>2011-02-06T10:28:38Z</time>
      </trkpt>
      <trkpt lat="46.03135" lon="1.27256">
        <ele>401.487793</ele>
        <time>2011-02-06T10:28:43Z</time>
      </trkpt>
      <trkpt lat="46.03133" lon="1.2725">
        <ele>402.449097</ele>
        <time>2011-02-06T10:28:46Z</time>
      </trkpt>
      <trkpt lat="46.03131" lon="1.27236">
        <ele>401.00708</ele>
        <time>2011-02-06T10:28:51Z</time>
      </trkpt>
      <trkpt lat="46.03129" lon="1.27215">
        <ele>395.239136</ele>
        <time>2011-02-06T10:28:57Z</time>
      </trkpt>
      <trkpt lat="46.03122" lon="1.27194">
        <ele>388.51001</ele>
        <time>2011-02-06T10:29:01Z</time>
      </trkpt>
      <trkpt lat="46.03107" lon="1.27165">
        <ele>381.78064</ele>
        <time>2011-02-06T10:29:06Z</time>
      </trkpt>
      <trkpt lat="46.0309" lon="1.27129">
        <ele>383.222656</ele>
        <time>2011-02-06T10:29:11Z</time>
      </trkpt>
      <trkpt lat="46.0309" lon="1.27121">
        <ele>383.222656</ele>
        <time>2011-02-06T10:29:12Z</time>
      </trkpt>
      <trkpt lat="46.03091" lon="1.27097">
        <ele>387.548584</ele>
        <time>2011-02-06T10:29:15Z</time>
      </trkpt>
      <trkpt lat="46.03084" lon="1.27064">
        <ele>388.029297</ele>
        <time>2011-02-06T10:29:20Z</time>
      </trkpt>
      <trkpt lat="46.03072" lon="1.2704">
        <ele>389.471191</ele>
        <time>2011-02-06T10:29:25Z</time>
      </trkpt>
      <trkpt lat="46.03066" lon="1.27022">
        <ele>390.913208</ele>
        <time>2011-02-06T10:29:30Z</time>
      </trkpt>
      <trkpt lat="46.03059" lon="1.27009">
        <ele>393.797241</ele>
        <time>2011-02-06T10:29:35Z</time>
      </trkpt>
      <trkpt lat="46.03054" lon="1.27002">
        <ele>393.797241</ele>
        <time>2011-02-06T10:29:37Z</time>
      </trkpt>
      <trkpt lat="46.03053" lon="1.2697">
        <ele>392.835938</ele>
        <time>2011-02-06T10:29:43Z</time>
      </trkpt>
      <trkpt lat="46.03056" lon="1.26933">
        <ele>394.277954</ele>
        <time>2011-02-06T10:29:50Z</time>
      </trkpt>
      <trkpt lat="46.03059" lon="1.26911">
        <ele>396.681152</ele>
        <time>2011-02-06T10:29:55Z</time>
      </trkpt>
      <trkpt lat="46.03067" lon="1.26903">
        <ele>399.565064</ele>
        <time>2011-02-06T10:29:59Z</time>
      </trkpt>
      <trkpt lat="46.03087" lon="1.26903">
        <ele>399.565064</ele>
        <time>2011-02-06T10:30:06Z</time>
      </trkpt>
      <trkpt lat="46.03109" lon="1.26908">
        <ele>401.487793</ele>
        <time>2011-02-06T10:30:13Z</time>
      </trkpt>
      <trkpt lat="46.03119" lon="1.26906">
        <ele>402.929688</ele>
        <time>2011-02-06T10:30:16Z</time>
      </trkpt>
      <trkpt lat="46.03143" lon="1.26902">
        <ele>405.333008</ele>
        <time>2011-02-06T10:30:24Z</time>
      </trkpt>
      <trkpt lat="46.03152" lon="1.26897">
        <ele>404.852295</ele>
        <time>2011-02-06T10:30:27Z</time>
      </trkpt>
      <trkpt lat="46.03167" lon="1.26899">
        <ele>402.449097</ele>
        <time>2011-02-06T10:30:31Z</time>
      </trkpt>
      <trkpt lat="46.03184" lon="1.26908">
        <ele>398.60376</ele>
        <time>2011-02-06T10:30:35Z</time>
      </trkpt>
      <trkpt lat="46.03208" lon="1.2689">
        <ele>391.874512</ele>
        <time>2011-02-06T10:30:39Z</time>
      </trkpt>
      <trkpt lat="46.0324" lon="1.26872">
        <ele>386.10669</ele>
        <time>2011-02-06T10:30:43Z</time>
      </trkpt>
      <trkpt lat="46.03274" lon="1.26855">
        <ele>379.377441</ele>
        <time>2011-02-06T10:30:48Z</time>
      </trkpt>
      <trkpt lat="46.03304" lon="1.26846">
        <ele>376.012817</ele>
        <time>2011-02-06T10:30:52Z</time>
      </trkpt>
      <trkpt lat="46.03325" lon="1.26833">
        <ele>375.051514</ele>
        <time>2011-02-06T10:30:55Z</time>
      </trkpt>
      <trkpt lat="46.03343" lon="1.26817">
        <ele>373.609497</ele>
        <time>2011-02-06T10:30:58Z</time>
      </trkpt>
      <trkpt lat="46.03362" lon="1.26779">
        <ele>376.49353</ele>
        <time>2011-02-06T10:31:03Z</time>
      </trkpt>
      <trkpt lat="46.03366" lon="1.2676">
        <ele>377.935425</ele>
        <time>2011-02-06T10:31:05Z</time>
      </trkpt>
      <trkpt lat="46.03378" lon="1.26714">
        <ele>376.012817</ele>
        <time>2011-02-06T10:31:09Z</time>
      </trkpt>
      <trkpt lat="46.03384" lon="1.26671">
        <ele>376.49353</ele>
        <time>2011-02-06T10:31:13Z</time>
      </trkpt>
      <trkpt lat="46.03392" lon="1.26636">
        <ele>376.974243</ele>
        <time>2011-02-06T10:31:17Z</time>
      </trkpt>
      <trkpt lat="46.03397" lon="1.26621">
        <ele>376.012817</ele>
        <time>2011-02-06T10:31:19Z</time>
      </trkpt>
      <trkpt lat="46.03419" lon="1.26608">
        <ele>376.49353</ele>
        <time>2011-02-06T10:31:23Z</time>
      </trkpt>
      <trkpt lat="46.03436" lon="1.26596">
        <ele>376.49353</ele>
        <time>2011-02-06T10:31:28Z</time>
      </trkpt>
      <trkpt lat="46.03445" lon="1.26582">
        <ele>373.128906</ele>
        <time>2011-02-06T10:31:31Z</time>
      </trkpt>
      <trkpt lat="46.03461" lon="1.26579">
        <ele>373.128906</ele>
        <time>2011-02-06T10:31:35Z</time>
      </trkpt>
      <trkpt lat="46.03471" lon="1.26591">
        <ele>371.68689</ele>
        <time>2011-02-06T10:31:39Z</time>
      </trkpt>
      <trkpt lat="46.03485" lon="1.26607">
        <ele>369.764282</ele>
        <time>2011-02-06T10:31:44Z</time>
      </trkpt>
      <trkpt lat="46.03503" lon="1.26622">
        <ele>370.244873</ele>
        <time>2011-02-06T10:31:49Z</time>
      </trkpt>
      <trkpt lat="46.03511" lon="1.26628">
        <ele>371.68689</ele>
        <time>2011-02-06T10:31:53Z</time>
      </trkpt>
      <trkpt lat="46.03525" lon="1.26636">
        <ele>374.090088</ele>
        <time>2011-02-06T10:31:57Z</time>
      </trkpt>
      <trkpt lat="46.03536" lon="1.26646">
        <ele>373.128906</ele>
        <time>2011-02-06T10:32:01Z</time>
      </trkpt>
      <trkpt lat="46.03539" lon="1.26671">
        <ele>372.648193</ele>
        <time>2011-02-06T10:32:05Z</time>
      </trkpt>
      <trkpt lat="46.03532" lon="1.26698">
        <ele>374.570801</ele>
        <time>2011-02-06T10:32:09Z</time>
      </trkpt>
      <trkpt lat="46.03528" lon="1.2672">
        <ele>374.570801</ele>
        <time>2011-02-06T10:32:12Z</time>
      </trkpt>
      <trkpt lat="46.03526" lon="1.26757">
        <ele>376.012817</ele>
        <time>2011-02-06T10:32:17Z</time>
      </trkpt>
      <trkpt lat="46.03524" lon="1.26763">
        <ele>376.012817</ele>
        <time>2011-02-06T10:32:18Z</time>
      </trkpt>
      <trkpt lat="46.03509" lon="1.26797">
        <ele>376.012817</ele>
        <time>2011-02-06T10:32:24Z</time>
      </trkpt>
      <trkpt lat="46.03505" lon="1.26821">
        <ele>377.454834</ele>
        <time>2011-02-06T10:32:28Z</time>
      </trkpt>
      <trkpt lat="46.03509" lon="1.26837">
        <ele>377.935425</ele>
        <time>2011-02-06T10:32:31Z</time>
      </trkpt>
      <trkpt lat="46.03511" lon="1.26852">
        <ele>377.935425</ele>
        <time>2011-02-06T10:32:34Z</time>
      </trkpt>
      <trkpt lat="46.03521" lon="1.26864">
        <ele>380.819458</ele>
        <time>2011-02-06T10:32:39Z</time>
      </trkpt>
      <trkpt lat="46.03524" lon="1.26864">
        <ele>380.819458</ele>
        <time>2011-02-06T10:32:40Z</time>
      </trkpt>
      <trkpt lat="46.03542" lon="1.26861">
        <ele>381.78064</ele>
        <time>2011-02-06T10:32:46Z</time>
      </trkpt>
      <trkpt lat="46.03556" lon="1.26857">
        <ele>386.10669</ele>
        <time>2011-02-06T10:32:52Z</time>
      </trkpt>
      <trkpt lat="46.03564" lon="1.26857">
        <ele>389.951904</ele>
        <time>2011-02-06T10:32:56Z</time>
      </trkpt>
      <trkpt lat="46.03565" lon="1.26857">
        <ele>390.432617</ele>
        <time>2011-02-06T10:32:57Z</time>
      </trkpt>
      <trkpt lat="46.03575" lon="1.2686">
        <ele>392.355347</ele>
        <time>2011-02-06T10:33:03Z</time>
      </trkpt>
      <trkpt lat="46.03579" lon="1.26866">
        <ele>393.316528</ele>
        <time>2011-02-06T10:33:07Z</time>
      </trkpt>
      <trkpt lat="46.03586" lon="1.26875">
        <ele>395.239136</ele>
        <time>2011-02-06T10:33:13Z</time>
      </trkpt>
      <trkpt lat="46.03592" lon="1.26883">
        <ele>397.642456</ele>
        <time>2011-02-06T10:33:18Z</time>
      </trkpt>
      <trkpt lat="46.036" lon="1.26892">
        <ele>400.045898</ele>
        <time>2011-02-06T10:33:24Z</time>
      </trkpt>
      <trkpt lat="46.03604" lon="1.26895">
        <ele>398.60376</ele>
        <time>2011-02-06T10:33:28Z</time>
      </trkpt>
      <trkpt lat="46.03604" lon="1.26897">
        <ele>397.642456</ele>
        <time>2011-02-06T10:33:29Z</time>
      </trkpt>
      <trkpt lat="46.03613" lon="1.26918">
        <ele>393.316528</ele>
        <time>2011-02-06T10:33:36Z</time>
      </trkpt>
      <trkpt lat="46.03623" lon="1.26931">
        <ele>390.913208</ele>
        <time>2011-02-06T10:33:42Z</time>
      </trkpt>
      <trkpt lat="46.03635" lon="1.26938">
        <ele>395.239136</ele>
        <time>2011-02-06T10:33:48Z</time>
      </trkpt>
      <trkpt lat="46.0365" lon="1.2695">
        <ele>396.681152</ele>
        <time>2011-02-06T10:33:54Z</time>
      </trkpt>
      <trkpt lat="46.03668" lon="1.26964">
        <ele>398.123169</ele>
        <time>2011-02-06T10:34:01Z</time>
      </trkpt>
      <trkpt lat="46.03682" lon="1.26972">
        <ele>401.968506</ele>
        <time>2011-02-06T10:34:06Z</time>
      </trkpt>
      <trkpt lat="46.03698" lon="1.26973">
        <ele>403.4104</ele>
        <time>2011-02-06T10:34:11Z</time>
      </trkpt>
      <trkpt lat="46.0372" lon="1.26982">
        <ele>402.929688</ele>
        <time>2011-02-06T10:34:17Z</time>
      </trkpt>
      <trkpt lat="46.03734" lon="1.26986">
        <ele>401.00708</ele>
        <time>2011-02-06T10:34:20Z</time>
      </trkpt>
      <trkpt lat="46.03766" lon="1.26993">
        <ele>397.642456</ele>
        <time>2011-02-06T10:34:25Z</time>
      </trkpt>
      <trkpt lat="46.03799" lon="1.27006">
        <ele>391.393799</ele>
        <time>2011-02-06T10:34:30Z</time>
      </trkpt>
      <trkpt lat="46.03814" lon="1.27015">
        <ele>387.067993</ele>
        <time>2011-02-06T10:34:32Z</time>
      </trkpt>
      <trkpt lat="46.03855" lon="1.27033">
        <ele>375.532105</ele>
        <time>2011-02-06T10:34:37Z</time>
      </trkpt>
      <trkpt lat="46.03879" lon="1.27043">
        <ele>369.283691</ele>
        <time>2011-02-06T10:34:40Z</time>
      </trkpt>
      <trkpt lat="46.03901" lon="1.2705">
        <ele>363.515747</ele>
        <time>2011-02-06T10:34:43Z</time>
      </trkpt>
      <trkpt lat="46.03912" lon="1.2705">
        <ele>365.918945</ele>
        <time>2011-02-06T10:34:45Z</time>
      </trkpt>
      <trkpt lat="46.03921" lon="1.27027">
        <ele>364.957642</ele>
        <time>2011-02-06T10:34:49Z</time>
      </trkpt>
      <trkpt lat="46.03927" lon="1.27002">
        <ele>364.957642</ele>
        <time>2011-02-06T10:34:53Z</time>
      </trkpt>
      <trkpt lat="46.03934" lon="1.26993">
        <ele>364.957642</ele>
        <time>2011-02-06T10:34:56Z</time>
      </trkpt>
      <trkpt lat="46.03939" lon="1.26991">
        <ele>366.399536</ele>
        <time>2011-02-06T10:34:59Z</time>
      </trkpt>
      <trkpt lat="46.03953" lon="1.26991">
        <ele>370.725586</ele>
        <time>2011-02-06T10:35:05Z</time>
      </trkpt>
      <trkpt lat="46.03956" lon="1.26989">
        <ele>371.68689</ele>
        <time>2011-02-06T10:35:06Z</time>
      </trkpt>
      <trkpt lat="46.03968" lon="1.26982">
        <ele>375.051514</ele>
        <time>2011-02-06T10:35:10Z</time>
      </trkpt>
      <trkpt lat="46.03971" lon="1.2698">
        <ele>376.012817</ele>
        <time>2011-02-06T10:35:11Z</time>
      </trkpt>
      <trkpt lat="46.03981" lon="1.26977">
        <ele>380.338745</ele>
        <time>2011-02-06T10:35:16Z</time>
      </trkpt>
      <trkpt lat="46.03991" lon="1.26979">
        <ele>381.78064</ele>
        <time>2011-02-06T10:35:22Z</time>
      </trkpt>
      <trkpt lat="46.04001" lon="1.2698">
        <ele>384.184082</ele>
        <time>2011-02-06T10:35:27Z</time>
      </trkpt>
      <trkpt lat="46.04017" lon="1.26979">
        <ele>389.471191</ele>
        <time>2011-02-06T10:35:33Z</time>
      </trkpt>
      <trkpt lat="46.04024" lon="1.26978">
        <ele>390.913208</ele>
        <time>2011-02-06T10:35:35Z</time>
      </trkpt>
      <trkpt lat="46.04041" lon="1.26976">
        <ele>390.913208</ele>
        <time>2011-02-06T10:35:40Z</time>
      </trkpt>
      <trkpt lat="46.04055" lon="1.26969">
        <ele>390.913208</ele>
        <time>2011-02-06T10:35:45Z</time>
      </trkpt>
      <trkpt lat="46.04068" lon="1.26961">
        <ele>391.874512</ele>
        <time>2011-02-06T10:35:50Z</time>
      </trkpt>
      <trkpt lat="46.04076" lon="1.26954">
        <ele>393.797241</ele>
        <time>2011-02-06T10:35:54Z</time>
      </trkpt>
      <trkpt lat="46.04087" lon="1.26947">
        <ele>393.797241</ele>
        <time>2011-02-06T10:36:00Z</time>
      </trkpt>
      <trkpt lat="46.04095" lon="1.26939">
        <ele>389.471191</ele>
        <time>2011-02-06T10:36:05Z</time>
      </trkpt>
      <trkpt lat="46.04104" lon="1.26926">
        <ele>390.432617</ele>
        <time>2011-02-06T10:36:11Z</time>
      </trkpt>
      <trkpt lat="46.04113" lon="1.26915">
        <ele>388.029297</ele>
        <time>2011-02-06T10:36:16Z</time>
      </trkpt>
      <trkpt lat="46.04121" lon="1.26911">
        <ele>387.067993</ele>
        <time>2011-02-06T10:36:21Z</time>
      </trkpt>
      <trkpt lat="46.04126" lon="1.26911">
        <ele>386.587402</ele>
        <time>2011-02-06T10:36:24Z</time>
      </trkpt>
      <trkpt lat="46.0413" lon="1.26909">
        <ele>390.432617</ele>
        <time>2011-02-06T10:36:29Z</time>
      </trkpt>
      <trkpt lat="46.04145" lon="1.26899">
        <ele>392.355347</ele>
        <time>2011-02-06T10:36:35Z</time>
      </trkpt>
      <trkpt lat="46.04155" lon="1.26891">
        <ele>393.316528</ele>
        <time>2011-02-06T10:36:40Z</time>
      </trkpt>
      <trkpt lat="46.04157" lon="1.26889">
        <ele>394.758545</ele>
        <time>2011-02-06T10:36:41Z</time>
      </trkpt>
      <trkpt lat="46.0417" lon="1.2688">
        <ele>397.161743</ele>
        <time>2011-02-06T10:36:47Z</time>
      </trkpt>
      <trkpt lat="46.04171" lon="1.26879">
        <ele>397.161743</ele>
        <time>2011-02-06T10:36:48Z</time>
      </trkpt>
      <trkpt lat="46.04182" lon="1.26882">
        <ele>400.045898</ele>
        <time>2011-02-06T10:36:53Z</time>
      </trkpt>
      <trkpt lat="46.04187" lon="1.26883">
        <ele>400.526489</ele>
        <time>2011-02-06T10:36:55Z</time>
      </trkpt>
      <trkpt lat="46.04207" lon="1.26883">
        <ele>400.526489</ele>
        <time>2011-02-06T10:37:02Z</time>
      </trkpt>
      <trkpt lat="46.04223" lon="1.26893">
        <ele>399.565064</ele>
        <time>2011-02-06T10:37:07Z</time>
      </trkpt>
      <trkpt lat="46.04227" lon="1.26896">
        <ele>398.60376</ele>
        <time>2011-02-06T10:37:08Z</time>
      </trkpt>
      <trkpt lat="46.04236" lon="1.26913">
        <ele>392.355347</ele>
        <time>2011-02-06T10:37:12Z</time>
      </trkpt>
      <trkpt lat="46.0424" lon="1.26918">
        <ele>390.913208</ele>
        <time>2011-02-06T10:37:13Z</time>
      </trkpt>
      <trkpt lat="46.04251" lon="1.26931">
        <ele>383.703247</ele>
        <time>2011-02-06T10:37:17Z</time>
      </trkpt>
      <trkpt lat="46.04259" lon="1.26939">
        <ele>383.703247</ele>
        <time>2011-02-06T10:37:20Z</time>
      </trkpt>
      <trkpt lat="46.04261" lon="1.26957">
        <ele>380.338745</ele>
        <time>2011-02-06T10:37:25Z</time>
      </trkpt>
      <trkpt lat="46.04267" lon="1.2698">
        <ele>384.664795</ele>
        <time>2011-02-06T10:37:30Z</time>
      </trkpt>
      <trkpt lat="46.04284" lon="1.26987">
        <ele>386.587402</ele>
        <time>2011-02-06T10:37:36Z</time>
      </trkpt>
      <trkpt lat="46.04297" lon="1.2699">
        <ele>387.067993</ele>
        <time>2011-02-06T10:37:40Z</time>
      </trkpt>
      <trkpt lat="46.04315" lon="1.26989">
        <ele>388.029297</ele>
        <time>2011-02-06T10:37:44Z</time>
      </trkpt>
      <trkpt lat="46.04336" lon="1.26983">
        <ele>387.548584</ele>
        <time>2011-02-06T10:37:49Z</time>
      </trkpt>
      <trkpt lat="46.0435" lon="1.26974">
        <ele>387.067993</ele>
        <time>2011-02-06T10:37:53Z</time>
      </trkpt>
      <trkpt lat="46.04358" lon="1.2697">
        <ele>386.587402</ele>
        <time>2011-02-06T10:37:55Z</time>
      </trkpt>
      <trkpt lat="46.04368" lon="1.26968">
        <ele>386.10669</ele>
        <time>2011-02-06T10:37:57Z</time>
      </trkpt>
      <trkpt lat="46.04377" lon="1.26966">
        <ele>385.145386</ele>
        <time>2011-02-06T10:37:59Z</time>
      </trkpt>
      <trkpt lat="46.04397" lon="1.26976">
        <ele>381.78064</ele>
        <time>2011-02-06T10:38:03Z</time>
      </trkpt>
      <trkpt lat="46.04402" lon="1.26977">
        <ele>380.338745</ele>
        <time>2011-02-06T10:38:04Z</time>
      </trkpt>
      <trkpt lat="46.04421" lon="1.26995">
        <ele>375.051514</ele>
        <time>2011-02-06T10:38:09Z</time>
      </trkpt>
      <trkpt lat="46.04431" lon="1.27001">
        <ele>373.609497</ele>
        <time>2011-02-06T10:38:11Z</time>
      </trkpt>
      <trkpt lat="46.04463" lon="1.26997">
        <ele>376.49353</ele>
        <time>2011-02-06T10:38:17Z</time>
      </trkpt>
      <trkpt lat="46.0447" lon="1.26989">
        <ele>377.454834</ele>
        <time>2011-02-06T10:38:19Z</time>
      </trkpt>
      <trkpt lat="46.04476" lon="1.26979">
        <ele>377.454834</ele>
        <time>2011-02-06T10:38:21Z</time>
      </trkpt>
      <trkpt lat="46.04496" lon="1.2696">
        <ele>379.858032</ele>
        <time>2011-02-06T10:38:27Z</time>
      </trkpt>
      <trkpt lat="46.04505" lon="1.26972">
        <ele>384.184082</ele>
        <time>2011-02-06T10:38:31Z</time>
      </trkpt>
      <trkpt lat="46.04508" lon="1.26977">
        <ele>385.145386</ele>
        <time>2011-02-06T10:38:32Z</time>
      </trkpt>
      <trkpt lat="46.04515" lon="1.26987">
        <ele>384.664795</ele>
        <time>2011-02-06T10:38:34Z</time>
      </trkpt>
      <trkpt lat="46.04533" lon="1.27002">
        <ele>386.10669</ele>
        <time>2011-02-06T10:38:38Z</time>
      </trkpt>
      <trkpt lat="46.04551" lon="1.27005">
        <ele>387.548584</ele>
        <time>2011-02-06T10:38:42Z</time>
      </trkpt>
      <trkpt lat="46.04579" lon="1.27013">
        <ele>388.029297</ele>
        <time>2011-02-06T10:38:48Z</time>
      </trkpt>
      <trkpt lat="46.04583" lon="1.27014">
        <ele>388.029297</ele>
        <time>2011-02-06T10:38:49Z</time>
      </trkpt>
      <trkpt lat="46.04611" lon="1.27033">
        <ele>388.51001</ele>
        <time>2011-02-06T10:38:55Z</time>
      </trkpt>
      <trkpt lat="46.0463" lon="1.27044">
        <ele>385.145386</ele>
        <time>2011-02-06T10:38:59Z</time>
      </trkpt>
      <trkpt lat="46.04661" lon="1.27051">
        <ele>384.184082</ele>
        <time>2011-02-06T10:39:06Z</time>
      </trkpt>
      <trkpt lat="46.0467" lon="1.27054">
        <ele>383.703247</ele>
        <time>2011-02-06T10:39:08Z</time>
      </trkpt>
      <trkpt lat="46.04689" lon="1.27063">
        <ele>382.742065</ele>
        <time>2011-02-06T10:39:12Z</time>
      </trkpt>
      <trkpt lat="46.04712" lon="1.27064">
        <ele>381.78064</ele>
        <time>2011-02-06T10:39:16Z</time>
      </trkpt>
      <trkpt lat="46.0472" lon="1.27057">
        <ele>381.300049</ele>
        <time>2011-02-06T10:39:18Z</time>
      </trkpt>
      <trkpt lat="46.04732" lon="1.27047">
        <ele>381.78064</ele>
        <time>2011-02-06T10:39:22Z</time>
      </trkpt>
      <trkpt lat="46.04738" lon="1.27042">
        <ele>383.222656</ele>
        <time>2011-02-06T10:39:24Z</time>
      </trkpt>
      <trkpt lat="46.04748" lon="1.27026">
        <ele>386.587402</ele>
        <time>2011-02-06T10:39:29Z</time>
      </trkpt>
      <trkpt lat="46.04752" lon="1.27014">
        <ele>389.951904</ele>
        <time>2011-02-06T10:39:34Z</time>
      </trkpt>
      <trkpt lat="46.04753" lon="1.27012">
        <ele>390.913208</ele>
        <time>2011-02-06T10:39:35Z</time>
      </trkpt>
      <trkpt lat="46.04756" lon="1.26997">
        <ele>394.277954</ele>
        <time>2011-02-06T10:39:41Z</time>
      </trkpt>
      <trkpt lat="46.04761" lon="1.26978">
        <ele>395.239136</ele>
        <time>2011-02-06T10:39:49Z</time>
      </trkpt>
      <trkpt lat="46.04765" lon="1.26967">
        <ele>395.719849</ele>
        <time>2011-02-06T10:39:53Z</time>
      </trkpt>
      <trkpt lat="46.04768" lon="1.26959">
        <ele>396.681152</ele>
        <time>2011-02-06T10:39:56Z</time>
      </trkpt>
      <trkpt lat="46.04783" lon="1.26935">
        <ele>399.084351</ele>
        <time>2011-02-06T10:40:03Z</time>
      </trkpt>
      <trkpt lat="46.04795" lon="1.26912">
        <ele>404.852295</ele>
        <time>2011-02-06T10:40:09Z</time>
      </trkpt>
      <trkpt lat="46.048" lon="1.26896">
        <ele>403.4104</ele>
        <time>2011-02-06T10:40:14Z</time>
      </trkpt>
      <trkpt lat="46.04805" lon="1.26882">
        <ele>401.968506</ele>
        <time>2011-02-06T10:40:19Z</time>
      </trkpt>
      <trkpt lat="46.04813" lon="1.26865">
        <ele>401.487793</ele>
        <time>2011-02-06T10:40:25Z</time>
      </trkpt>
      <trkpt lat="46.0482" lon="1.26845">
        <ele>401.487793</ele>
        <time>2011-02-06T10:40:31Z</time>
      </trkpt>
      <trkpt lat="46.04825" lon="1.26834">
        <ele>399.565064</ele>
        <time>2011-02-06T10:40:37Z</time>
      </trkpt>
      <trkpt lat="46.04835" lon="1.26818">
        <ele>404.371704</ele>
        <time>2011-02-06T10:40:44Z</time>
      </trkpt>
      <trkpt lat="46.04842" lon="1.26809">
        <ele>406.294311</ele>
        <time>2011-02-06T10:40:48Z</time>
      </trkpt>
      <trkpt lat="46.04853" lon="1.26794">
        <ele>408.697632</ele>
        <time>2011-02-06T10:40:54Z</time>
      </trkpt>
      <trkpt lat="46.04863" lon="1.26781">
        <ele>410.139648</ele>
        <time>2011-02-06T10:40:58Z</time>
      </trkpt>
      <trkpt lat="46.04873" lon="1.26762">
        <ele>409.659058</ele>
        <time>2011-02-06T10:41:03Z</time>
      </trkpt>
      <trkpt lat="46.04887" lon="1.26739">
        <ele>407.736328</ele>
        <time>2011-02-06T10:41:07Z</time>
      </trkpt>
      <trkpt lat="46.04902" lon="1.26713">
        <ele>406.294311</ele>
        <time>2011-02-06T10:41:11Z</time>
      </trkpt>
      <trkpt lat="46.04932" lon="1.26664">
        <ele>395.239136</ele>
        <time>2011-02-06T10:41:16Z</time>
      </trkpt>
      <trkpt lat="46.04946" lon="1.26632">
        <ele>389.951904</ele>
        <time>2011-02-06T10:41:19Z</time>
      </trkpt>
      <trkpt lat="46.04966" lon="1.26604">
        <ele>384.664795</ele>
        <time>2011-02-06T10:41:23Z</time>
      </trkpt>
      <trkpt lat="46.04972" lon="1.26596">
        <ele>385.145386</ele>
        <time>2011-02-06T10:41:27Z</time>
      </trkpt>
      <trkpt lat="46.04973" lon="1.26591">
        <ele>385.145386</ele>
        <time>2011-02-06T10:41:31Z</time>
      </trkpt>
      <trkpt lat="46.04973" lon="1.26589">
        <ele>385.625977</ele>
        <time>2011-02-06T10:41:33Z</time>
      </trkpt>
      <trkpt lat="46.04975" lon="1.26581">
        <ele>386.587402</ele>
        <time>2011-02-06T10:41:40Z</time>
      </trkpt>
      <trkpt lat="46.04978" lon="1.26578">
        <ele>386.587402</ele>
        <time>2011-02-06T10:41:45Z</time>
      </trkpt>
      <trkpt lat="46.04983" lon="1.26567">
        <ele>385.145386</ele>
        <time>2011-02-06T10:41:59Z</time>
      </trkpt>
      <trkpt lat="46.04984" lon="1.26564">
        <ele>385.145386</ele>
        <time>2011-02-06T10:42:00Z</time>
      </trkpt>
      <trkpt lat="46.04993" lon="1.26549">
        <ele>385.625977</ele>
        <time>2011-02-06T10:42:04Z</time>
      </trkpt>
      <trkpt lat="46.05008" lon="1.2654">
        <ele>385.145386</ele>
        <time>2011-02-06T10:42:09Z</time>
      </trkpt>
      <trkpt lat="46.0502" lon="1.26547">
        <ele>383.222656</ele>
        <time>2011-02-06T10:42:13Z</time>
      </trkpt>
      <trkpt lat="46.05039" lon="1.26565">
        <ele>379.858032</ele>
        <time>2011-02-06T10:42:18Z</time>
      </trkpt>
      <trkpt lat="46.05047" lon="1.26568">
        <ele>379.377441</ele>
        <time>2011-02-06T10:42:20Z</time>
      </trkpt>
      <trkpt lat="46.05055" lon="1.26571">
        <ele>378.896851</ele>
        <time>2011-02-06T10:42:22Z</time>
      </trkpt>
      <trkpt lat="46.05067" lon="1.2659">
        <ele>377.454834</ele>
        <time>2011-02-06T10:42:27Z</time>
      </trkpt>
      <trkpt lat="46.05077" lon="1.26612">
        <ele>377.935425</ele>
        <time>2011-02-06T10:42:31Z</time>
      </trkpt>
      <trkpt lat="46.05099" lon="1.26635">
        <ele>376.974243</ele>
        <time>2011-02-06T10:42:36Z</time>
      </trkpt>
      <trkpt lat="46.05124" lon="1.26627">
        <ele>377.454834</ele>
        <time>2011-02-06T10:42:41Z</time>
      </trkpt>
      <trkpt lat="46.05134" lon="1.26628">
        <ele>378.896851</ele>
        <time>2011-02-06T10:42:43Z</time>
      </trkpt>
      <trkpt lat="46.05142" lon="1.2663">
        <ele>377.935425</ele>
        <time>2011-02-06T10:42:45Z</time>
      </trkpt>
      <trkpt lat="46.05167" lon="1.26637">
        <ele>375.051514</ele>
        <time>2011-02-06T10:42:49Z</time>
      </trkpt>
      <trkpt lat="46.05198" lon="1.26637">
        <ele>372.648193</ele>
        <time>2011-02-06T10:42:53Z</time>
      </trkpt>
      <trkpt lat="46.05229" lon="1.26646">
        <ele>372.648193</ele>
        <time>2011-02-06T10:42:58Z</time>
      </trkpt>
      <trkpt lat="46.05263" lon="1.26663">
        <ele>370.725586</ele>
        <time>2011-02-06T10:43:05Z</time>
      </trkpt>
      <trkpt lat="46.05268" lon="1.26666">
        <ele>370.244873</ele>
        <time>2011-02-06T10:43:06Z</time>
      </trkpt>
      <trkpt lat="46.05286" lon="1.26689">
        <ele>369.283691</ele>
        <time>2011-02-06T10:43:10Z</time>
      </trkpt>
      <trkpt lat="46.0529" lon="1.26698">
        <ele>369.283691</ele>
        <time>2011-02-06T10:43:11Z</time>
      </trkpt>
      <trkpt lat="46.05309" lon="1.26743">
        <ele>369.764282</ele>
        <time>2011-02-06T10:43:17Z</time>
      </trkpt>
      <trkpt lat="46.05331" lon="1.26784">
        <ele>369.764282</ele>
        <time>2011-02-06T10:43:24Z</time>
      </trkpt>
      <trkpt lat="46.05351" lon="1.26822">
        <ele>370.244873</ele>
        <time>2011-02-06T10:43:31Z</time>
      </trkpt>
      <trkpt lat="46.05378" lon="1.26871">
        <ele>369.764282</ele>
        <time>2011-02-06T10:43:40Z</time>
      </trkpt>
      <trkpt lat="46.05397" lon="1.26904">
        <ele>369.283691</ele>
        <time>2011-02-06T10:43:46Z</time>
      </trkpt>
      <trkpt lat="46.05396" lon="1.26923">
        <ele>369.283691</ele>
        <time>2011-02-06T10:43:50Z</time>
      </trkpt>
      <trkpt lat="46.05386" lon="1.26935">
        <ele>369.283691</ele>
        <time>2011-02-06T10:43:54Z</time>
      </trkpt>
      <trkpt lat="46.05377" lon="1.26946">
        <ele>370.725586</ele>
        <time>2011-02-06T10:43:58Z</time>
      </trkpt>
      <trkpt lat="46.05359" lon="1.2696">
        <ele>371.68689</ele>
        <time>2011-02-06T10:44:04Z</time>
      </trkpt>
      <trkpt lat="46.0534" lon="1.26969">
        <ele>372.648193</ele>
        <time>2011-02-06T10:44:10Z</time>
      </trkpt>
      <trkpt lat="46.05323" lon="1.26976">
        <ele>373.128906</ele>
        <time>2011-02-06T10:44:15Z</time>
      </trkpt>
      <trkpt lat="46.0532" lon="1.26977">
        <ele>373.609497</ele>
        <time>2011-02-06T10:44:16Z</time>
      </trkpt>
      <trkpt lat="46.05308" lon="1.26972">
        <ele>374.570801</ele>
        <time>2011-02-06T10:44:20Z</time>
      </trkpt>
      <trkpt lat="46.05281" lon="1.26962">
        <ele>376.012817</ele>
        <time>2011-02-06T10:44:26Z</time>
      </trkpt>
      <trkpt lat="46.05275" lon="1.2696">
        <ele>376.49353</ele>
        <time>2011-02-06T10:44:27Z</time>
      </trkpt>
      <trkpt lat="46.05247" lon="1.26949">
        <ele>377.935425</ele>
        <time>2011-02-06T10:44:32Z</time>
      </trkpt>
      <trkpt lat="46.05235" lon="1.26947">
        <ele>378.896851</ele>
        <time>2011-02-06T10:44:34Z</time>
      </trkpt>
      <trkpt lat="46.05218" lon="1.26942">
        <ele>380.338745</ele>
        <time>2011-02-06T10:44:37Z</time>
      </trkpt>
      <trkpt lat="46.05197" lon="1.26946">
        <ele>381.300049</ele>
        <time>2011-02-06T10:44:42Z</time>
      </trkpt>
      <trkpt lat="46.05188" lon="1.26949">
        <ele>380.338745</ele>
        <time>2011-02-06T10:44:44Z</time>
      </trkpt>
      <trkpt lat="46.05177" lon="1.26954">
        <ele>380.338745</ele>
        <time>2011-02-06T10:44:46Z</time>
      </trkpt>
      <trkpt lat="46.05164" lon="1.26963">
        <ele>379.377441</ele>
        <time>2011-02-06T10:44:49Z</time>
      </trkpt>
      <trkpt lat="46.05144" lon="1.26981">
        <ele>375.051514</ele>
        <time>2011-02-06T10:44:54Z</time>
      </trkpt>
      <trkpt lat="46.05136" lon="1.26989">
        <ele>375.051514</ele>
        <time>2011-02-06T10:44:56Z</time>
      </trkpt>
      <trkpt lat="46.05114" lon="1.27003">
        <ele>375.532105</ele>
        <time>2011-02-06T10:45:02Z</time>
      </trkpt>
      <trkpt lat="46.05097" lon="1.2702">
        <ele>375.532105</ele>
        <time>2011-02-06T10:45:06Z</time>
      </trkpt>
      <trkpt lat="46.05088" lon="1.27039">
        <ele>374.090088</ele>
        <time>2011-02-06T10:45:09Z</time>
      </trkpt>
      <trkpt lat="46.05075" lon="1.2705">
        <ele>374.570801</ele>
        <time>2011-02-06T10:45:12Z</time>
      </trkpt>
      <trkpt lat="46.05067" lon="1.27052">
        <ele>374.090088</ele>
        <time>2011-02-06T10:45:14Z</time>
      </trkpt>
      <trkpt lat="46.05046" lon="1.27057">
        <ele>373.128906</ele>
        <time>2011-02-06T10:45:19Z</time>
      </trkpt>
      <trkpt lat="46.05028" lon="1.27059">
        <ele>373.609497</ele>
        <time>2011-02-06T10:45:23Z</time>
      </trkpt>
      <trkpt lat="46.05014" lon="1.27068">
        <ele>373.128906</ele>
        <time>2011-02-06T10:45:27Z</time>
      </trkpt>
      <trkpt lat="46.05005" lon="1.27075">
        <ele>373.128906</ele>
        <time>2011-02-06T10:45:30Z</time>
      </trkpt>
      <trkpt lat="46.04988" lon="1.27082">
        <ele>371.206299</ele>
        <time>2011-02-06T10:45:34Z</time>
      </trkpt>
      <trkpt lat="46.04979" lon="1.27084">
        <ele>369.764282</ele>
        <time>2011-02-06T10:45:36Z</time>
      </trkpt>
      <trkpt lat="46.04968" lon="1.27086">
        <ele>371.206299</ele>
        <time>2011-02-06T10:45:40Z</time>
      </trkpt>
      <trkpt lat="46.04957" lon="1.27087">
        <ele>371.68689</ele>
        <time>2011-02-06T10:45:44Z</time>
      </trkpt>
      <trkpt lat="46.04943" lon="1.27089">
        <ele>373.128906</ele>
        <time>2011-02-06T10:45:49Z</time>
      </trkpt>
      <trkpt lat="46.0493" lon="1.27096">
        <ele>374.090088</ele>
        <time>2011-02-06T10:45:53Z</time>
      </trkpt>
      <trkpt lat="46.04919" lon="1.27108">
        <ele>375.051514</ele>
        <time>2011-02-06T10:45:57Z</time>
      </trkpt>
      <trkpt lat="46.04912" lon="1.27117">
        <ele>375.532105</ele>
        <time>2011-02-06T10:46:00Z</time>
      </trkpt>
      <trkpt lat="46.04902" lon="1.27131">
        <ele>375.532105</ele>
        <time>2011-02-06T10:46:05Z</time>
      </trkpt>
      <trkpt lat="46.04896" lon="1.27137">
        <ele>376.49353</ele>
        <time>2011-02-06T10:46:07Z</time>
      </trkpt>
      <trkpt lat="46.0488" lon="1.27165">
        <ele>372.167481</ele>
        <time>2011-02-06T10:46:13Z</time>
      </trkpt>
      <trkpt lat="46.04872" lon="1.27184">
        <ele>373.128906</ele>
        <time>2011-02-06T10:46:17Z</time>
      </trkpt>
      <trkpt lat="46.04868" lon="1.27192">
        <ele>374.570801</ele>
        <time>2011-02-06T10:46:19Z</time>
      </trkpt>
      <trkpt lat="46.04864" lon="1.27214">
        <ele>376.012817</ele>
        <time>2011-02-06T10:46:24Z</time>
      </trkpt>
      <trkpt lat="46.04873" lon="1.2724">
        <ele>377.454834</ele>
        <time>2011-02-06T10:46:29Z</time>
      </trkpt>
      <trkpt lat="46.04882" lon="1.27262">
        <ele>373.609497</ele>
        <time>2011-02-06T10:46:33Z</time>
      </trkpt>
      <trkpt lat="46.04888" lon="1.27281">
        <ele>370.725586</ele>
        <time>2011-02-06T10:46:37Z</time>
      </trkpt>
      <trkpt lat="46.04889" lon="1.27286">
        <ele>370.725586</ele>
        <time>2011-02-06T10:46:38Z</time>
      </trkpt>
      <trkpt lat="46.049" lon="1.27312">
        <ele>372.648193</ele>
        <time>2011-02-06T10:46:44Z</time>
      </trkpt>
      <trkpt lat="46.04918" lon="1.27332">
        <ele>371.206299</ele>
        <time>2011-02-06T10:46:49Z</time>
      </trkpt>
      <trkpt lat="46.04922" lon="1.27335">
        <ele>371.206299</ele>
        <time>2011-02-06T10:46:50Z</time>
      </trkpt>
      <trkpt lat="46.0493" lon="1.27342">
        <ele>370.244873</ele>
        <time>2011-02-06T10:46:52Z</time>
      </trkpt>
      <trkpt lat="46.04945" lon="1.27356">
        <ele>368.802978</ele>
        <time>2011-02-06T10:46:57Z</time>
      </trkpt>
      <trkpt lat="46.04955" lon="1.27386">
        <ele>366.399536</ele>
        <time>2011-02-06T10:47:03Z</time>
      </trkpt>
      <trkpt lat="46.04956" lon="1.27393">
        <ele>366.399536</ele>
        <time>2011-02-06T10:47:04Z</time>
      </trkpt>
      <trkpt lat="46.04957" lon="1.27427">
        <ele>364.957642</ele>
        <time>2011-02-06T10:47:08Z</time>
      </trkpt>
      <trkpt lat="46.04968" lon="1.27447">
        <ele>365.918945</ele>
        <time>2011-02-06T10:47:12Z</time>
      </trkpt>
      <trkpt lat="46.04979" lon="1.27463">
        <ele>365.438355</ele>
        <time>2011-02-06T10:47:16Z</time>
      </trkpt>
      <trkpt lat="46.04986" lon="1.2749">
        <ele>365.438355</ele>
        <time>2011-02-06T10:47:22Z</time>
      </trkpt>
      <trkpt lat="46.04979" lon="1.27507">
        <ele>365.438355</ele>
        <time>2011-02-06T10:47:26Z</time>
      </trkpt>
      <trkpt lat="46.04965" lon="1.27532">
        <ele>365.918945</ele>
        <time>2011-02-06T10:47:33Z</time>
      </trkpt>
      <trkpt lat="46.04961" lon="1.27556">
        <ele>365.918945</ele>
        <time>2011-02-06T10:47:39Z</time>
      </trkpt>
      <trkpt lat="46.0497" lon="1.27572">
        <ele>366.880249</ele>
        <time>2011-02-06T10:47:44Z</time>
      </trkpt>
      <trkpt lat="46.04989" lon="1.27601">
        <ele>368.802978</ele>
        <time>2011-02-06T10:47:53Z</time>
      </trkpt>
      <trkpt lat="46.05004" lon="1.27626">
        <ele>369.764282</ele>
        <time>2011-02-06T10:48:00Z</time>
      </trkpt>
      <trkpt lat="46.05015" lon="1.27655">
        <ele>369.283691</ele>
        <time>2011-02-06T10:48:07Z</time>
      </trkpt>
      <trkpt lat="46.05019" lon="1.27677">
        <ele>367.841553</ele>
        <time>2011-02-06T10:48:13Z</time>
      </trkpt>
      <trkpt lat="46.05016" lon="1.27697">
        <ele>367.841553</ele>
        <time>2011-02-06T10:48:18Z</time>
      </trkpt>
      <trkpt lat="46.05011" lon="1.27726">
        <ele>368.802978</ele>
        <time>2011-02-06T10:48:25Z</time>
      </trkpt>
      <trkpt lat="46.05013" lon="1.27751">
        <ele>372.648193</ele>
        <time>2011-02-06T10:48:32Z</time>
      </trkpt>
      <trkpt lat="46.05017" lon="1.27782">
        <ele>375.051514</ele>
        <time>2011-02-06T10:48:40Z</time>
      </trkpt>
      <trkpt lat="46.05017" lon="1.27812">
        <ele>374.570801</ele>
        <time>2011-02-06T10:48:47Z</time>
      </trkpt>
      <trkpt lat="46.05011" lon="1.2784">
        <ele>376.49353</ele>
        <time>2011-02-06T10:48:54Z</time>
      </trkpt>
      <trkpt lat="46.05003" lon="1.27865">
        <ele>377.935425</ele>
        <time>2011-02-06T10:49:01Z</time>
      </trkpt>
      <trkpt lat="46.05003" lon="1.27879">
        <ele>379.377441</ele>
        <time>2011-02-06T10:49:05Z</time>
      </trkpt>
      <trkpt lat="46.05004" lon="1.27895">
        <ele>380.338745</ele>
        <time>2011-02-06T10:49:10Z</time>
      </trkpt>
      <trkpt lat="46.05002" lon="1.27914">
        <ele>383.222656</ele>
        <time>2011-02-06T10:49:15Z</time>
      </trkpt>
      <trkpt lat="46.04997" lon="1.27927">
        <ele>387.548584</ele>
        <time>2011-02-06T10:49:20Z</time>
      </trkpt>
      <trkpt lat="46.04989" lon="1.27942">
        <ele>389.951904</ele>
        <time>2011-02-06T10:49:25Z</time>
      </trkpt>
      <trkpt lat="46.04987" lon="1.27971">
        <ele>389.951904</ele>
        <time>2011-02-06T10:49:30Z</time>
      </trkpt>
      <trkpt lat="46.0498" lon="1.28001">
        <ele>393.316528</ele>
        <time>2011-02-06T10:49:34Z</time>
      </trkpt>
      <trkpt lat="46.04961" lon="1.28051">
        <ele>387.067993</ele>
        <time>2011-02-06T10:49:40Z</time>
      </trkpt>
      <trkpt lat="46.04954" lon="1.2807">
        <ele>385.145386</ele>
        <time>2011-02-06T10:49:42Z</time>
      </trkpt>
      <trkpt lat="46.04953" lon="1.28106">
        <ele>384.664795</ele>
        <time>2011-02-06T10:49:46Z</time>
      </trkpt>
      <trkpt lat="46.0497" lon="1.28126">
        <ele>383.703247</ele>
        <time>2011-02-06T10:49:50Z</time>
      </trkpt>
      <trkpt lat="46.0498" lon="1.28126">
        <ele>383.222656</ele>
        <time>2011-02-06T10:49:52Z</time>
      </trkpt>
      <trkpt lat="46.04989" lon="1.28129">
        <ele>380.819458</ele>
        <time>2011-02-06T10:49:54Z</time>
      </trkpt>
      <trkpt lat="46.05003" lon="1.28135">
        <ele>378.416138</ele>
        <time>2011-02-06T10:49:57Z</time>
      </trkpt>
      <trkpt lat="46.05028" lon="1.28141">
        <ele>375.532105</ele>
        <time>2011-02-06T10:50:02Z</time>
      </trkpt>
      <trkpt lat="46.05048" lon="1.2815">
        <ele>375.051514</ele>
        <time>2011-02-06T10:50:06Z</time>
      </trkpt>
      <trkpt lat="46.0506" lon="1.28167">
        <ele>372.167481</ele>
        <time>2011-02-06T10:50:09Z</time>
      </trkpt>
      <trkpt lat="46.05081" lon="1.28193">
        <ele>368.802978</ele>
        <time>2011-02-06T10:50:13Z</time>
      </trkpt>
      <trkpt lat="46.05106" lon="1.28216">
        <ele>367.841553</ele>
        <time>2011-02-06T10:50:19Z</time>
      </trkpt>
      <trkpt lat="46.05114" lon="1.28226">
        <ele>370.725586</ele>
        <time>2011-02-06T10:50:23Z</time>
      </trkpt>
      <trkpt lat="46.05119" lon="1.28221">
        <ele>373.609497</ele>
        <time>2011-02-06T10:50:26Z</time>
      </trkpt>
      <trkpt lat="46.05128" lon="1.28208">
        <ele>375.532105</ele>
        <time>2011-02-06T10:50:31Z</time>
      </trkpt>
      <trkpt lat="46.05148" lon="1.28189">
        <ele>379.377441</ele>
        <time>2011-02-06T10:50:40Z</time>
      </trkpt>
      <trkpt lat="46.05167" lon="1.28181">
        <ele>379.858032</ele>
        <time>2011-02-06T10:50:46Z</time>
      </trkpt>
      <trkpt lat="46.05192" lon="1.28179">
        <ele>381.78064</ele>
        <time>2011-02-06T10:50:52Z</time>
      </trkpt>
      <trkpt lat="46.05202" lon="1.2818">
        <ele>381.78064</ele>
        <time>2011-02-06T10:50:54Z</time>
      </trkpt>
      <trkpt lat="46.05245" lon="1.28201">
        <ele>378.896851</ele>
        <time>2011-02-06T10:51:03Z</time>
      </trkpt>
      <trkpt lat="46.05271" lon="1.28224">
        <ele>379.377441</ele>
        <time>2011-02-06T10:51:10Z</time>
      </trkpt>
      <trkpt lat="46.05286" lon="1.28241">
        <ele>380.338745</ele>
        <time>2011-02-06T10:51:15Z</time>
      </trkpt>
      <trkpt lat="46.053" lon="1.28248">
        <ele>379.858032</ele>
        <time>2011-02-06T10:51:19Z</time>
      </trkpt>
      <trkpt lat="46.05333" lon="1.2826">
        <ele>380.338745</ele>
        <time>2011-02-06T10:51:29Z</time>
      </trkpt>
      <trkpt lat="46.05362" lon="1.28273">
        <ele>379.858032</ele>
        <time>2011-02-06T10:51:38Z</time>
      </trkpt>
      <trkpt lat="46.05387" lon="1.28287">
        <ele>381.78064</ele>
        <time>2011-02-06T10:51:46Z</time>
      </trkpt>
      <trkpt lat="46.05409" lon="1.28288">
        <ele>384.664795</ele>
        <time>2011-02-06T10:51:53Z</time>
      </trkpt>
      <trkpt lat="46.05422" lon="1.28277">
        <ele>387.067993</ele>
        <time>2011-02-06T10:51:58Z</time>
      </trkpt>
      <trkpt lat="46.05437" lon="1.28262">
        <ele>389.951904</ele>
        <time>2011-02-06T10:52:04Z</time>
      </trkpt>
      <trkpt lat="46.05452" lon="1.28262">
        <ele>391.874512</ele>
        <time>2011-02-06T10:52:09Z</time>
      </trkpt>
      <trkpt lat="46.05464" lon="1.28277">
        <ele>390.432617</ele>
        <time>2011-02-06T10:52:14Z</time>
      </trkpt>
      <trkpt lat="46.05469" lon="1.28302">
        <ele>390.432617</ele>
        <time>2011-02-06T10:52:20Z</time>
      </trkpt>
      <trkpt lat="46.05468" lon="1.28348">
        <ele>390.913208</ele>
        <time>2011-02-06T10:52:28Z</time>
      </trkpt>
      <trkpt lat="46.05466" lon="1.2841">
        <ele>391.393799</ele>
        <time>2011-02-06T10:52:37Z</time>
      </trkpt>
      <trkpt lat="46.05474" lon="1.28436">
        <ele>390.432617</ele>
        <time>2011-02-06T10:52:41Z</time>
      </trkpt>
      <trkpt lat="46.05485" lon="1.28434">
        <ele>390.432617</ele>
        <time>2011-02-06T10:52:44Z</time>
      </trkpt>
      <trkpt lat="46.05492" lon="1.28413">
        <ele>389.471191</ele>
        <time>2011-02-06T10:52:47Z</time>
      </trkpt>
      <trkpt lat="46.05496" lon="1.28404">
        <ele>389.471191</ele>
        <time>2011-02-06T10:52:48Z</time>
      </trkpt>
      <trkpt lat="46.0551" lon="1.28372">
        <ele>389.471191</ele>
        <time>2011-02-06T10:52:51Z</time>
      </trkpt>
      <trkpt lat="46.0552" lon="1.28318">
        <ele>386.587402</ele>
        <time>2011-02-06T10:52:55Z</time>
      </trkpt>
      <trkpt lat="46.05521" lon="1.28292">
        <ele>386.587402</ele>
        <time>2011-02-06T10:52:57Z</time>
      </trkpt>
      <trkpt lat="46.05529" lon="1.28244">
        <ele>386.10669</ele>
        <time>2011-02-06T10:53:01Z</time>
      </trkpt>
      <trkpt lat="46.05536" lon="1.28217">
        <ele>382.742065</ele>
        <time>2011-02-06T10:53:04Z</time>
      </trkpt>
      <trkpt lat="46.05542" lon="1.28198">
        <ele>378.416138</ele>
        <time>2011-02-06T10:53:09Z</time>
      </trkpt>
      <trkpt lat="46.05543" lon="1.28197">
        <ele>377.935425</ele>
        <time>2011-02-06T10:53:12Z</time>
      </trkpt>
      <trkpt lat="46.05547" lon="1.28187">
        <ele>376.974243</ele>
        <time>2011-02-06T10:53:27Z</time>
      </trkpt>
      <trkpt lat="46.05549" lon="1.28185">
        <ele>376.974243</ele>
        <time>2011-02-06T10:53:28Z</time>
      </trkpt>
      <trkpt lat="46.05554" lon="1.28183">
        <ele>376.49353</ele>
        <time>2011-02-06T10:53:29Z</time>
      </trkpt>
      <trkpt lat="46.05563" lon="1.28188">
        <ele>375.532105</ele>
        <time>2011-02-06T10:53:34Z</time>
      </trkpt>
      <trkpt lat="46.05579" lon="1.28187">
        <ele>373.609497</ele>
        <time>2011-02-06T10:53:40Z</time>
      </trkpt>
      <trkpt lat="46.0559" lon="1.28178">
        <ele>373.609497</ele>
        <time>2011-02-06T10:53:44Z</time>
      </trkpt>
    </trkseg>
  </trk>
</gpx>